[[{"header":{"parameterUnit":"m.s-1","parameterCategory":1,"la1":30.6,"la2":29.2853,"lo1":-89.7004,"lo2":-87.6739,"dy":0.0162,"dx":0.0183,"nx":112,"ny":82,"refTime":"2024-08-15T06:00:00:Z","depth":0,"parameterNumber":2,"parameterNumberName":"U-component_of_WINDS"},"data":[0.0,0.0,0.0,0.0,0.0,0.0,0.0,0.0,0.0,0.0,0.0,0.0,0.0,0.0,0.0,0.0,0.0,0.0,0.0,0.0,0.0,0.0,0.0,0.0,0.0,0.0,0.0,0.0,0.0,0.0,0.0,0.0,0.0,0.0,0.0,0.0,0.0,0.0,0.0,0.0,0.0,0.0,0.0,0.0,0.0,0.0,0.0,0.0,0.0,0.0,0.0,0.0,0.0,0.0,0.0,0.0,0.0,0.0,0.0,0.0,0.0,0.0,0.0,0.0,0.0,0.0,0.0,0.0,0.0,0.0,0.0,0.0,0.0,0.0,0.0,0.0,0.0,0.0,0.0,0.0,0.0,0.0,0.0,0.0,0.0,0.0,0.0,0.0,0.0,0.0,-0.5367,-0.5603,-0.6352,-0.6648,-0.6186,-0.6361,-0.647,-0.6312,0.0,0.0,0.0,0.0,0.0,0.0,0.0,0.0,0.0,0.0,0.0,0.0,0.0,0.0,0.0,0.0,0.0,0.0,0.0,0.0,0.0,0.0,0.0,0.0,0.0,0.0,0.0,0.0,0.0,0.0,0.0,0.0,0.0,0.0,0.0,0.0,0.0,0.0,0.0,0.0,0.0,0.0,0.0,0.0,0.0,0.0,0.0,0.0,0.0,0.0,0.0,0.0,0.0,0.0,0.0,0.0,0.0,0.0,0.0,0.0,0.0,0.0,0.0,0.0,0.0,0.0,0.0,0.0,0.0,0.0,0.0,0.0,0.0,0.0,0.0,0.0,0.0,0.0,0.0,0.0,0.0,0.0,0.0,0.0,0.0,0.0,0.0,0.0,0.0,0.0,0.0,0.0,0.0,0.0,0.0,0.0,0.0,0.0,0.0,0.0,0.0,0.0,0.0,0.0,-0.5294,-0.6384,-0.7156,-0.7537,-0.7369,-0.6822,-0.6587,-0.6871,0.0,0.0,0.0,0.0,0.0,0.0,0.0,0.0,0.0,0.0,0.0,0.0,0.0,0.0,0.0,0.0,0.0,0.0,0.0,0.0,0.0,0.0,0.0,0.0,0.0,0.0,0.0,0.0,0.0,0.0,0.0,0.0,0.0,0.0,0.0,0.0,0.0,0.0,0.0,0.0,0.0,0.0,0.0,0.0,0.0,0.0,0.0,0.0,0.0,0.0,0.0,0.0,0.0,0.0,0.0,0.0,0.0,0.0,0.0,0.0,0.0,0.0,0.0,0.0,0.0,0.0,0.0,0.0,0.0,0.0,0.0,0.0,0.0,0.0,0.0,0.0,0.0,0.0,0.0,0.0,0.0,0.0,0.0,0.0,0.0,0.0,0.0,0.0,0.0,0.0,0.0,0.0,0.0,0.0,0.0,0.0,0.0,0.0,0.0,0.0,0.0,0.0,0.0,-0.5803,-0.6311,-0.7205,-0.7833,-0.8024,-0.7602,-0.7665,-0.7586,-0.7121,-0.6607,0.0,0.0,0.0,0.0,0.0,0.0,0.0,0.0,0.0,0.0,0.0,0.0,0.0,0.0,0.0,0.0,0.0,0.0,0.0,0.0,0.0,0.0,0.0,0.0,0.0,0.0,0.0,0.0,0.0,0.0,0.0,0.0,0.0,0.0,0.0,0.0,0.0,0.0,0.0,0.0,0.0,0.0,0.0,0.0,0.0,0.0,0.0,0.0,0.0,0.0,0.0,0.0,0.0,0.0,0.0,0.0,0.0,0.0,0.0,0.0,0.0,0.0,0.0,0.0,0.0,0.0,0.0,0.0,0.0,0.0,0.0,0.0,0.0,0.0,0.0,0.0,0.0,0.0,0.0,0.0,0.0,0.0,0.0,0.0,0.0,0.0,0.0,0.0,0.0,0.0,0.0,0.0,0.0,0.0,0.0,0.0,0.0,0.0,0.0,0.0,0.0,0.0,-0.7203,-0.7449,-0.8061,-0.8587,-0.8649,-0.8046,-0.855,-0.8537,-0.7685,-0.7091,0.0,0.0,0.0,0.0,0.0,0.0,0.0,0.0,0.0,0.0,0.0,0.0,0.0,0.0,0.0,0.0,0.0,0.0,0.0,0.0,0.0,0.0,0.0,0.0,0.0,0.0,0.0,0.0,0.0,0.0,0.0,0.0,0.0,0.0,0.0,0.0,0.0,0.0,0.0,0.0,0.0,0.0,0.0,0.0,0.0,0.0,0.0,0.0,0.0,0.0,0.0,0.0,0.0,0.0,0.0,0.0,0.0,0.0,0.0,0.0,0.0,0.0,0.0,0.0,0.0,0.0,0.0,0.0,0.0,0.0,0.0,0.0,0.0,0.0,0.0,0.0,0.0,0.0,0.0,0.0,0.0,0.0,0.0,0.0,0.0,0.0,0.0,0.0,0.0,0.0,0.0,0.0,0.0,0.0,0.0,0.0,0.0,0.0,0.0,0.0,0.0,0.0,-0.7516,-0.8191,-0.8918,-0.936,-0.9615,-0.9537,-0.9251,-0.9046,-0.9003,-0.7657,0.0,0.0,0.0,0.0,0.0,0.0,0.0,0.0,0.0,0.0,0.0,0.0,0.0,0.0,0.0,0.0,0.0,0.0,0.0,0.0,0.0,0.0,0.0,0.0,0.0,0.0,0.0,0.0,0.0,0.0,0.0,0.0,0.0,0.0,0.0,0.0,0.0,0.0,0.0,0.0,0.0,0.0,0.0,0.0,0.0,0.0,0.0,0.0,0.0,0.0,0.0,0.0,0.0,0.0,0.0,0.0,0.0,0.0,0.0,0.0,0.0,0.0,0.0,0.0,0.0,0.0,0.0,0.0,0.0,0.0,0.0,0.0,0.0,0.0,0.0,0.0,0.0,0.0,0.0,0.0,0.0,0.0,0.0,0.0,0.0,0.0,0.0,0.0,0.0,0.0,0.0,0.0,0.0,0.0,0.0,0.0,0.0,0.0,0.0,0.0,0.0,0.0,-0.7833,-0.8443,-0.9621,-0.9833,-0.9953,-0.9953,-0.9975,-0.9619,-0.8628,0.0,0.0,0.0,0.0,0.0,0.0,0.0,0.0,0.0,0.0,0.0,0.0,0.0,0.0,0.0,0.0,0.0,0.0,0.0,0.0,0.0,0.0,0.0,0.0,0.0,0.0,0.0,0.0,0.0,0.0,0.0,0.0,0.0,0.0,0.0,0.0,0.0,0.0,0.0,0.0,0.0,0.0,0.0,0.0,0.0,0.0,0.0,0.0,0.0,0.0,0.0,0.0,0.0,0.0,0.0,0.0,0.0,0.0,0.0,0.0,0.0,0.0,0.0,0.0,0.0,0.0,0.0,0.0,0.0,0.0,0.0,0.0,0.0,0.0,0.0,0.0,0.0,0.0,0.0,0.0,0.0,0.0,0.0,0.0,0.0,0.0,0.0,0.0,0.0,0.0,0.0,0.0,0.0,0.0,0.0,0.0,0.0,0.0,0.0,0.0,0.0,0.0,-0.7797,-0.8212,-0.8848,-1.0124,-1.0174,-1.0154,-1.0247,-1.0441,-1.0108,-0.8886,0.0,0.0,0.0,0.0,0.0,0.0,0.0,0.0,0.0,0.0,0.0,0.0,0.0,0.0,0.0,0.0,0.0,0.0,0.0,0.0,0.0,0.0,0.0,0.0,0.0,0.0,0.0,0.0,0.0,0.0,0.0,0.0,0.0,0.0,0.0,0.0,0.0,0.0,0.0,0.0,0.0,0.0,0.0,0.0,0.0,0.0,0.0,0.0,0.0,0.0,0.0,0.0,0.0,0.0,0.0,0.0,0.0,0.0,0.0,0.0,0.0,0.0,0.0,0.0,0.0,0.0,0.0,0.0,0.0,0.0,0.0,0.0,0.0,0.0,0.0,0.0,0.0,0.0,0.0,0.0,0.0,0.0,0.0,0.0,0.0,0.0,0.0,0.0,0.0,0.0,0.0,0.0,0.0,0.0,0.0,0.0,0.0,0.0,0.0,0.0,0.0,0.0,-0.7906,-0.8657,-0.9482,-1.0465,-1.0294,-1.0241,-1.0598,-1.0618,-1.0428,0.0,0.0,0.0,0.0,0.0,0.0,0.0,0.0,0.0,0.0,0.0,0.0,0.0,0.0,0.0,0.0,0.0,0.0,0.0,0.0,0.0,0.0,0.0,0.0,0.0,0.0,0.0,0.0,0.0,0.0,0.0,0.0,0.0,0.0,0.0,0.0,0.0,0.0,0.0,0.0,0.0,0.0,0.0,0.0,0.0,0.0,0.0,0.0,0.0,0.0,0.0,0.0,0.0,0.0,0.0,0.0,0.0,0.0,0.0,0.0,0.0,0.0,0.0,0.0,0.0,0.0,0.0,0.0,0.0,0.0,0.0,0.0,0.0,0.0,0.0,0.0,0.0,0.0,0.0,0.0,0.0,0.0,0.0,0.0,0.0,0.0,0.0,0.0,0.0,0.0,0.0,0.0,0.0,0.0,0.0,0.0,0.0,0.0,0.0,0.0,0.0,0.0,0.0,-0.7981,-0.8867,-0.9693,-1.0485,-1.0481,-1.0461,-1.0618,-1.0043,-0.937,-0.8687,0.0,0.0,0.0,0.0,0.0,0.0,0.0,0.0,0.0,0.0,0.0,0.0,0.0,0.0,0.0,0.0,0.0,0.0,0.0,0.0,0.0,0.0,0.0,0.0,0.0,0.0,0.0,0.0,0.0,0.0,0.0,0.0,0.0,0.0,0.0,0.0,0.0,0.0,0.0,0.0,0.0,0.0,0.0,0.0,0.0,0.0,0.0,0.0,0.0,0.0,0.0,0.0,0.0,0.0,0.0,0.0,0.0,0.0,0.0,0.0,0.0,0.0,0.0,0.0,0.0,0.0,0.0,0.0,0.0,0.0,0.0,0.0,0.0,0.0,0.0,0.0,0.0,0.0,0.0,0.0,0.0,0.0,0.0,0.0,0.0,0.0,0.0,0.0,0.0,0.0,0.0,0.0,0.0,0.0,0.0,0.0,0.0,0.0,0.0,0.0,0.0,0.0,-0.85,-0.9384,-1.0104,-1.0555,-1.0624,-1.0624,-1.0624,-1.0138,-0.9414,-0.8489,0.0,0.0,0.0,0.0,0.0,0.0,0.0,0.0,0.0,0.0,0.0,0.0,0.0,0.0,0.0,0.0,0.0,0.0,0.0,0.0,0.0,0.0,0.0,0.0,0.0,0.0,0.0,0.0,0.0,0.0,0.0,0.0,0.0,0.0,0.0,0.0,0.0,0.0,0.0,0.0,0.0,0.0,0.0,0.0,0.0,0.0,0.0,0.0,0.0,0.0,0.0,0.0,0.0,0.0,0.0,0.0,0.0,0.0,0.0,0.0,0.0,0.0,0.0,0.0,0.0,0.0,0.0,0.0,0.0,0.0,0.0,0.0,0.0,0.0,0.0,0.0,0.0,0.0,0.0,0.0,0.0,0.0,0.0,0.0,0.0,0.0,0.0,0.0,0.0,0.0,0.0,0.0,0.0,0.0,0.0,0.0,0.0,0.0,0.0,0.0,0.0,0.0,-0.914,-1.0047,-1.0624,-1.0624,-1.0624,-1.0548,-1.0521,-1.0451,-0.9944,-0.8985,0.0,0.0,0.0,0.0,0.0,0.0,0.0,0.0,0.0,0.0,0.0,0.0,0.0,0.0,0.0,0.0,0.0,0.0,0.0,0.0,0.0,0.0,0.0,0.0,0.0,0.0,0.0,0.0,0.0,0.0,0.0,0.0,0.0,0.0,0.0,0.0,0.0,0.0,0.0,0.0,0.0,0.0,0.0,0.0,0.0,0.0,0.0,0.0,0.0,0.0,0.0,0.0,0.0,0.0,0.0,0.0,0.0,0.0,0.0,0.0,-0.8195,-0.7931,0.0,0.0,0.0,0.0,0.0,0.0,0.0,0.0,0.0,0.0,0.0,0.0,0.0,0.0,0.0,0.0,0.0,0.0,0.0,0.0,0.0,0.0,0.0,0.0,0.0,0.0,0.0,0.0,0.0,0.0,0.0,0.0,0.0,0.0,0.0,0.0,0.0,0.0,0.0,0.0,-0.9348,-1.0104,-1.0624,-1.0624,-1.0624,-1.0335,-0.9661,-0.9074,-0.8348,-0.7456,-0.6741,0.0,0.0,0.0,0.0,0.0,0.0,0.0,0.0,0.0,0.0,0.0,0.0,0.0,0.0,0.0,0.0,0.0,0.0,0.0,0.0,0.0,0.0,0.0,0.0,0.0,0.0,0.0,0.0,0.0,0.0,0.0,0.0,0.0,0.0,0.0,0.0,0.0,0.0,0.0,0.0,0.0,0.0,0.0,0.0,0.0,0.0,0.0,0.0,0.0,0.0,0.0,0.0,0.0,0.0,0.0,0.0,0.0,0.0,0.0,-0.9064,-0.8865,0.0,0.0,0.0,0.0,0.0,0.0,0.0,0.0,0.0,0.0,0.0,0.0,0.0,0.0,0.0,0.0,0.0,0.0,0.0,0.0,0.0,0.0,0.0,0.0,0.0,0.0,0.0,0.0,0.0,0.0,0.0,0.0,0.0,0.0,0.0,0.0,0.0,0.0,0.0,0.0,-0.9354,-0.9582,-0.9716,-1.004,-0.9779,-0.9542,-0.9322,-0.8731,-0.7949,-0.7115,-0.6739,0.0,0.0,0.0,0.0,0.0,0.0,0.0,0.0,0.0,0.0,0.0,0.0,0.0,0.0,0.0,0.0,0.0,0.0,0.0,0.0,0.0,0.0,0.0,0.0,0.0,0.0,0.0,0.0,0.0,0.0,0.0,0.0,0.0,0.0,0.0,0.0,0.0,0.0,0.0,0.0,0.0,0.0,0.0,0.0,0.0,0.0,0.0,0.0,0.0,0.0,0.0,0.0,0.0,-0.9436,-0.9436,-0.9478,-0.943,-0.9412,-0.9418,-0.9508,-0.9418,-0.922,-0.9326,0.0,0.0,0.0,0.0,0.0,0.0,0.0,0.0,0.0,0.0,0.0,0.0,0.0,0.0,0.0,0.0,0.0,0.0,0.0,0.0,0.0,0.0,-0.5325,-0.5562,-0.5842,-0.5983,-0.5429,0.0,0.0,0.0,0.0,0.0,0.0,0.0,0.0,0.0,0.0,0.0,-0.9169,-0.8812,-0.8683,-0.9262,-0.8812,-0.8631,-0.8888,-0.8518,-0.7925,-0.7035,-0.7028,-0.6818,0.0,0.0,0.0,0.0,0.0,0.0,0.0,0.0,0.0,0.0,0.0,0.0,0.0,0.0,0.0,0.0,0.0,0.0,0.0,0.0,0.0,0.0,0.0,0.0,0.0,0.0,0.0,0.0,0.0,0.0,0.0,0.0,-0.2932,-0.4512,0.0,0.0,0.0,0.0,0.0,0.0,0.0,0.0,0.0,0.0,0.0,0.0,0.0,-0.943,-0.936,-0.9466,-0.9484,-0.9478,-0.9238,-0.925,-0.9472,-0.9232,-0.918,-0.921,-0.9616,0.0,-0.9766,-0.9186,0.0,0.0,0.0,0.0,0.0,0.0,0.0,0.0,0.0,0.0,0.0,0.0,0.0,0.0,0.0,0.0,0.0,0.0,0.0,0.0,0.0,0.0,-0.4927,-0.5603,-0.5909,-0.6115,-0.6054,-0.5971,-0.5848,-0.5733,-0.5698,-0.5672,0.0,0.0,0.0,0.0,0.0,0.0,-0.8613,-0.8554,-0.8554,-0.8619,-0.8554,-0.818,-0.727,-0.7482,-0.7168,-0.6124,-0.6336,-0.6445,-0.6384,-0.6209,0.0,0.0,0.0,0.0,0.0,0.0,0.0,0.0,0.0,0.0,0.0,0.0,0.0,0.0,0.0,0.0,0.0,0.0,0.0,0.0,0.0,0.0,0.0,0.0,0.0,0.0,0.0,0.0,0.0,-0.3788,-0.4773,-0.5998,-0.65,-0.7111,0.0,0.0,0.0,0.0,0.0,0.0,0.0,0.0,0.0,-1.0105,-0.9983,-0.9798,-0.9484,-0.9484,-0.9484,-0.9484,-0.9358,-0.9364,-0.9478,-0.9358,-0.9298,-0.9322,-0.9706,-0.9874,-0.988,-0.9264,-0.9028,-0.8801,0.0,0.0,0.0,0.0,-0.5762,-0.5728,-0.5878,-0.5888,-0.5837,-0.5837,0.0,0.0,0.0,0.0,0.0,0.0,0.0,-0.4703,-0.5118,-0.5238,-0.5402,-0.5616,-0.598,-0.6241,-0.6122,-0.62,-0.6346,-0.6346,-0.6216,-0.6169,-0.6324,-0.6643,0.0,0.0,0.0,-0.7584,-0.7922,-0.7587,-0.7456,-0.7907,-0.7587,-0.7269,-0.7092,-0.6967,-0.6625,-0.6113,-0.6274,-0.642,-0.642,-0.6339,-0.625,0.0,0.0,0.0,0.0,0.0,0.0,0.0,0.0,0.0,0.0,0.0,0.0,0.0,0.0,0.0,0.0,0.0,0.0,0.0,0.0,0.0,0.0,0.0,0.0,0.0,0.0,0.0,0.0,-0.5325,-0.6162,-0.7254,-0.7866,-0.8476,0.0,0.0,0.0,0.0,0.0,0.0,-1.0891,-1.0988,-1.0863,-1.0491,-1.0238,-0.9926,-0.9484,-0.9484,-0.9484,-0.9484,-0.9484,-0.9484,-0.9484,-0.9484,-0.9484,-0.9496,-0.9688,-0.97,-0.9519,-0.9218,-0.897,-0.8754,-0.7385,-0.692,-0.682,-0.6118,-0.5833,-0.5823,-0.5976,-0.603,-0.6037,-0.6074,-0.5983,-0.5857,-0.527,0.0,0.0,0.0,0.0,-0.5275,-0.5718,-0.5894,-0.5908,-0.5828,-0.612,-0.6403,-0.6193,-0.6546,-0.6813,-0.6668,-0.666,-0.663,-0.6724,-0.6859,0.0,-0.7265,-0.7131,-0.7017,-0.7227,-0.6745,-0.6613,-0.7134,-0.6745,-0.6538,-0.6903,-0.663,-0.6339,-0.6219,-0.6319,-0.642,-0.642,-0.642,-0.6355,-0.6281,0.0,0.0,0.0,0.0,0.0,0.0,0.0,0.0,0.0,0.0,0.0,0.0,0.0,0.0,0.0,0.0,0.0,0.0,0.0,0.0,0.0,0.0,0.0,0.0,0.0,0.0,0.0,0.0,0.0,-0.8206,-0.8463,0.0,0.0,0.0,0.0,-1.094,-1.1454,-1.1717,-1.1717,-1.1288,-1.0982,-1.0982,-1.0047,-0.9548,-0.9484,-0.9484,-0.9484,-0.9484,-0.9484,-0.9484,-0.9484,-0.9484,-0.9484,-0.9484,-0.9496,-0.9168,-0.8587,-0.8826,-0.9059,-0.912,-0.7509,-0.6842,-0.6733,-0.6204,-0.5925,-0.5823,-0.5976,-0.603,-0.6054,-0.6203,-0.6294,-0.6233,-0.6233,-0.6204,0.0,0.0,-0.6273,-0.6338,-0.6489,-0.6415,-0.6261,-0.6379,-0.6472,-0.6631,-0.6684,-0.6909,-0.7064,-0.6689,-0.6645,-0.6754,-0.6944,0.0,-0.7654,-0.6846,-0.7227,-0.736,-0.6573,-0.6416,-0.642,-0.642,-0.6416,-0.6343,-0.6287,-0.631,-0.6339,-0.6219,-0.6319,-0.642,-0.642,-0.642,-0.6416,-0.6404,-0.6233,0.0,0.0,0.0,0.0,0.0,0.0,0.0,0.0,0.0,0.0,0.0,0.0,0.0,0.0,0.0,0.0,0.0,0.0,0.0,0.0,0.0,0.0,0.0,0.0,0.0,0.0,0.0,0.0,-0.8977,-0.9151,0.0,-1.0238,-1.0548,-1.0989,-1.149,-1.1996,-1.2313,-1.2313,-1.212,-1.1864,-1.1553,-1.0863,-1.0301,-0.9989,-0.9676,-0.9484,-0.9484,-0.9484,-0.9484,-0.9484,-0.9484,-0.9484,-0.9484,-0.9017,-0.8689,-0.8431,-0.7654,-0.7409,-0.7471,-0.6541,-0.6197,-0.616,-0.5916,-0.5847,-0.5823,-0.5976,-0.603,-0.5979,-0.5745,-0.6063,-0.6398,-0.601,-0.6277,-0.6701,-0.6681,-0.6585,-0.6526,-0.6477,-0.6347,-0.6183,-0.6086,-0.6221,-0.6351,-0.6337,-0.6584,-0.6844,-0.6668,-0.6818,-0.7041,-0.7147,-0.7196,-0.7161,-0.6729,-0.6894,-0.6895,-0.644,-0.642,-0.642,-0.642,-0.642,-0.6392,-0.6327,-0.6379,-0.6392,-0.6327,-0.6384,-0.642,-0.642,-0.6013,-0.5745,-0.5745,-0.4766,-0.4288,0.0,0.0,0.0,0.0,0.0,0.0,0.0,0.0,0.0,0.0,0.0,0.0,0.0,0.0,0.0,0.0,0.0,0.0,0.0,0.0,0.0,0.0,0.0,0.0,0.0,-0.7417,-0.8122,-0.9332,-0.9484,-0.9734,-1.0244,-1.0555,-1.1052,-1.174,-1.212,-1.2436,-1.256,-1.2436,-1.2058,-1.1553,-1.1052,-1.0555,-1.0053,-0.967,-0.9484,-0.9484,-0.9484,-0.9484,-0.9484,-0.9285,-0.9151,-0.9151,-0.8425,-0.8032,-0.7707,-0.6789,-0.634,-0.6196,-0.5881,-0.5698,-0.5657,-0.5711,-0.5732,-0.5752,-0.5606,-0.5433,-0.5226,-0.5011,-0.5339,-0.5717,-0.5339,-0.5868,-0.6547,-0.6471,-0.6511,-0.6584,-0.6541,-0.6387,-0.6161,-0.6113,-0.6152,-0.625,-0.6233,-0.6443,-0.666,-0.6628,-0.6935,-0.7211,-0.717,-0.7072,-0.6968,-0.6814,-0.6729,-0.6631,-0.644,-0.642,-0.642,-0.642,-0.642,-0.642,-0.642,-0.642,-0.6284,-0.6083,-0.6083,-0.5947,-0.5686,-0.5282,-0.5014,-0.5014,-0.3782,-0.334,-0.3722,0.0,0.0,0.0,0.0,0.0,0.0,0.0,0.0,0.0,0.0,0.0,0.0,0.0,0.0,0.0,0.0,0.0,0.0,0.0,0.0,0.0,0.0,0.0,-0.7019,-0.7958,-0.8753,-0.942,-0.9484,-0.9734,-1.0244,-1.0301,-1.0681,-1.1677,-1.174,-1.1988,-1.2498,-1.2058,-1.1553,-1.1045,-1.0555,-1.0053,-0.9548,-0.9484,-0.9484,-0.9484,-0.9484,-0.9484,-0.9484,-0.8818,-0.849,-0.849,-0.7712,-0.699,-0.64,-0.64,-0.6009,-0.5442,-0.5525,-0.5491,-0.5446,-0.5528,-0.5586,-0.5467,-0.4882,-0.428,-0.3781,-0.4068,-0.4138,-0.421,-0.4432,-0.5081,-0.5803,-0.5653,-0.6117,-0.6627,-0.6627,-0.6491,-0.635,-0.635,-0.6416,-0.642,-0.642,-0.6558,-0.6684,-0.6672,-0.696,-0.7212,-0.7216,-0.7212,-0.7147,-0.7044,-0.6798,0.0,-0.644,-0.642,-0.642,-0.642,-0.642,-0.6416,-0.635,-0.635,-0.6083,-0.5411,-0.5345,-0.5014,-0.4353,-0.4287,-0.4287,-0.422,-0.3466,-0.3097,-0.3095,0.0,0.0,0.0,0.0,0.0,0.0,0.0,0.0,0.0,0.0,0.0,0.0,0.0,0.0,0.0,0.0,0.0,0.0,0.0,0.0,0.0,-0.5387,-0.6117,-0.7214,-0.7543,-0.8166,-0.935,-0.9484,-0.9548,-0.9734,-1.0053,-1.0428,-1.0681,-1.1052,-1.1296,-1.1428,-1.1303,-1.117,-1.0982,-1.0555,-1.0244,-1.0053,-0.9676,-0.9484,-0.9484,-0.9484,-0.9484,-0.9484,-0.8818,-0.849,-0.8425,-0.7186,-0.6597,-0.6334,-0.5881,-0.5557,-0.5432,-0.5473,-0.5466,-0.5432,-0.541,-0.5151,-0.4755,-0.4647,-0.4148,-0.3636,-0.3274,-0.3559,-0.3993,-0.3704,-0.4282,-0.5,-0.5,-0.5127,-0.5164,-0.5158,-0.5457,-0.5679,-0.5679,-0.6017,-0.642,-0.642,-0.6461,-0.6493,-0.6489,-0.668,-0.6879,-0.7009,-0.6924,-0.6822,-0.6761,-0.6603,-0.6477,-0.6424,-0.642,-0.642,-0.642,-0.642,-0.6218,-0.5745,-0.5679,-0.5348,-0.4619,-0.4619,-0.4486,-0.4287,-0.3818,-0.3286,-0.2755,-0.2588,-0.2444,0.0,0.0,0.0,0.0,0.0,0.0,0.0,0.0,0.0,0.0,0.0,0.0,0.0,0.0,0.0,0.0,0.0,0.0,0.0,0.0,0.0,0.0,-0.5442,-0.6028,-0.6846,-0.7512,-0.8296,-0.935,-0.9484,-0.9484,-0.9484,-0.9798,-1.0053,-1.0308,-1.0555,-1.08,-1.0982,-1.0982,-1.0926,-1.0737,-1.0428,-1.018,-0.9989,-0.967,-0.9484,-0.9484,-0.9215,-0.9081,-0.9017,-0.8096,-0.7637,-0.7577,-0.6465,-0.6013,-0.5943,-0.5557,-0.5428,-0.5428,0.0,0.0,0.0,0.0,-0.433,-0.3502,-0.3502,-0.3122,-0.2535,-0.2255,-0.2535,-0.2954,-0.2745,-0.3303,-0.4,-0.4139,-0.4306,-0.4461,-0.4455,-0.4739,-0.4948,-0.4948,-0.5216,-0.555,-0.555,-0.555,-0.555,-0.555,-0.5624,0.0,-0.5873,-0.636,-0.6692,-0.6684,-0.6261,-0.6013,-0.6013,-0.5683,-0.555,-0.555,-0.555,-0.5348,-0.4948,-0.4948,0.0,0.0,0.0,-0.3706,-0.3413,-0.3005,0.0,0.0,0.0,0.0,0.0,0.0,0.0,0.0,-0.2568,-0.2633,0.0,0.0,0.0,0.0,0.0,0.0,0.0,0.0,0.0,0.0,0.0,0.0,0.0,0.0,0.0,0.0,-0.5209,-0.562,-0.6334,-0.7507,-0.8554,-0.9285,-0.9484,-0.9484,-0.9484,-0.9484,-0.9676,-1.018,-1.0238,-1.0364,-1.08,-1.0863,0.0,0.0,0.0,-0.9989,-0.9484,-0.9414,-0.9414,-0.935,-0.8689,-0.8361,-0.8355,-0.6985,-0.64,-0.6334,-0.5686,-0.5428,-0.5428,-0.5428,-0.5359,-0.5292,-0.5292,-0.5292,-0.516,-0.4422,-0.3282,-0.208,-0.208,0.0,0.0,-0.121,-0.1412,-0.1614,-0.1817,-0.2418,-0.3015,-0.3084,-0.3551,-0.4087,-0.4087,-0.4087,-0.4154,-0.4154,-0.422,-0.4287,-0.4287,-0.4287,-0.4287,-0.4287,-0.4287,-0.4287,-0.4287,-0.5464,-0.6458,-0.6458,-0.5773,-0.5279,-0.5279,-0.4686,-0.4287,-0.4287,-0.4287,0.0,-0.4154,-0.4154,-0.3885,-0.3151,-0.3084,-0.2786,-0.2241,-0.2181,-0.221,-0.2334,-0.2342,-0.2345,-0.2345,-0.2395,-0.2397,-0.2356,-0.3001,-0.2994,0.0,0.0,0.0,0.0,0.0,0.0,0.0,0.0,0.0,0.0,0.0,0.0,0.0,0.0,0.0,-0.5166,-0.5342,-0.562,-0.6334,-0.6658,-0.7246,-0.8554,-0.9151,-0.9484,-0.9484,-0.9484,-0.9548,-0.967,-0.967,-0.967,-0.9798,-0.9798,-0.9734,-0.9676,-0.967,-0.9612,-0.9484,-0.8952,-0.8689,-0.8683,-0.7972,0.0,-0.7582,-0.6793,-0.64,-0.6334,-0.5686,-0.5428,-0.5428,-0.5428,-0.5024,-0.4489,-0.4489,-0.4489,-0.442,-0.3685,-0.2882,-0.208,-0.208,-0.1678,-0.1076,-0.1143,-0.1143,-0.1277,-0.1547,-0.1748,0.0,-0.2285,-0.2488,-0.2622,-0.2622,-0.3019,-0.3416,-0.3416,-0.3885,-0.4287,-0.4287,-0.4287,-0.4287,-0.4287,-0.4287,-0.4287,-0.4287,-0.4576,-0.4791,-0.4791,-0.4634,-0.4486,-0.4486,-0.442,-0.4287,-0.4287,-0.4287,-0.4084,-0.3485,-0.3416,-0.3151,-0.242,-0.2421,-0.2316,-0.2171,-0.222,-0.225,-0.2335,-0.238,-0.2403,-0.2403,-0.2414,-0.2439,-0.2476,-0.2576,-0.2565,0.0,0.0,0.0,0.0,0.0,0.0,0.0,0.0,0.0,0.0,0.0,-0.1308,-0.2303,0.0,-0.3825,-0.468,-0.516,-0.5491,-0.5881,-0.6136,-0.669,-0.7827,-0.8236,-0.8436,-0.8436,-0.8759,-0.9017,-0.9017,-0.9285,-0.9484,-0.9484,-0.9151,-0.9017,-0.9017,-0.863,-0.8436,-0.8436,-0.8102,-0.7972,-0.7972,-0.7251,-0.6924,-0.6859,-0.6207,-0.5881,-0.5881,-0.5557,-0.516,-0.4821,-0.4422,-0.4087,-0.3685,-0.3351,-0.3215,-0.3149,-0.2815,-0.2213,-0.1612,-0.1612,-0.1411,-0.1076,-0.1076,-0.1143,-0.121,-0.1412,-0.1547,-0.1681,-0.1951,-0.2018,-0.2087,-0.2154,-0.242,-0.2686,-0.2686,-0.2954,-0.3222,-0.3222,-0.3222,-0.3222,-0.3222,-0.3222,-0.3222,-0.3222,-0.3222,-0.3489,-0.422,-0.4018,-0.3751,-0.3751,-0.3487,-0.3222,-0.3222,-0.3222,-0.3088,-0.2753,-0.2686,-0.2554,-0.2221,-0.2221,-0.2181,-0.2171,-0.2203,-0.2232,-0.2335,-0.2391,-0.242,-0.242,-0.245,-0.248,-0.251,-0.2448,-0.2452,0.0,0.0,0.0,0.0,0.0,0.0,0.0,0.1443,-0.0483,-0.0686,-0.0896,-0.1042,-0.1039,-0.2113,-0.3215,-0.3951,-0.4688,-0.515,-0.512,-0.566,-0.6248,-0.687,-0.7136,-0.7343,-0.7385,-0.7906,-0.8243,-0.8291,-0.8759,-0.9092,-0.9092,-0.856,-0.8296,-0.8296,-0.7712,-0.7386,-0.7386,-0.7256,-0.719,-0.719,-0.6531,-0.6207,-0.6203,-0.5624,-0.5296,-0.516,-0.5024,-0.4622,-0.4018,-0.3282,-0.3015,-0.2882,-0.2213,-0.1879,-0.1879,-0.1879,-0.1544,-0.1076,-0.1076,-0.1076,-0.1076,-0.1076,-0.1143,-0.1277,-0.1277,-0.1412,-0.1614,-0.1817,-0.1817,-0.1884,-0.2087,-0.2087,-0.2087,-0.2154,-0.2154,-0.2154,-0.2221,-0.2221,-0.2221,-0.2221,-0.2154,-0.2154,-0.2221,-0.2154,-0.2554,-0.3687,-0.3418,-0.3017,-0.3017,-0.2554,-0.2221,-0.2221,-0.2221,-0.2221,-0.2221,-0.2221,-0.2221,-0.2221,-0.2221,-0.2181,-0.2171,-0.2174,-0.2202,-0.2334,-0.2391,-0.242,-0.242,-0.2402,-0.2431,-0.251,-0.2382,-0.2413,0.7007,0.6181,0.549,0.4862,0.4566,0.4195,0.0,0.2335,0.1669,0.0728,-0.0134,-0.0804,-0.1068,-0.174,-0.248,-0.3215,-0.3951,-0.438,-0.4268,-0.482,-0.5217,-0.5164,-0.6293,-0.7082,-0.7216,-0.7298,-0.7375,-0.7502,-0.7582,-0.7647,-0.7647,-0.7582,-0.7517,-0.7517,-0.7451,-0.7386,-0.7386,-0.6793,-0.6531,-0.6531,-0.5815,-0.5491,-0.5491,-0.5428,-0.5024,-0.442,-0.3751,-0.3416,-0.3282,-0.2547,-0.2213,-0.2147,-0.1478,-0.121,-0.121,-0.121,-0.1143,-0.1076,-0.1076,-0.1076,-0.1076,-0.1076,-0.1143,-0.1143,-0.1277,-0.1344,-0.1345,-0.1547,-0.1614,-0.1681,-0.1884,-0.1817,-0.1749,-0.2087,-0.2085,-0.1951,-0.2154,-0.2221,-0.2221,-0.2221,-0.2085,-0.2018,-0.2154,-0.2018,-0.2018,-0.2354,-0.2354,-0.2287,-0.2287,-0.2221,-0.2221,-0.2221,-0.2221,-0.2221,-0.2221,-0.2221,-0.2221,-0.2221,-0.2221,-0.2181,-0.2171,-0.2174,-0.2202,-0.2334,-0.2391,-0.242,-0.242,-0.2325,-0.2353,-0.2511,-0.2347,-0.235,0.787,0.728,0.6667,0.5895,0.557,0.5003,0.3539,0.3241,0.2951,0.1593,0.0895,0.045,0.0326,-0.071,-0.1606,-0.1958,-0.2904,-0.3943,-0.4725,-0.4513,-0.4375,-0.4806,-0.5015,-0.5303,-0.5785,-0.6227,-0.6551,-0.6685,-0.7081,-0.7319,-0.7381,-0.7055,-0.6793,-0.6793,-0.6474,-0.621,-0.621,-0.5951,-0.5815,-0.5818,-0.5557,-0.516,-0.4755,-0.4755,-0.4353,-0.3618,-0.2882,-0.2547,-0.248,-0.1812,-0.1545,-0.1478,-0.121,-0.1076,-0.1076,-0.1076,-0.1076,-0.1076,-0.1076,-0.1076,-0.1076,-0.1076,-0.1076,-0.1143,-0.1143,-0.121,-0.121,-0.1412,-0.1412,-0.148,-0.1681,-0.1681,-0.1614,-0.1817,-0.1817,-0.1748,-0.1817,-0.1884,-0.1884,-0.1884,-0.1817,-0.1749,-0.1817,-0.1749,-0.1749,-0.1817,-0.2018,-0.2221,-0.2221,-0.2221,-0.2221,-0.2221,-0.2221,-0.2221,-0.2221,-0.2221,-0.2221,-0.2221,-0.2221,-0.2232,-0.2191,-0.2226,-0.2186,-0.2211,-0.2372,-0.2345,-0.2196,-0.2326,-0.2276,-0.212,-0.2276,-0.2353,0.8627,0.8212,0.762,0.6832,0.6369,0.575,0.4417,0.404,0.3679,0.2581,0.1907,0.1488,0.1521,0.0312,-0.0682,-0.0634,-0.1684,-0.2824,-0.3906,-0.3522,-0.3406,-0.3995,-0.3698,-0.3741,-0.429,-0.515,-0.5789,-0.5946,-0.6354,-0.6659,-0.6854,-0.6404,-0.6141,-0.6141,-0.5484,-0.5093,-0.5093,-0.4891,-0.4824,-0.4824,-0.4824,-0.4489,-0.4018,-0.3818,-0.3416,-0.2882,-0.2147,-0.1812,-0.1812,-0.1276,-0.1076,-0.1076,-0.1076,-0.1076,-0.1076,-0.1076,-0.1076,-0.1076,-0.1076,-0.1076,-0.1076,-0.1076,-0.1076,-0.1076,-0.1076,-0.1076,-0.1143,-0.121,-0.1277,-0.1277,-0.148,-0.148,-0.148,-0.1547,-0.1547,-0.1547,-0.1614,-0.1614,-0.1614,-0.1614,-0.1547,-0.1547,-0.1614,-0.1547,-0.1547,-0.1614,-0.1817,-0.2085,-0.2087,-0.2087,-0.2154,-0.2221,-0.2154,-0.2154,-0.2221,-0.2221,-0.2221,-0.2221,-0.2018,-0.2018,-0.2221,-0.2073,-0.2034,-0.2174,-0.2286,-0.2271,-0.2122,-0.2174,-0.212,-0.1887,-0.212,-0.2198,0.9097,0.861,0.7955,0.7474,0.6852,0.6245,0.5755,0.4702,0.3798,0.3737,0.2826,0.1973,0.1974,0.117,0.0431,0.0431,-0.0123,-0.0609,-0.065,-0.1525,-0.2169,-0.2169,-0.2521,-0.2793,-0.2883,-0.4119,-0.504,-0.5397,-0.5281,-0.5264,-0.5418,-0.5428,-0.5428,-0.5428,-0.4688,-0.4353,-0.4353,-0.3618,-0.3282,-0.3282,-0.3282,-0.3282,-0.3215,-0.248,-0.2147,-0.2079,-0.1411,-0.1143,-0.1143,-0.1076,-0.1076,-0.1076,-0.1076,-0.1076,-0.1076,-0.1076,-0.1076,-0.1076,-0.1076,-0.1076,-0.1076,-0.1076,-0.1076,-0.1076,-0.1076,-0.1076,-0.1076,-0.1076,-0.1076,-0.1143,-0.1277,-0.121,-0.121,-0.1547,-0.148,-0.1345,-0.1547,-0.1614,-0.1614,-0.1614,-0.1412,-0.1345,-0.1547,-0.1412,-0.1345,-0.1547,-0.1614,-0.1681,-0.1884,-0.1884,-0.1951,-0.2154,-0.2018,-0.2018,-0.2154,-0.2221,-0.2221,-0.2221,-0.1681,-0.1614,-0.2154,-0.1727,-0.1683,-0.2174,-0.2143,-0.2122,-0.2122,-0.1786,-0.1729,-0.1887,-0.1729,-0.1729,0.9496,0.9412,0.9274,0.8482,0.7756,0.7104,0.6556,0.5801,0.5144,0.4862,0.4257,0.365,0.3139,0.2805,0.2324,0.1486,0.1172,0.0749,-0.0057,-0.0,-0.0229,-0.1229,-0.1495,-0.1901,-0.2845,-0.3299,-0.3564,-0.3771,-0.3747,-0.3774,-0.3946,-0.3951,-0.3951,-0.3951,-0.3685,-0.3551,-0.3551,-0.3349,-0.3215,-0.3215,-0.2681,-0.248,-0.2414,-0.1745,-0.1411,-0.1411,-0.121,-0.1076,-0.1076,-0.1076,-0.1076,-0.1076,-0.1076,-0.0806,-0.0403,-0.0403,-0.0067,0.0202,-0.0739,-0.1076,-0.1076,-0.1076,-0.1076,-0.1076,-0.1076,-0.1076,-0.1076,-0.1076,-0.0739,-0.047,-0.1008,-0.0403,0.0202,-0.0403,-0.0134,0.0269,0.0202,-0.0202,-0.0403,0.0067,-0.0134,-0.0336,0.0134,0.0269,0.0202,-0.0,-0.0941,-0.1614,-0.1681,-0.1681,-0.1748,-0.1817,-0.1277,-0.121,-0.1749,-0.1344,-0.1277,-0.1749,-0.1643,-0.1659,-0.1867,-0.1277,-0.1233,-0.192,-0.15,-0.1449,-0.1786,-0.1173,-0.1099,-0.1493,-0.1099,-0.1177,1.0019,0.999,0.9918,0.8922,0.8236,0.7717,0.7291,0.6722,0.6214,0.5887,0.5492,0.4974,0.4339,0.3934,0.3416,0.2586,0.2463,0.2158,0.1403,0.1529,0.127,0.0297,-0.0,-0.0569,-0.1693,-0.1798,-0.2175,-0.3,-0.3041,-0.3061,-0.3211,-0.3215,-0.3215,-0.3215,-0.2948,-0.2815,-0.2815,-0.2547,-0.248,-0.2414,-0.1946,-0.1745,-0.1745,-0.1008,-0.0739,-0.0672,-0.0403,-0.0336,-0.0336,-0.0336,-0.0336,-0.0336,-0.0336,-0.0,0.0403,0.0403,0.0672,0.0941,-0.0,-0.0336,-0.0336,-0.0336,-0.0336,-0.0336,-0.0336,-0.0336,-0.0336,-0.0336,-0.0,0.0269,-0.0202,0.0403,0.1008,0.0538,0.0739,0.1076,0.1076,0.0739,0.0538,0.1008,0.0739,0.0538,0.1008,0.1076,0.1076,0.0941,-0.0,-0.0672,-0.0806,-0.0806,-0.0739,-0.0873,-0.0336,-0.0269,-0.0806,-0.0403,-0.0337,-0.0749,-0.0624,-0.0632,-0.0781,-0.0218,-0.0223,-0.0907,-0.0457,-0.0386,-0.0706,-0.047,-0.0549,-0.0863,-0.0863,-0.1099,1.0673,1.0395,0.9843,0.9003,0.844,0.8038,0.7972,0.7514,0.7013,0.6903,0.647,0.5928,0.5441,0.4568,0.3875,0.3752,0.3689,0.3629,0.3629,0.2896,0.2387,0.234,0.1836,0.1172,0.0402,0.0201,-0.0805,-0.2813,-0.2944,-0.2935,-0.3078,-0.3082,-0.3082,-0.3082,-0.2414,-0.208,-0.208,-0.1411,-0.1076,-0.1076,-0.1008,-0.1008,-0.0941,-0.0269,0.0067,0.0067,0.0806,0.1076,0.1076,0.1076,0.1076,0.1076,0.1076,0.1143,0.1143,0.1143,0.1143,0.121,0.121,0.1143,0.1076,0.1076,0.1076,0.1076,0.1076,0.1076,0.1076,0.1076,0.1143,0.1143,0.1143,0.1143,0.121,0.1143,0.121,0.121,0.121,0.121,0.1143,0.121,0.121,0.121,0.121,0.121,0.121,0.121,0.1212,0.1076,0.0603,0.0671,0.0739,0.0536,0.0738,0.0806,0.0536,0.0537,0.0611,0.0697,0.1191,0.1277,0.0873,0.1267,0.1285,0.0757,0.0928,0.0939,0.094,0.0392,0.0078,0.0078,-0.0785,-0.1178,1.1727,1.1385,1.0885,1.0283,0.9428,0.8784,0.8861,0.8352,0.7934,0.7992,0.761,0.7069,0.6524,0.6142,0.5747,0.5243,0.4866,0.442,0.3841,0.357,0.3204,0.2536,0.2305,0.1886,0.1137,0.1006,0.0671,0.0067,-0.1,-0.16,-0.1611,-0.1612,-0.1612,-0.1612,-0.1478,-0.1344,-0.1344,-0.0672,-0.0269,-0.0269,0.0269,0.0538,0.0538,0.0739,0.0807,0.0807,0.1008,0.1076,0.1076,0.1076,0.1076,0.1076,0.1076,0.1411,0.1879,0.1879,0.2216,0.2688,0.2688,0.1949,0.1076,0.1076,0.1076,0.1076,0.1076,0.1076,0.1076,0.1076,0.1478,0.1813,0.121,0.1882,0.2554,0.2014,0.2284,0.2688,0.2688,0.2284,0.2082,0.2554,0.2688,0.2688,0.2688,0.2688,0.2688,0.2688,0.2737,0.2339,0.1078,0.1008,0.1008,0.0941,0.1477,0.1611,0.1007,0.1504,0.1596,0.1119,0.1234,0.1263,0.1196,0.1807,0.183,0.1164,0.1689,0.177,0.1175,0.1646,0.1568,0.094,0.0705,0.0314,1.252,1.2434,1.2149,1.1051,1.0499,1.0066,0.969,0.9379,0.9111,0.9023,0.8725,0.8292,0.7628,0.7175,0.6846,0.6406,0.5866,0.5341,0.484,0.4836,0.4534,0.3781,0.3637,0.3224,0.214,0.1944,0.1744,0.1343,0.0403,-0.0134,-0.0134,-0.0134,-0.0134,-0.0134,-0.0134,-0.0134,-0.0134,0.0269,0.047,0.047,0.0874,0.1076,0.1143,0.1411,0.1612,0.1612,0.1882,0.2016,0.2016,0.2016,0.2016,0.2016,0.2016,0.2284,0.2619,0.2618,0.2822,0.3226,0.3226,0.2688,0.2016,0.2016,0.2016,0.2016,0.2016,0.2016,0.2016,0.2016,0.2351,0.2552,0.215,0.2621,0.3092,0.2753,0.2956,0.3226,0.3226,0.2889,0.2753,0.3159,0.3226,0.3226,0.3226,0.3226,0.3226,0.3226,0.3271,0.3023,0.2192,0.2145,0.2161,0.2161,0.2507,0.2578,0.2161,0.2542,0.2649,0.2244,0.2306,0.2352,0.2378,0.2764,0.2783,0.2429,0.2784,0.2784,0.2429,0.2431,0.2275,0.1803,0.1489,0.1019,1.3284,1.343,1.3324,1.1675,1.1538,1.149,1.0481,1.0389,1.0442,1.0064,0.9734,0.9316,0.8679,0.8078,0.7581,0.738,0.6833,0.642,0.621,0.6191,0.6038,0.5414,0.5356,0.4776,0.3433,0.3179,0.2779,0.1966,0.1629,0.1422,0.1143,0.1143,0.1076,0.1076,0.1076,0.1076,0.1076,0.121,0.1277,0.1277,0.1344,0.1412,0.1412,0.2014,0.2348,0.2348,0.2956,0.3226,0.3226,0.3226,0.3226,0.3226,0.3226,0.3226,0.3226,0.3226,0.3226,0.3226,0.3226,0.3226,0.3226,0.3226,0.3226,0.3226,0.3226,0.3226,0.3226,0.3226,0.3226,0.3226,0.3226,0.3226,0.3226,0.3226,0.3226,0.3226,0.3226,0.3226,0.3226,0.3226,0.3226,0.3226,0.3226,0.3226,0.3226,0.3226,0.3238,0.3275,0.3352,0.3434,0.3487,0.3499,0.3499,0.3499,0.3499,0.3509,0.3548,0.3622,0.3638,0.3679,0.3761,0.3763,0.3763,0.3763,0.3763,0.3763,0.3763,0.3059,0.2663,0.2655,0.18,0.1487,1.4588,1.4252,1.3517,1.2754,1.2375,1.1999,1.1339,1.1205,1.1173,1.099,1.0332,0.9732,0.9569,0.9196,0.8709,0.8259,0.7984,0.7693,0.7288,0.6724,0.6351,0.6225,0.6384,0.6082,0.4974,0.5011,0.4725,0.3732,0.3589,0.2886,0.1344,0.1142,0.1076,0.1076,0.1076,0.1076,0.1076,0.1679,0.2013,0.2013,0.2552,0.2824,0.2824,0.2958,0.3023,0.3023,0.3159,0.3226,0.3226,0.3226,0.3226,0.3226,0.3226,0.3226,0.3226,0.3226,0.3226,0.3226,0.3226,0.3226,0.3226,0.3226,0.3226,0.3226,0.3226,0.3226,0.3226,0.3226,0.3226,0.3226,0.3226,0.3226,0.3226,0.3226,0.3226,0.3226,0.3226,0.3226,0.3226,0.3226,0.3226,0.3226,0.3226,0.3226,0.3226,0.3226,0.3291,0.3346,0.3432,0.3377,0.3416,0.3491,0.3499,0.3499,0.3499,0.3565,0.3609,0.3624,0.3697,0.3746,0.3763,0.3763,0.3763,0.3763,0.3763,0.3763,0.3763,0.3684,0.3492,0.3423,0.2642,0.225,1.4985,1.4825,1.4381,1.3999,1.3887,1.3663,1.2869,1.2586,1.2393,1.2089,1.1396,1.0653,1.0221,0.9886,0.9586,0.9169,0.881,0.8471,0.8415,0.7912,0.7428,0.7127,0.7225,0.7014,0.6188,0.6268,0.6118,0.5547,0.5535,0.4731,0.2872,0.2556,0.2402,0.2266,0.2234,0.2217,0.2217,0.2552,0.2753,0.2753,0.3025,0.3226,0.3226,0.3226,0.3226,0.3226,0.3226,0.3226,0.3226,0.3226,0.3226,0.3226,0.3226,0.3226,0.3226,0.3226,0.3226,0.3226,0.3226,0.3226,0.3226,0.3226,0.3226,0.3226,0.3226,0.3226,0.3226,0.3226,0.3226,0.3226,0.3226,0.3226,0.3226,0.3226,0.3226,0.3226,0.3226,0.3226,0.3226,0.3226,0.3226,0.3226,0.3226,0.3226,0.3226,0.3226,0.3264,0.3309,0.3358,0.3434,0.3416,0.3552,0.3607,0.3636,0.3636,0.3673,0.3697,0.3697,0.3738,0.3763,0.3763,0.3716,0.3691,0.3691,0.3648,0.3626,0.3626,0.3626,0.3626,0.3626,0.3213,0.3079,1.5569,1.5549,1.5422,1.5245,1.5348,1.5248,1.4376,1.3871,1.3452,1.3075,1.2337,1.1567,1.0912,1.0559,1.0294,1.0008,0.949,0.9216,0.9424,0.9022,0.8527,0.8203,0.8137,0.7844,0.7203,0.7304,0.7267,0.6872,0.6804,0.6076,0.4434,0.4133,0.3799,0.3502,0.3293,0.3256,0.3256,0.3256,0.3264,0.3285,0.3285,0.3285,0.3285,0.3285,0.3285,0.3285,0.3264,0.3256,0.3254,0.3234,0.3226,0.3226,0.3226,0.3226,0.3226,0.3226,0.3226,0.3226,0.3226,0.3293,0.336,0.336,0.3293,0.3226,0.3226,0.3226,0.3226,0.3226,0.3226,0.3226,0.3226,0.3226,0.3226,0.3226,0.3226,0.3226,0.3226,0.3226,0.3226,0.3226,0.3226,0.3226,0.3226,0.3226,0.3226,0.3226,0.3226,0.3252,0.3324,0.335,0.3416,0.3554,0.3652,0.3705,0.3705,0.3705,0.3705,0.3705,0.3705,0.3705,0.3705,0.3638,0.3599,0.3599,0.3534,0.3499,0.3499,0.3499,0.3524,0.3571,0.3591,0.3638,1.7183,1.6944,1.6402,1.6519,1.6293,1.5893,1.5301,1.444,1.3773,1.3732,1.2813,1.2013,1.1977,1.1343,1.0787,1.0556,1.0314,1.0085,0.9983,0.9518,0.9303,0.9415,0.924,0.8826,0.8229,0.8365,0.8103,0.7167,0.6877,0.6294,0.5215,0.4991,0.4509,0.3709,0.3491,0.335,0.335,0.335,0.3393,0.3475,0.3475,0.3475,0.3475,0.3475,0.3475,0.3471,0.3387,0.335,0.3344,0.326,0.3226,0.3226,0.3226,0.3226,0.3226,0.3226,0.3226,0.3226,0.3226,0.3493,0.3894,0.3894,0.3627,0.3226,0.3226,0.3226,0.3226,0.3226,0.3226,0.3226,0.3226,0.3226,0.3226,0.3226,0.3226,0.3226,0.3226,0.3226,0.3226,0.3226,0.3226,0.3226,0.3226,0.3226,0.3226,0.3226,0.3226,0.323,0.3238,0.3311,0.3441,0.3385,0.3469,0.3524,0.3524,0.3524,0.3524,0.3524,0.3524,0.3524,0.3524,0.3516,0.3511,0.3511,0.3503,0.3499,0.3499,0.3499,0.346,0.3389,0.3473,0.3516,1.7336,1.7147,1.6794,1.7248,1.7168,1.6889,1.6446,1.5813,1.5207,1.4824,1.3956,1.317,1.2812,1.2159,1.1713,1.1773,1.1069,1.0642,1.1016,1.0268,0.974,0.9838,0.9777,0.9515,0.9103,0.9255,0.922,0.8626,0.8408,0.7854,0.6999,0.6194,0.5557,0.5086,0.4941,0.4763,0.456,0.4489,0.4381,0.4293,0.4227,0.4267,0.4469,0.4327,0.4333,0.4466,0.3939,0.3757,0.3752,0.371,0.3694,0.3694,0.4023,0.4154,0.4154,0.4154,0.4154,0.4154,0.4154,0.4287,0.4486,0.4486,0.4353,0.4154,0.4154,0.4154,0.4154,0.4154,0.4154,0.4154,0.4154,0.4154,0.4154,0.4154,0.4154,0.4154,0.4154,0.4154,0.4154,0.4154,0.4154,0.4154,0.4154,0.4154,0.4154,0.4154,0.4154,0.4154,0.4154,0.4196,0.4225,0.4225,0.3763,0.3499,0.3499,0.3499,0.3499,0.3499,0.3499,0.3499,0.3499,0.3448,0.3418,0.3418,0.3362,0.3336,0.3336,0.3336,0.3346,0.3434,0.3401,0.3448,1.7808,1.76,1.7374,1.8034,1.8014,1.776,1.7325,1.6756,1.6133,1.5599,1.4789,1.4097,1.37,1.2996,1.256,1.285,1.1837,1.1211,1.173,1.103,1.04,1.0356,1.0212,1.0037,0.9735,0.9628,0.9513,0.9281,0.9034,0.8685,0.8074,0.7315,0.6621,0.6112,0.6004,0.5811,0.554,0.5329,0.5199,0.5071,0.4913,0.4903,0.5155,0.4962,0.4989,0.5075,0.4532,0.4279,0.4276,0.4239,0.4225,0.4289,0.4686,0.4815,0.4815,0.4815,0.4815,0.4815,0.4815,0.4882,0.5014,0.5014,0.515,0.5282,0.5282,0.508,0.4815,0.4815,0.4815,0.4815,0.4815,0.4815,0.4815,0.4815,0.4815,0.4815,0.4815,0.4815,0.4815,0.4815,0.4815,0.4815,0.4815,0.4815,0.4815,0.4815,0.4815,0.4815,0.4815,0.4815,0.4815,0.4815,0.4235,0.3841,0.3632,0.363,0.3562,0.342,0.342,0.342,0.342,0.3356,0.3324,0.3324,0.3258,0.3226,0.3226,0.3226,0.326,0.3324,0.3324,0.3373,1.8927,1.8651,1.8346,1.8956,1.8784,1.8383,1.7908,1.7008,1.6176,1.5664,1.5107,1.4709,1.4709,1.3888,1.327,1.346,1.269,1.2059,1.1897,1.1524,1.1234,1.1218,1.0725,1.0306,1.0031,0.9349,0.8775,0.8544,0.8296,0.8224,0.8218,0.8218,0.759,0.6306,0.6116,0.5978,0.5978,0.5744,0.5677,0.5765,0.5421,0.5283,0.5293,0.5154,0.5078,0.5072,0.5008,0.502,0.5008,0.487,0.4815,0.4815,0.4815,0.4815,0.4815,0.4815,0.4815,0.4815,0.4815,0.515,0.5617,0.5617,0.5951,0.635,0.635,0.5617,0.4815,0.4815,0.4815,0.4815,0.4815,0.4815,0.4815,0.4815,0.4815,0.4815,0.4815,0.4815,0.4815,0.4815,0.4815,0.4815,0.4815,0.4815,0.4815,0.4815,0.4815,0.4815,0.4815,0.4815,0.4815,0.4815,0.4818,0.4556,0.403,0.3966,0.3766,0.323,0.323,0.323,0.323,0.3228,0.3228,0.3228,0.3226,0.3226,0.3226,0.3226,0.3226,0.3228,0.3228,0.3277,1.9814,1.9561,1.9256,1.9449,1.9199,1.8784,1.8383,1.7774,1.7188,1.6782,1.6039,1.5344,1.504,1.4387,1.3983,1.4307,1.3597,1.3164,1.3767,1.2866,1.2024,1.1826,1.1076,1.0492,1.0264,0.955,0.9157,0.9089,0.8647,0.8323,0.8323,0.8323,0.8104,0.758,0.7526,0.7331,0.6876,0.6675,0.6558,0.6509,0.6371,0.6442,0.6764,0.6752,0.6639,0.6537,0.5958,0.5621,0.5416,0.5369,0.5348,0.5415,0.5749,0.5881,0.5881,0.5881,0.5881,0.5881,0.5881,0.6017,0.6148,0.6148,0.6284,0.642,0.642,0.6152,0.5881,0.5881,0.5881,0.5881,0.5881,0.5881,0.5881,0.5881,0.5881,0.5881,0.5881,0.5881,0.5881,0.5881,0.5881,0.5881,0.5881,0.5881,0.5881,0.5881,0.5881,0.5881,0.5881,0.5881,0.5881,0.5881,0.5881,0.555,0.4619,0.4553,0.4486,0.4287,0.4284,0.4284,0.4284,0.4284,0.4284,0.4284,0.3959,0.3761,0.3761,0.336,0.3226,0.3226,0.3226,0.3242,2.005,1.9747,1.9508,1.9639,1.9398,1.8988,1.8592,1.8266,1.7948,1.7516,1.6837,1.6238,1.5932,1.513,1.466,1.5049,1.434,1.3828,1.4081,1.3339,1.2591,1.1985,1.1224,1.0639,1.0354,0.9793,0.9352,0.9151,0.8731,0.8525,0.8525,0.8525,0.848,0.8408,0.8149,0.7886,0.7498,0.7276,0.7124,0.7027,0.6983,0.7096,0.7365,0.7455,0.7461,0.731,0.6854,0.6535,0.0,0.6145,0.6079,0.6083,0.635,0.642,0.642,0.642,0.642,0.642,0.642,0.6482,0.6618,0.6618,0.6679,0.6811,0.6811,0.6613,0.642,0.642,0.642,0.642,0.642,0.642,0.642,0.642,0.642,0.642,0.642,0.642,0.642,0.642,0.642,0.642,0.642,0.642,0.642,0.642,0.642,0.642,0.642,0.642,0.642,0.642,0.642,0.6148,0.5481,0.5216,0.5014,0.4815,0.4815,0.4815,0.4815,0.4815,0.4815,0.4815,0.4486,0.4289,0.4289,0.3761,0.3493,0.3493,0.3293,0.3226,0.0,1.9457,1.925,1.9617,1.9398,1.8988,1.863,1.85,0.0,1.7948,1.7516,1.7253,1.7209,1.6125,1.5372,1.5674,1.5046,1.4262,1.3477,1.333,1.2903,1.1872,1.1163,1.0712,1.0402,0.9886,0.9341,0.8781,0.8743,0.8743,0.8743,0.8743,0.8688,0.8688,0.8144,0.7806,0.7806,0.7532,0.7367,0.7373,0.7321,0.7374,0.7389,0.7521,0.7587,0.7587,0.7521,0.7526,0.7456,0.7073,0.6946,0.6881,0.6613,0.6482,0.6482,0.6482,0.6482,0.6482,0.6482,0.6683,0.6946,0.6946,0.7204,0.7521,0.7521,0.7003,0.6416,0.6416,0.642,0.642,0.642,0.642,0.642,0.642,0.642,0.642,0.642,0.642,0.642,0.642,0.642,0.642,0.642,0.642,0.642,0.642,0.642,0.642,0.642,0.642,0.642,0.642,0.642,0.642,0.642,0.5951,0.5415,0.4948,0.4882,0.4882,0.4882,0.4882,0.4882,0.4882,0.4882,0.4815,0.4815,0.4292,0.4028,0.4028,0.3493,0.3226,2.0423,0.0,1.9581,1.969,1.9398,1.9064,0.0,1.8707,1.8461,1.8344,1.7948,1.7595,1.7344,1.7023,1.683,1.6931,1.6721,1.6385,1.6017,1.4495,1.3329,1.3086,1.1874,1.1122,1.1253,1.0201,0.9514,0.9383,0.9104,0.8951,0.8951,0.8951,0.8791,0.8463,0.8311,0.8075,0.7741,0.7362,0.7171,0.7176,0.7538,0.7908,0.8274,0.8291,0.8306,0.8415,0.8042,0.7722,0.7521,0.7396,0.733,0.733,0.726,0.7265,0.7265,0.7265,0.7265,0.7265,0.7265,0.7265,0.733,0.733,0.7396,0.7521,0.7521,0.7134,0.6815,0.6815,0.6618,0.642,0.642,0.642,0.642,0.642,0.642,0.642,0.642,0.642,0.642,0.642,0.642,0.642,0.642,0.642,0.642,0.642,0.642,0.642,0.642,0.642,0.642,0.642,0.642,0.642,0.642,0.6284,0.6152,0.6017,0.6017,0.6017,0.6017,0.6017,0.6017,0.6017,0.5617,0.5216,0.4815,0.4683,0.4619,0.4619,0.4092,0.3828,2.0066,2.033,2.0508,2.065,2.04,2.0072,1.9886,1.9441,1.8997,1.8822,1.8422,1.8166,1.8235,1.7939,1.7842,1.8376,1.802,1.7379,1.6567,1.5061,1.3945,1.3431,1.2588,1.1912,1.1784,1.0747,1.018,1.03,0.9666,0.9425,0.9826,0.9492,0.9267,0.92,0.8864,0.8474,0.8049,0.7783,0.7676,0.7676,0.8072,0.8439,0.8857,0.8977,0.8972,0.9005,0.8941,0.8683,0.8301,0.8361,0.8425,0.8425,0.8226,0.8161,0.8161,0.8161,0.8161,0.8161,0.8161,0.8291,0.8425,0.8366,0.849,0.8672,0.8672,0.8361,0.7912,0.7138,0.6683,0.642,0.642,0.642,0.642,0.642,0.642,0.642,0.642,0.642,0.642,0.642,0.642,0.642,0.642,0.642,0.642,0.642,0.642,0.642,0.642,0.642,0.642,0.642,0.642,0.642,0.642,0.642,0.642,0.642,0.642,0.642,0.642,0.642,0.642,0.642,0.6086,0.5815,0.555,0.5282,0.5147,0.515,0.4619,0.4356,1.9673,2.0662,2.1569,2.1579,2.1432,2.1157,2.0721,2.0137,1.9647,1.9367,1.9003,1.8945,1.957,1.9068,1.8884,1.9819,1.9057,1.7897,1.649,1.5496,1.4589,1.3654,1.3213,1.2785,1.2211,1.1414,1.1132,1.1446,1.0454,1.0188,1.0956,1.0227,0.994,1.0163,0.9545,0.9092,0.8764,0.8519,0.8421,0.8427,0.8631,0.8966,0.9324,0.9544,0.9631,0.953,0.9837,0.9773,0.9396,0.9518,0.9582,0.9518,0.925,0.918,0.918,0.918,0.918,0.918,0.918,0.9314,0.9582,0.946,0.9646,1.0015,1.0015,0.9767,0.9198,0.7722,0.6942,0.6548,0.6486,0.6416,0.642,0.642,0.642,0.642,0.642,0.642,0.642,0.642,0.642,0.642,0.642,0.642,0.642,0.642,0.642,0.642,0.642,0.642,0.642,0.642,0.642,0.642,0.642,0.642,0.642,0.642,0.642,0.642,0.642,0.642,0.642,0.642,0.642,0.642,0.642,0.5951,0.5749,0.5683,0.5147,0.4948,2.0839,2.1873,2.2117,2.0863,2.0934,2.1106,2.0415,1.9985,1.9839,2.028,2.0108,2.0091,2.0781,2.0787,2.083,2.1111,2.0102,1.8899,1.7775,1.6363,1.53,1.4824,1.3506,1.2824,1.3304,1.2135,1.165,1.2512,1.1557,1.1091,1.1495,1.1012,1.0655,1.0556,1.0413,1.0328,1.0271,0.9038,0.8421,0.8427,0.889,0.9388,0.9874,0.992,1.0179,1.0548,1.0148,0.9958,0.9894,0.9888,0.9894,0.9894,0.9888,0.9824,0.9824,0.9824,0.9824,0.9824,0.9824,0.9888,0.9894,0.9894,0.9958,1.0015,1.0015,0.9767,0.9454,0.9198,0.8355,0.7386,0.6942,0.6618,0.642,0.642,0.642,0.642,0.642,0.642,0.642,0.642,0.642,0.642,0.642,0.642,0.642,0.642,0.642,0.642,0.642,0.642,0.642,0.642,0.642,0.642,0.642,0.642,0.642,0.642,0.642,0.642,0.642,0.642,0.642,0.642,0.642,0.642,0.642,0.6284,0.6284,0.6284,0.5749,0.5484,2.0185,2.142,2.2233,2.1907,2.2417,2.2905,2.2373,2.1833,2.1393,2.1242,2.1084,2.1101,2.1571,2.1642,2.1678,2.1824,2.1355,2.0476,1.9006,1.7746,1.6576,1.5423,1.4378,1.3779,1.3823,1.2628,1.2177,1.2897,1.1686,1.1132,1.173,1.1578,1.1502,1.1592,1.1592,1.1487,1.1156,1.077,1.0201,0.9295,0.957,0.982,1.0066,1.0047,1.0239,1.0561,1.0609,1.0512,1.0471,1.0724,1.085,1.085,1.085,1.085,1.085,1.085,1.085,1.0793,1.0534,1.0598,1.0793,1.0541,1.0604,1.085,1.085,1.0787,1.0598,1.0288,0.9256,0.8221,0.8096,0.7777,0.7582,0.7642,0.7582,0.7521,0.7521,0.7521,0.7521,0.7521,0.726,0.7003,0.7003,0.6679,0.642,0.642,0.642,0.642,0.642,0.642,0.642,0.642,0.642,0.642,0.642,0.642,0.642,0.642,0.642,0.642,0.642,0.642,0.642,0.642,0.642,0.642,0.642,0.642,0.642,0.642,0.6148,0.6017,1.9443,2.0814,2.2169,2.3194,2.3867,2.4188,2.4103,2.3446,2.273,2.2371,2.2239,2.2254,2.2505,2.2467,2.2352,2.2363,2.2263,2.1605,1.9843,1.8931,1.7738,1.5877,1.5255,1.4737,1.422,1.316,1.2751,1.3377,1.1914,1.13,1.1994,1.1837,1.1878,1.218,1.2244,1.2121,1.172,1.2299,1.187,1.0434,1.0675,1.0713,1.0554,1.0628,1.0654,1.0641,1.1066,1.1142,1.0996,1.1435,1.1622,1.1622,1.1622,1.1622,1.1622,1.1622,1.1622,1.156,1.1122,1.1247,1.1498,1.1122,1.1247,1.1622,1.1622,1.1622,1.1498,1.1122,1.0155,0.925,0.9122,0.8865,0.8613,0.8737,0.8678,0.8613,0.8613,0.8613,0.8613,0.8549,0.8166,0.7777,0.7717,0.726,0.6872,0.6872,0.6872,0.6872,0.6872,0.6741,0.6679,0.6679,0.6482,0.642,0.642,0.642,0.642,0.642,0.642,0.642,0.642,0.642,0.642,0.642,0.642,0.642,0.642,0.642,0.642,0.642,0.642,0.642,1.9634,2.078,2.1865,2.4035,2.399,2.3543,2.4125,2.3421,2.2916,2.3899,2.3824,2.3686,2.4045,2.3791,2.3318,2.2831,2.242,2.1605,1.9843,1.9355,1.8442,1.6373,1.567,1.5213,1.4787,1.3777,1.3507,1.4336,1.3022,1.2282,1.2454,1.1748,1.1442,1.1665,1.1682,1.1842,1.2133,1.2618,1.2389,1.1527,1.2355,1.2456,1.1889,1.2198,1.2012,1.1524,1.1524,1.1538,1.156,1.156,1.1622,1.1622,1.1622,1.1622,1.1622,1.1622,1.1622,1.156,1.156,1.156,1.156,1.156,1.156,1.1622,1.1622,1.1622,1.156,1.156,1.1373,1.0856,0.9773,0.9192,0.8988,0.8988,0.8988,0.8988,0.8988,0.8988,0.8924,0.8737,0.8672,0.8544,0.8425,0.8361,0.8361,0.8361,0.8361,0.8361,0.8361,0.7782,0.7391,0.7391,0.6811,0.642,0.642,0.642,0.642,0.642,0.642,0.642,0.642,0.642,0.642,0.642,0.642,0.642,0.642,0.642,0.642,0.642,0.642,0.642,1.8637,2.0499,2.2316,2.3523,2.4091,2.4471,2.4941,2.4725,2.4564,2.5141,2.4954,2.4617,2.4364,2.3909,2.3551,2.3319,2.2614,2.1696,2.0608,1.9581,1.8302,1.6661,1.5882,1.5294,1.4671,1.3785,1.3416,1.3745,1.2872,1.2358,1.2371,1.2367,1.2371,1.2368,1.2651,1.2675,1.2396,1.3232,1.3305,1.2619,1.2647,1.2363,1.1914,1.1759,1.1855,1.2109,1.1776,1.1928,1.2397,1.197,1.2155,1.272,1.2343,1.2405,1.272,1.2282,1.2158,1.2158,1.2158,1.1919,1.1622,1.1622,1.1622,1.1622,1.1622,1.1622,1.1622,1.1622,1.156,1.1365,1.0919,1.0541,1.0345,1.0401,1.0345,1.0281,1.0281,1.0281,1.0281,1.0218,0.9831,0.9506,0.9442,0.8994,0.8613,0.8613,0.8549,0.849,0.849,0.8296,0.8102,0.8102,0.7842,0.7712,0.7712,0.7712,0.7521,0.7134,0.6679,0.642,0.642,0.642,0.642,0.642,0.642,0.642,0.642,0.642,0.642,0.642,0.642,0.642,1.8662,2.0786,2.288,2.3816,2.4652,2.5314,2.5707,2.5454,2.519,2.5497,2.5401,2.519,2.4871,2.4194,2.3588,2.3534,2.2505,2.138,2.0524,1.948,1.8284,1.6791,1.6029,1.5363,1.4739,1.4113,1.3692,1.3544,1.3012,1.2617,1.2495,1.2582,1.2637,1.2623,1.3109,1.3183,1.2868,1.3684,1.3857,1.3304,1.2904,1.2573,1.2316,1.1991,1.1999,1.2308,1.1998,1.2176,1.266,1.2373,1.2746,1.345,1.3009,1.307,1.3442,1.3009,1.2818,1.2818,1.2818,1.2528,1.2166,1.1981,1.1856,1.1856,1.1685,1.1622,1.1622,1.1622,1.1622,1.1622,1.1622,1.1435,1.1247,1.1373,1.131,1.1247,1.1247,1.1247,1.1247,1.1185,1.073,1.0401,1.0345,0.9831,0.9378,0.9378,0.9262,0.9134,0.9134,0.8941,0.8748,0.8554,0.849,0.849,0.849,0.849,0.8296,0.7847,0.7326,0.6872,0.6416,0.642,0.642,0.642,0.642,0.642,0.642,0.642,0.642,0.642,0.642,0.642,2.0077,2.1766,2.3429,2.5215,2.5695,2.5815,2.6272,2.5324,2.4452,2.492,2.5156,2.5463,2.5898,2.474,2.3606,2.3343,2.1998,2.0538,1.9275,1.9087,1.8475,1.681,1.6073,1.5547,1.5148,1.4822,1.4467,1.4151,1.3626,1.3203,1.2931,1.2246,1.1972,1.2296,1.2822,1.3277,1.3619,1.402,1.4006,1.3621,1.3541,1.3408,1.3214,1.3214,1.2859,1.2236,1.2236,1.2236,1.227,1.2726,1.3168,1.3494,1.3502,1.3502,1.3502,1.3502,1.3511,1.3511,1.3511,1.3511,1.3381,1.2757,1.2512,1.2389,1.1802,1.1622,1.1622,1.1622,1.1622,1.1622,1.1622,1.1622,1.1622,1.1622,1.1622,1.1622,1.1622,1.1622,1.156,1.1373,1.1303,1.124,1.1122,1.0933,1.0807,1.0807,1.0688,1.0624,1.0624,0.997,0.9262,0.8619,0.8554,0.8554,0.8554,0.8554,0.849,0.849,0.849,0.7907,0.6482,0.642,0.642,0.642,0.642,0.642,0.642,0.642,0.642,0.642,0.642,0.642,1.9101,2.1242,2.3441,2.3442,2.4728,2.5869,2.5434,2.5634,2.5816,2.5483,2.5216,2.4968,2.4777,2.3942,2.3211,2.2964,2.1918,2.0835,1.9944,1.9446,1.8542,1.6858,1.6673,1.6365,1.5588,1.564,1.5676,1.557,1.5434,1.5254,1.5091,1.4337,1.3921,1.4002,1.3769,1.3695,1.3806,1.4114,1.42,1.4071,1.4068,1.3848,1.3422,1.3135,1.3052,1.3081,1.28,1.2838,1.3128,1.3549,1.3571,1.3316,1.3584,1.3981,1.443,1.425,1.4231,1.4231,1.4231,1.3863,1.3442,1.326,1.3199,1.3199,1.2964,1.2964,1.2964,1.2964,1.2589,1.2336,1.2834,1.229,1.1622,1.1622,1.1622,1.1622,1.1622,1.1622,1.156,1.1498,1.1498,1.1435,1.1247,1.1122,1.0933,1.0807,1.0688,1.0624,1.0624,1.0428,1.0168,0.9977,0.9977,0.9977,0.9977,0.9977,0.9779,0.9262,0.9198,0.8619,0.726,0.7199,0.6937,0.642,0.642,0.642,0.642,0.642,0.642,0.642,0.642,0.642,2.0581,2.2405,2.4224,2.4207,2.5302,2.6247,2.5759,2.5649,2.5575,2.5375,2.4721,2.4168,2.4049,2.2988,2.2053,2.1736,2.0832,1.9862,1.9019,1.8654,1.8007,1.6667,1.6877,1.6912,1.6339,1.6693,1.6909,1.6844,1.6631,1.6455,1.6302,1.5681,1.5333,1.5208,1.4886,1.4803,1.4917,1.472,1.472,1.4892,1.4479,1.4127,1.3818,1.3552,1.3486,1.3531,1.3262,1.3401,1.377,1.3831,1.3719,1.3568,1.3811,1.4286,1.4814,1.4668,1.4742,1.4883,1.4883,1.4579,1.4222,1.3992,1.3932,1.3872,1.3571,1.3511,1.3511,1.3511,1.3199,1.3009,1.3381,1.2903,1.229,1.2042,1.1802,1.1622,1.1622,1.1622,1.1622,1.1622,1.1622,1.156,1.1428,1.131,1.1122,1.0989,1.0807,1.0681,1.0624,1.0624,1.0624,1.0624,1.0624,1.0624,1.0624,1.0624,1.0428,0.997,0.9907,0.946,0.8361,0.8037,0.7717,0.726,0.726,0.726,0.726,0.726,0.726,0.726,0.6937,0.6806,2.3275,2.4377,2.5232,2.621,2.645,2.6463,2.6547,2.5275,2.419,2.4695,2.3817,2.3093,2.3449,2.1953,2.0539,2.0049,1.9247,1.8358,1.7399,1.7389,1.7223,1.6347,1.6861,1.7235,1.7205,1.7721,1.8023,1.7839,1.7398,1.7089,1.6888,1.6597,1.6359,1.6223,1.6179,1.6309,1.6612,1.5752,1.5534,1.5952,1.5005,1.456,1.4479,1.434,1.4071,1.3658,1.3658,1.3886,1.4171,1.3741,1.3765,1.4119,1.4116,1.437,1.4723,1.4763,1.499,1.5352,1.5352,1.5381,1.5294,1.4765,1.4588,1.4469,1.3872,1.3683,1.3683,1.3683,1.3623,1.3631,1.3692,1.3563,1.3381,1.2818,1.222,1.1747,1.1747,1.1747,1.1677,1.1677,1.1622,1.156,1.156,1.1435,1.1303,1.1303,1.0989,1.0807,1.0681,1.0624,1.0624,1.0624,1.0624,1.0624,1.0624,1.0624,1.0624,1.0624,1.0624,1.0301,0.9652,0.8941,0.8554,0.849,0.849,0.849,0.849,0.849,0.849,0.849,0.7847,0.7587,2.1963,2.2785,2.3539,2.3757,2.3777,2.3914,2.4605,2.3865,2.3202,2.3827,2.2917,2.1876,2.1516,2.0906,2.0313,1.983,1.959,1.9201,1.8456,1.8383,1.8002,1.6863,1.7343,1.7578,1.7176,1.7714,1.8091,1.805,1.8178,1.8247,1.817,1.8061,1.7991,1.7939,1.757,1.7357,1.7437,1.7122,1.705,1.7133,1.6912,1.6434,1.5664,1.4744,1.4258,1.4165,1.4165,1.4219,1.4269,1.4174,1.419,1.4259,1.4183,1.4236,1.4307,1.4257,1.4551,1.4922,1.4922,1.5137,1.5352,1.5235,1.5235,1.5177,1.505,1.5001,1.5001,1.5001,1.4638,1.441,1.4874,1.4222,1.3631,1.3983,1.3563,1.3078,1.3078,1.2712,1.2336,1.2336,1.1919,1.156,1.1373,1.1303,1.124,1.1185,1.1059,1.0996,1.0996,1.0996,1.0996,1.0996,1.087,1.0744,1.0744,1.0681,1.0624,1.0624,1.0624,1.0561,1.0364,0.9652,0.9069,0.849,0.849,0.849,0.849,0.849,0.849,0.849,0.8361,0.8296,2.2101,2.2926,2.3636,2.3663,2.3329,2.312,2.3568,2.2945,2.2352,2.2647,2.1926,2.1145,2.0735,2.0148,1.96,1.9189,1.9223,1.9035,1.8409,1.8398,1.8171,1.7321,1.7854,1.814,1.7745,1.8179,1.8437,1.8331,1.8355,1.8356,1.8356,1.8332,1.8214,1.8072,1.7548,1.7463,1.7835,1.7301,1.7277,1.7787,1.7585,1.7216,1.6629,1.5365,1.4892,1.5085,1.4812,1.4674,1.4674,1.4398,1.4305,1.428,1.4244,1.438,1.4563,1.4246,1.4463,1.4829,1.4818,1.4795,1.4863,1.5273,1.5273,1.5146,1.5352,1.541,1.541,1.541,1.5177,1.5001,1.5294,1.4932,1.4519,1.4824,1.4222,1.3511,1.3511,1.326,1.3009,1.3009,1.2712,1.2474,1.2351,1.2097,1.1849,1.1663,1.1428,1.1185,1.1122,1.1122,1.1122,1.1122,1.0933,1.0807,1.0807,1.0681,1.0624,1.0624,1.0624,1.0624,1.0624,1.0231,0.9843,0.9524,0.9524,0.9524,0.9524,0.9524,0.9524,0.9524,0.9134,0.9005,2.2481,2.3422,2.4136,2.4352,2.3638,2.2896,2.2896,2.2216,2.1542,2.1433,2.1022,2.062,2.0396,1.9651,1.8957,1.8646,1.8735,1.8643,1.8118,1.8173,1.8125,1.7732,1.8195,1.8484,1.8286,1.8481,1.8555,1.8445,1.8173,1.8023,1.8069,1.8099,1.7956,1.7702,1.7213,1.7271,1.8004,1.7093,1.7077,1.8019,1.7554,1.725,1.7089,1.5886,1.5664,1.6163,1.5591,1.5322,1.5277,1.4766,1.4582,1.4536,1.449,1.4697,1.4952,1.4405,1.4499,1.4904,1.476,1.4483,1.4375,1.5049,1.5068,1.4863,1.5283,1.541,1.541,1.541,1.541,1.541,1.541,1.541,1.541,1.541,1.4579,1.3803,1.3803,1.3743,1.3683,1.3683,1.3571,1.3511,1.3511,1.307,1.2634,1.252,1.2035,1.1615,1.1553,1.1428,1.1365,1.1365,1.1052,1.087,1.087,1.0744,1.0624,1.0624,1.0624,1.0624,1.0624,1.0624,1.0624,1.0624,1.0624,1.0624,1.0624,1.0624,1.0624,1.0561,0.997,0.9716,2.1598,2.2551,2.3435,2.42,2.3228,2.2058,2.2057,2.1338,2.0672,2.0649,2.045,2.0164,1.9794,1.9511,1.9258,1.8986,1.891,1.8843,1.8699,1.855,1.8393,1.8146,1.8056,1.7924,1.7739,1.7575,1.7576,1.773,1.7674,1.7735,1.792,1.8051,1.8066,1.8035,1.767,1.7682,1.8061,1.7437,1.7296,1.7659,1.6923,1.6545,1.6509,1.5808,1.6074,1.7031,1.6509,1.6293,1.6306,1.578,1.5603,1.5558,1.5142,1.5006,1.5017,1.4496,1.4553,1.4935,1.4438,1.4532,1.4795,1.4873,1.4834,1.4863,1.5283,1.541,1.541,1.541,1.541,1.541,1.541,1.541,1.541,1.541,1.5294,1.5177,1.5177,1.4765,1.435,1.435,1.3932,1.3511,1.3511,1.345,1.3381,1.3321,1.326,1.3208,1.3208,1.2642,1.2328,1.2328,1.1663,1.1185,1.1059,1.087,1.0744,1.0624,1.0624,1.0624,1.0624,1.0624,1.0624,1.0624,1.0624,1.0624,1.0624,1.0624,1.0624,1.0624,1.0498,1.0428,2.1221,2.2081,2.2758,2.4067,2.3483,2.2432,2.1951,2.1552,2.1132,2.0614,2.0429,2.0282,1.999,1.9858,1.9719,1.955,1.9378,1.9234,1.9091,1.8945,1.8717,1.8413,1.829,1.8121,1.7794,1.7687,1.7618,1.7612,1.7609,1.759,1.7564,1.7631,1.7535,1.7286,1.7111,1.7208,1.7547,1.7271,1.7389,1.7878,1.7276,1.7006,1.7006,1.6501,1.6474,1.6729,1.6445,1.6388,1.6466,1.6262,1.6057,1.5792,1.5558,1.5468,1.5424,1.4915,1.4866,1.4996,1.4731,1.4588,1.4705,1.5425,1.5517,1.5508,1.6206,1.6415,1.6358,1.6026,1.5911,1.5806,1.5468,1.541,1.541,1.541,1.541,1.541,1.541,1.5177,1.5001,1.5001,1.4765,1.4579,1.4579,1.4282,1.4052,1.4052,1.3752,1.3511,1.3511,1.326,1.307,1.307,1.2642,1.2212,1.1787,1.1538,1.1233,1.087,1.0744,1.0744,1.0877,1.0877,1.0877,1.0877,1.0688,1.0624,1.0624,1.0624,1.0624,1.0624,1.0681,1.0681,2.085,2.1825,2.2507,2.3765,2.3749,2.3203,2.23,2.2148,2.1914,2.1014,2.0837,2.0717,2.0338,2.0197,2.0088,1.9992,1.9813,1.9651,1.9476,1.9295,1.9063,1.8735,1.8643,1.8487,1.8187,1.8082,1.7975,1.7827,1.771,1.7572,1.7462,1.7392,1.7224,1.6866,1.6738,1.6817,1.7155,1.7029,1.7176,1.7609,1.73,1.7143,1.7143,1.6724,1.648,1.6383,1.6254,1.6335,1.6619,1.6464,1.6298,1.6132,1.6001,1.5969,1.5913,1.5468,1.5289,1.5256,1.5063,1.4799,1.4711,1.588,1.6025,1.5968,1.6918,1.7202,1.709,1.6641,1.6528,1.6425,1.5968,1.5864,1.5806,1.569,1.5633,1.5584,1.541,1.541,1.541,1.541,1.541,1.541,1.541,1.5001,1.4706,1.4706,1.4282,1.3983,1.3983,1.3863,1.3743,1.3743,1.3502,1.307,1.2573,1.2143,1.1779,1.1358,1.1052,1.0933,1.1059,1.1122,1.1122,1.1122,1.0877,1.0751,1.0751,1.0751,1.0751,1.0751,1.0807,1.0807,2.0264,2.1789,2.3058,2.3158,2.3756,2.4085,2.3143,2.2932,2.2701,2.1906,2.1728,2.1484,2.0632,2.0336,2.0186,2.0188,2.0077,1.9954,1.9885,1.9593,1.935,1.9273,1.9028,1.8878,1.886,1.855,1.8395,1.8454,1.804,1.7811,1.7861,1.7681,1.7566,1.7542,1.7126,1.7002,1.7297,1.6863,1.6526,1.6311,1.6215,1.6174,1.6174,1.5757,1.5873,1.6375,1.6201,1.643,1.6946,1.6415,1.6567,1.7073,1.665,1.6479,1.6392,1.5925,1.5748,1.5703,1.5267,1.5085,1.5131,1.5659,1.5804,1.5968,1.6918,1.7202,1.7202,1.7146,1.7146,1.7146,1.709,1.709,1.6978,1.6358,1.6244,1.6083,1.5526,1.541,1.541,1.541,1.541,1.541,1.541,1.5352,1.5352,1.5352,1.5294,1.5294,1.5294,1.4824,1.4469,1.4469,1.3863,1.3381,1.3183,1.2634,1.2205,1.195,1.1421,1.1059,1.1122,1.1122,1.1122,1.1122,1.1059,1.1059,1.1059,1.1059,1.1059,1.1059,1.1059,1.1059,1.8668,2.0486,2.2265,2.2273,2.3333,2.4148,2.3212,2.3422,2.3447,2.2075,2.1793,2.154,2.0716,2.0425,2.0311,2.0276,2.0156,2.006,2.003,1.9843,1.9632,1.9392,1.9246,1.9093,1.893,1.8753,1.8661,1.8642,1.8391,1.8163,1.7958,1.7861,1.7726,1.7612,1.7432,1.732,1.7296,1.7126,1.6968,1.6769,1.6543,1.6409,1.6409,1.6093,1.5931,1.5936,1.5821,1.6281,1.7123,1.6932,1.7036,1.7366,1.7118,1.7076,1.7076,1.6582,1.6423,1.638,1.5957,1.5792,1.596,1.6812,1.7008,1.7158,1.8178,1.8441,1.8255,1.7875,1.7754,1.7699,1.7313,1.7202,1.7146,1.6922,1.6866,1.681,1.6585,1.5979,1.541,1.541,1.541,1.541,1.541,1.541,1.541,1.541,1.541,1.541,1.541,1.5235,1.5059,1.5059,1.4874,1.4519,1.4103,1.3726,1.3364,1.3009,1.2642,1.2528,1.2658,1.265,1.265,1.265,1.265,1.2104,1.1122,1.1122,1.1122,1.1122,1.1185,1.1185,1.7785,1.9542,2.1425,2.1728,2.2664,2.3572,2.3786,2.407,2.395,2.2839,2.238,2.1952,2.1151,2.0685,2.0406,2.033,2.0262,2.0192,2.0171,2.005,1.9877,1.9663,1.9516,1.9364,1.9191,1.9064,1.8965,1.886,1.8734,1.851,1.8194,1.8128,1.7975,1.7704,1.7704,1.7595,1.7392,1.7392,1.7313,1.715,1.6942,1.6815,1.6769,1.649,1.6203,1.5994,1.5853,1.6177,1.6822,1.68,1.7111,1.7595,1.7357,1.7424,1.7626,1.7146,1.6993,1.6951,1.6552,1.6392,1.6542,1.7291,1.7567,1.7837,1.8739,1.9077,1.904,1.8643,1.8483,1.8387,1.7984,1.771,1.7479,1.7479,1.7368,1.7202,1.7202,1.6585,1.6026,1.6026,1.5864,1.569,1.569,1.5517,1.541,1.541,1.541,1.541,1.541,1.541,1.541,1.541,1.541,1.5235,1.4824,1.4519,1.4163,1.3872,1.3502,1.3381,1.3502,1.3511,1.3511,1.3511,1.3511,1.2956,1.1919,1.167,1.1545,1.1545,1.1428,1.1373,0.0,0.0,0.0,2.1501,2.1767,2.243,2.4865,2.4768,2.4169,2.4198,2.3564,2.276,2.194,2.111,2.0501,2.0418,2.04,2.038,2.0315,2.0199,2.0098,2.0088,1.9866,1.9713,1.9701,1.9527,1.9357,1.9209,1.9081,1.886,1.8531,1.8512,1.8316,1.7927,1.7905,1.7816,1.7612,1.7612,1.7502,1.732,1.732,1.724,1.7108,1.6769,1.6623,1.6596,1.6313,1.6172,1.6099,1.6049,1.6775,1.7833,1.7399,1.7581,1.8039,1.7666,1.7517,1.7463,1.6993,1.6837,1.6842,1.6995,1.7414,1.7909,1.8449,1.899,1.942,1.942,1.9328,1.9235,1.9235,1.8655,1.8147,1.8147,1.7699,1.7257,1.7257,1.7257,1.7257,1.7202,1.6698,1.6255,1.6255,1.5806,1.541,1.541,1.541,1.541,1.541,1.541,1.541,1.541,1.541,1.541,1.541,1.4883,1.4529,1.4529,1.3932,1.3571,1.3571,1.3571,1.3571,1.3571,1.3571,1.3571,1.3563,1.2879,1.2512,1.2512,1.1919,1.1622,1.7614,0.0,0.0,0.0,0.0,0.0,2.3387,2.3513,2.3524,2.4191,2.3674,2.2824,2.2029,2.164,2.121,2.0506,2.0371,2.0321,2.03,2.0269,2.0208,2.0098,2.0021,1.9899,1.9713,1.9643,1.9541,1.9357,1.9232,1.9049,1.886,1.8643,1.8454,1.8336,1.8201,1.8027,1.7816,1.7816,1.7726,1.7526,1.7526,1.7408,1.724,1.715,1.6926,1.6596,1.6501,1.6366,1.6185,1.6411,1.6966,1.768,1.7763,1.7882,1.8044,1.7995,1.8016,1.7935,1.7475,1.738,1.7514,1.7938,1.8203,1.8478,1.8904,1.9232,1.9368,1.9275,1.9328,1.9328,1.9328,1.9198,1.904,1.904,1.8922,1.875,1.8667,1.8667,1.8213,1.681,1.6083,1.5633,1.5633,1.5526,1.541,1.541,1.541,1.541,1.541,1.541,1.541,1.541,1.541,1.541,1.541,1.5235,1.5177,1.5177,1.5001,1.4874,1.4874,1.4874,1.4874,1.4874,1.4874,1.4874,1.4874,1.3734,1.3199,1.3199,1.2581,1.2274,1.8256,1.9068,1.9988,1.9926,0.0,0.0,2.2656,2.2724,2.2851,2.41,2.3688,2.3056,2.2932,2.2302,2.1604,2.1046,2.0593,2.0341,2.0296,2.03,2.0265,2.0199,2.0135,2.004,1.9877,1.9769,1.9656,1.9541,1.9416,1.9295,1.9097,1.8807,1.868,1.868,1.843,1.8266,1.8149,1.8074,1.7922,1.7726,1.7726,1.7618,1.7415,1.7344,1.715,1.6892,1.6831,1.6717,1.6575,1.665,1.6879,1.723,1.7368,1.7679,1.8007,1.8059,1.824,1.8372,1.7935,1.7855,1.795,1.8124,1.8322,1.8623,1.9165,1.951,1.9787,1.9709,1.9577,1.9473,1.942,1.942,1.942,1.942,1.9368,1.9328,1.9223,1.8946,1.8494,1.7589,1.6922,1.6528,1.6528,1.6083,1.5806,1.5806,1.5575,1.5468,1.5748,1.5584,1.5526,1.5748,1.5526,1.541,1.541,1.541,1.541,1.541,1.541,1.5332,1.5156,1.5322,1.5332,1.5156,1.5322,1.541,1.541,1.4401,1.3743,1.3502,1.307,1.2948,1.9335,1.9559,1.9988,2.0889,2.0692,0.0,2.2232,2.2086,2.2048,2.3561,2.3213,2.2906,2.3729,2.2715,2.1705,2.1462,2.0998,2.0597,2.0337,2.0304,2.0296,2.0292,2.0188,2.0126,2.0098,1.9877,1.9738,1.9726,1.9668,1.9532,1.9283,1.9063,1.8947,1.8947,1.868,1.855,1.855,1.8345,1.8155,1.7971,1.7949,1.7816,1.7635,1.7439,1.7368,1.732,1.7175,1.7117,1.7108,1.6779,1.6685,1.6698,1.6667,1.7155,1.7869,1.7942,1.8309,1.8698,1.8397,1.8282,1.8228,1.7922,1.8152,1.869,1.9172,1.9763,2.0227,2.0312,1.9927,1.9542,1.9448,1.942,1.942,1.942,1.9368,1.9275,1.9223,1.8721,1.8375,1.8934,1.8483,1.7984,1.7984,1.709,1.6415,1.6415,1.5911,1.5806,1.6301,1.5921,1.5806,1.6358,1.5911,1.5575,1.5526,1.5526,1.5468,1.541,1.541,1.5244,1.4873,1.5215,1.5215,1.4795,1.5146,1.5371,1.541,1.4883,1.4291,1.3683,1.3631,1.3623,2.0212,2.0496,2.0758,2.0592,2.1249,0.0,2.0828,2.0573,2.0643,2.1077,2.0484,2.0137,2.1006,2.1415,2.1204,1.9908,2.1224,2.1933,2.0494,2.0306,2.0299,2.0296,2.0281,2.0222,2.0098,2.006,1.9971,1.9866,1.9851,1.9828,1.9774,1.9481,1.931,1.931,1.8996,1.8825,1.8825,1.8567,1.8432,1.8375,1.8222,1.8027,1.7839,1.7816,1.7687,1.7526,1.7337,1.7264,1.7264,1.7075,1.6849,1.6659,1.6903,1.7076,1.7299,1.8017,1.835,1.8411,1.8612,1.8736,1.8827,1.863,1.8843,1.9114,1.8986,1.9263,1.9691,1.9808,1.9504,1.9221,1.9595,1.9708,1.9708,1.9708,1.9708,1.9604,1.942,1.9263,1.9146,1.917,1.8213,1.7368,1.7368,1.7202,1.7034,1.7034,1.6922,1.6866,1.7034,1.6922,1.6922,1.7034,1.6922,1.6641,1.6197,1.614,1.5921,1.541,1.541,1.5371,1.5293,1.5371,1.5215,1.4795,1.4863,1.5078,1.541,1.5294,1.5177,1.4991,1.4529,1.4291,2.0559,2.0871,2.1217,2.1048,2.1439,0.0,0.0,2.0196,2.0366,2.1297,2.0546,2.0095,2.1365,2.0887,2.0183,1.9812,2.0785,2.1306,2.0476,2.1068,2.1439,2.1005,2.0947,2.0758,2.0244,2.0133,2.005,1.9901,1.9899,1.9907,1.9907,1.9743,1.9638,1.9638,1.9392,1.9234,1.9141,1.8892,1.8717,1.8698,1.8526,1.8368,1.8191,1.804,1.7866,1.7749,1.7526,1.7455,1.7432,1.7281,1.7093,1.6933,1.6835,1.6782,1.6803,1.7238,1.7715,1.813,1.8301,1.8579,1.8889,1.8889,1.9027,1.9169,1.9318,1.9586,1.9819,1.9894,1.9562,1.9365,1.9973,1.9933,1.9811,2.0143,1.9901,1.9565,1.942,1.9316,1.9158,1.9105,1.8548,1.8093,1.8213,1.7875,1.7644,1.7644,1.7368,1.7313,1.7589,1.7368,1.7313,1.7644,1.7368,1.709,1.6754,1.6472,1.6197,1.5864,1.5584,1.5322,1.5107,1.5098,1.5,1.4785,1.457,1.4668,1.5098,1.5098,1.5205,1.541,1.4907,1.4639,2.0205,2.0567,2.1105,2.106,2.127,2.1189,0.0,0.0,0.0,2.1274,2.0507,2.0126,2.1664,2.0278,1.9134,1.9838,2.0254,2.045,2.0345,2.1779,2.2493,2.1475,2.1644,2.1509,2.0639,2.0592,2.0573,2.0469,2.0306,2.0209,2.0209,2.0036,1.9939,1.9939,1.9748,1.9607,1.9508,1.9206,1.9054,1.8998,1.8825,1.8679,1.8531,1.8255,1.8086,1.7992,1.78,1.7726,1.7687,1.7486,1.7368,1.732,1.6815,1.6611,1.6623,1.6622,1.7199,1.7942,1.8021,1.8395,1.8874,1.8979,1.8993,1.908,1.9584,1.9764,1.9795,1.992,1.9674,1.9476,2.007,1.9954,1.983,2.0407,2.0053,1.9634,1.9734,1.9604,1.9436,1.9436,1.9344,1.9198,1.917,1.8655,1.8255,1.8255,1.7875,1.7699,1.8213,1.7875,1.7754,1.8201,1.782,1.7479,1.7368,1.6922,1.6528,1.6301,1.5783,1.5338,1.5081,1.4903,1.4769,1.4658,1.4228,1.4228,1.4658,1.4658,1.4834,1.5156,1.4902,1.4736,1.8525,1.9089,1.9841,1.9269,2.0397,2.0997,1.8429,0.0,1.8939,1.7712,0.0,1.7695,1.8707,0.0,0.0,1.868,2.0106,2.0919,2.0146,2.1589,2.2158,2.0636,2.1809,2.2419,2.1548,2.2084,2.2483,2.2474,2.1756,2.1317,2.1317,2.0527,2.0079,2.0079,1.995,1.9855,1.9843,1.9516,1.935,1.9354,1.903,1.8807,1.8697,1.8642,1.8565,1.8426,1.8225,1.8125,1.8103,1.7861,1.7681,1.7542,1.7175,1.7039,1.7081,1.7345,1.7729,1.8104,1.8425,1.8745,1.9064,1.9017,1.8927,1.8889,1.9113,1.8864,1.8625,1.921,1.9114,1.8911,1.9462,1.9566,1.9669,2.0261,2.0362,2.0401,2.0873,2.0979,2.093,2.093,2.0484,1.9837,1.9146,1.8934,1.8881,1.8881,1.8827,1.8827,1.8881,1.8827,1.8827,1.8881,1.8827,1.8602,1.8038,1.7929,1.7424,1.6358,1.5883,1.5821,1.6105,1.5409,1.4722,1.4209,1.3799,1.3789,1.4209,1.4209,1.4175,1.4287,1.4629,1.458,1.7741,1.8513,1.946,1.875,1.9469,1.9952,1.8375,1.8362,1.8627,1.8412,0.0,0.0,0.0,0.0,0.0,0.0,1.9141,1.9539,1.917,2.0289,2.1091,2.0949,2.1613,2.196,2.168,2.1937,2.2308,2.2829,2.2045,2.1751,2.2233,2.1402,2.0907,2.0907,2.0411,2.0088,2.003,1.9888,1.9731,1.958,1.939,1.9193,1.8981,1.8912,1.8789,1.8603,1.8545,1.8448,1.8348,1.8142,1.7927,1.7749,1.7448,1.7134,1.6889,1.7046,1.728,1.7578,1.817,1.8706,1.9181,1.9353,1.9213,1.8988,1.9064,1.8936,1.8841,1.9098,1.9052,1.9075,1.9669,1.9614,1.9623,2.0619,2.0579,2.0462,2.1054,2.1126,2.1091,2.1091,2.0832,2.0534,2.0245,1.9656,1.921,1.9117,1.9158,1.921,1.9117,1.9158,1.921,1.921,1.921,1.9146,1.8869,1.8525,1.7955,1.7176,1.6328,1.5825,1.5698,1.5361,1.5046,1.4755,1.4401,1.4391,1.4795,1.4795,1.4658,1.4465,1.4192,1.3945,1.7121,1.7822,1.8749,1.7843,1.8156,1.8525,1.7845,1.782,1.8163,1.8931,1.8445,0.0,0.0,0.0,1.7307,1.8159,0.0,1.8317,1.8597,1.9115,1.9749,2.0566,2.1135,2.1602,2.1937,2.1963,2.2318,2.318,2.2454,2.2315,2.3105,2.2125,2.1532,2.1532,2.0735,2.026,2.0153,1.9878,1.9649,1.9439,1.9145,1.8867,1.8625,1.8517,1.8489,1.8503,1.8467,1.852,1.862,1.8391,1.8208,1.8035,1.7805,1.7399,1.696,1.6841,1.6979,1.7341,1.7866,1.8563,1.928,1.9607,1.9493,1.925,1.9139,1.9101,1.9101,1.9101,1.9101,1.9217,1.9696,1.9523,1.9525,2.0642,2.0548,2.0398,2.1258,2.1328,2.1281,2.1281,2.1322,2.128,2.1117,2.0393,1.9811,1.972,1.9772,1.9759,1.9525,1.9565,1.9503,1.9211,1.9334,1.9359,1.9211,1.8758,1.8199,1.7322,1.6642,1.5885,1.5115,1.5348,1.5407,1.5093,1.4842,1.482,1.5129,1.5129,1.4998,1.4674,1.4066,1.3731,1.6431,1.6732,1.7241,1.5913,1.6306,1.68,1.6055,1.6475,1.7216,1.7909,1.8369,1.8677,1.8718,1.8245,1.7885,1.799,1.7752,0.0,0.0,1.8444,1.8228,1.8734,2.0345,2.1737,2.2592,2.2774,2.3219,2.4088,2.3358,2.3207,2.4017,2.2497,2.1594,2.1594,2.0743,2.0304,2.0285,1.932,1.8837,1.8828,1.7909,1.7369,1.7176,1.7164,1.748,1.8024,1.7882,1.8265,1.8949,1.8697,1.8545,1.8465,1.8348,1.804,1.7618,1.724,1.7295,1.7609,1.7697,1.8404,1.9331,1.9607,1.969,1.9617,1.9213,1.9101,1.9101,1.9101,1.9101,1.9101,1.913,1.913,1.9266,1.9962,2.0121,2.0469,2.1714,2.1975,2.1975,2.1975,2.205,2.1988,2.131,2.1036,2.0944,2.0944,2.0944,2.0733,2.0232,2.0181,1.9788,1.8746,1.9113,1.9211,1.8683,1.8583,1.7921,1.6362,1.6666,1.6226,1.4765,1.5649,1.573,1.4731,1.4709,1.4709,1.4731,1.4731,1.472,1.472,1.4628,1.4365,1.6016,1.6189,1.6473,1.5541,1.5814,1.6112,1.5445,1.5417,1.5866,1.6912,1.728,1.7598,1.8319,1.8129,1.7871,1.7754,1.7383,1.7041,0.0,1.6514,1.6418,1.6802,1.903,2.0898,2.182,2.1949,2.2605,2.4157,2.3956,2.4145,2.5046,2.4503,2.367,2.2559,2.1687,2.0927,2.0308,1.9426,1.8939,1.8799,1.7934,1.7444,1.7305,1.7305,1.7345,1.7401,1.7362,1.7709,1.8306,1.8141,1.8289,1.8603,1.8445,1.8166,1.7871,1.7595,1.7469,1.7462,1.7877,1.8741,1.9594,1.9433,1.9506,1.9617,1.9213,1.9101,1.9101,1.9101,1.9101,1.9101,1.9101,1.9101,1.9275,1.9943,2.0103,2.032,2.1148,2.1336,2.1336,2.1336,2.1369,2.1313,2.1097,2.1054,2.1007,2.1116,2.0611,2.0083,1.9853,1.9239,1.8717,1.8348,1.8497,1.8535,1.8348,1.7999,1.7579,1.7011,1.6769,1.6398,1.5856,1.6191,1.6215,1.5844,1.5888,1.5876,1.5876,1.5876,1.5876,1.5888,1.5553,1.5039,1.6019,1.5993,1.6029,1.5178,1.5275,1.5423,1.4711,1.4834,1.5389,1.656,1.703,1.7501,1.8443,1.8365,1.8032,1.767,1.7226,1.6623,0.0,1.5707,1.5796,1.5826,1.8057,1.9973,2.0903,2.1074,2.1994,2.4133,2.4258,2.4766,2.6004,2.5729,2.4902,2.3519,2.2314,2.126,2.0338,1.92,1.8557,1.8425,1.7286,1.6686,1.6569,1.658,1.6649,1.6771,1.6683,1.72,1.8082,1.7939,1.8247,1.8789,1.8659,1.843,1.8128,1.7871,1.7618,1.7533,1.8042,1.8702,1.9295,1.939,1.9549,1.9695,1.9549,1.942,1.9325,1.9325,1.9213,1.9101,1.9101,1.9101,1.9217,1.9638,1.974,1.9914,2.0538,2.0843,2.093,2.0712,2.1073,2.1233,2.0782,2.0925,2.1096,2.1129,2.0589,2.0129,1.9867,1.9331,1.88,1.8409,1.8564,1.8603,1.8396,1.8048,1.7764,1.7557,1.7183,1.6921,1.6892,1.6934,1.6892,1.6693,1.6735,1.6693,1.6522,1.6522,1.6522,1.6479,1.6194,1.5788]},{"header":{"parameterUnit":"m.s-1","parameterCategory":1,"la1":30.6,"la2":29.2853,"lo1":-89.7004,"lo2":-87.6739,"dy":0.0162,"dx":0.0183,"nx":112,"ny":82,"refTime":"2024-08-15T06:00:00:Z","depth":0,"parameterNumber":3,"parameterNumberName":"V-component_of_WINDS"},"data":[0.0,0.0,0.0,0.0,0.0,0.0,0.0,0.0,0.0,0.0,0.0,0.0,0.0,0.0,0.0,0.0,0.0,0.0,0.0,0.0,0.0,0.0,0.0,0.0,0.0,0.0,0.0,0.0,0.0,0.0,0.0,0.0,0.0,0.0,0.0,0.0,0.0,0.0,0.0,0.0,0.0,0.0,0.0,0.0,0.0,0.0,0.0,0.0,0.0,0.0,0.0,0.0,0.0,0.0,0.0,0.0,0.0,0.0,0.0,0.0,0.0,0.0,0.0,0.0,0.0,0.0,0.0,0.0,0.0,0.0,0.0,0.0,0.0,0.0,0.0,0.0,0.0,0.0,0.0,0.0,0.0,0.0,0.0,0.0,0.0,0.0,0.0,0.0,0.0,0.0,-3.0052,-2.987,-2.836,-2.7428,-2.7616,-2.6754,-2.6949,-2.8769,0.0,0.0,0.0,0.0,0.0,0.0,0.0,0.0,0.0,0.0,0.0,0.0,0.0,0.0,0.0,0.0,0.0,0.0,0.0,0.0,0.0,0.0,0.0,0.0,0.0,0.0,0.0,0.0,0.0,0.0,0.0,0.0,0.0,0.0,0.0,0.0,0.0,0.0,0.0,0.0,0.0,0.0,0.0,0.0,0.0,0.0,0.0,0.0,0.0,0.0,0.0,0.0,0.0,0.0,0.0,0.0,0.0,0.0,0.0,0.0,0.0,0.0,0.0,0.0,0.0,0.0,0.0,0.0,0.0,0.0,0.0,0.0,0.0,0.0,0.0,0.0,0.0,0.0,0.0,0.0,0.0,0.0,0.0,0.0,0.0,0.0,0.0,0.0,0.0,0.0,0.0,0.0,0.0,0.0,0.0,0.0,0.0,0.0,0.0,0.0,0.0,0.0,0.0,0.0,-2.8914,-2.7932,-2.7422,-2.7177,-2.7264,-2.662,-2.6921,-2.862,0.0,0.0,0.0,0.0,0.0,0.0,0.0,0.0,0.0,0.0,0.0,0.0,0.0,0.0,0.0,0.0,0.0,0.0,0.0,0.0,0.0,0.0,0.0,0.0,0.0,0.0,0.0,0.0,0.0,0.0,0.0,0.0,0.0,0.0,0.0,0.0,0.0,0.0,0.0,0.0,0.0,0.0,0.0,0.0,0.0,0.0,0.0,0.0,0.0,0.0,0.0,0.0,0.0,0.0,0.0,0.0,0.0,0.0,0.0,0.0,0.0,0.0,0.0,0.0,0.0,0.0,0.0,0.0,0.0,0.0,0.0,0.0,0.0,0.0,0.0,0.0,0.0,0.0,0.0,0.0,0.0,0.0,0.0,0.0,0.0,0.0,0.0,0.0,0.0,0.0,0.0,0.0,0.0,0.0,0.0,0.0,0.0,0.0,0.0,0.0,0.0,0.0,0.0,-2.9174,-2.8469,-2.7368,-2.7093,-2.6874,-2.651,-2.6512,-2.7123,-2.8559,-2.7519,0.0,0.0,0.0,0.0,0.0,0.0,0.0,0.0,0.0,0.0,0.0,0.0,0.0,0.0,0.0,0.0,0.0,0.0,0.0,0.0,0.0,0.0,0.0,0.0,0.0,0.0,0.0,0.0,0.0,0.0,0.0,0.0,0.0,0.0,0.0,0.0,0.0,0.0,0.0,0.0,0.0,0.0,0.0,0.0,0.0,0.0,0.0,0.0,0.0,0.0,0.0,0.0,0.0,0.0,0.0,0.0,0.0,0.0,0.0,0.0,0.0,0.0,0.0,0.0,0.0,0.0,0.0,0.0,0.0,0.0,0.0,0.0,0.0,0.0,0.0,0.0,0.0,0.0,0.0,0.0,0.0,0.0,0.0,0.0,0.0,0.0,0.0,0.0,0.0,0.0,0.0,0.0,0.0,0.0,0.0,0.0,0.0,0.0,0.0,0.0,0.0,0.0,-2.9162,-2.8294,-2.7434,-2.7028,-2.6618,-2.6113,-2.6712,-2.7494,-2.8433,-2.7176,0.0,0.0,0.0,0.0,0.0,0.0,0.0,0.0,0.0,0.0,0.0,0.0,0.0,0.0,0.0,0.0,0.0,0.0,0.0,0.0,0.0,0.0,0.0,0.0,0.0,0.0,0.0,0.0,0.0,0.0,0.0,0.0,0.0,0.0,0.0,0.0,0.0,0.0,0.0,0.0,0.0,0.0,0.0,0.0,0.0,0.0,0.0,0.0,0.0,0.0,0.0,0.0,0.0,0.0,0.0,0.0,0.0,0.0,0.0,0.0,0.0,0.0,0.0,0.0,0.0,0.0,0.0,0.0,0.0,0.0,0.0,0.0,0.0,0.0,0.0,0.0,0.0,0.0,0.0,0.0,0.0,0.0,0.0,0.0,0.0,0.0,0.0,0.0,0.0,0.0,0.0,0.0,0.0,0.0,0.0,0.0,0.0,0.0,0.0,0.0,0.0,0.0,-2.9063,-2.8332,-2.807,-2.7184,-2.6597,-2.6562,-2.7448,-2.805,-2.8125,-2.761,0.0,0.0,0.0,0.0,0.0,0.0,0.0,0.0,0.0,0.0,0.0,0.0,0.0,0.0,0.0,0.0,0.0,0.0,0.0,0.0,0.0,0.0,0.0,0.0,0.0,0.0,0.0,0.0,0.0,0.0,0.0,0.0,0.0,0.0,0.0,0.0,0.0,0.0,0.0,0.0,0.0,0.0,0.0,0.0,0.0,0.0,0.0,0.0,0.0,0.0,0.0,0.0,0.0,0.0,0.0,0.0,0.0,0.0,0.0,0.0,0.0,0.0,0.0,0.0,0.0,0.0,0.0,0.0,0.0,0.0,0.0,0.0,0.0,0.0,0.0,0.0,0.0,0.0,0.0,0.0,0.0,0.0,0.0,0.0,0.0,0.0,0.0,0.0,0.0,0.0,0.0,0.0,0.0,0.0,0.0,0.0,0.0,0.0,0.0,0.0,0.0,0.0,-2.898,-2.8278,-2.7941,-2.7577,-2.7346,-2.7346,-2.8169,-2.854,-2.8222,0.0,0.0,0.0,0.0,0.0,0.0,0.0,0.0,0.0,0.0,0.0,0.0,0.0,0.0,0.0,0.0,0.0,0.0,0.0,0.0,0.0,0.0,0.0,0.0,0.0,0.0,0.0,0.0,0.0,0.0,0.0,0.0,0.0,0.0,0.0,0.0,0.0,0.0,0.0,0.0,0.0,0.0,0.0,0.0,0.0,0.0,0.0,0.0,0.0,0.0,0.0,0.0,0.0,0.0,0.0,0.0,0.0,0.0,0.0,0.0,0.0,0.0,0.0,0.0,0.0,0.0,0.0,0.0,0.0,0.0,0.0,0.0,0.0,0.0,0.0,0.0,0.0,0.0,0.0,0.0,0.0,0.0,0.0,0.0,0.0,0.0,0.0,0.0,0.0,0.0,0.0,0.0,0.0,0.0,0.0,0.0,0.0,0.0,0.0,0.0,0.0,0.0,-2.9616,-2.8875,-2.8277,-2.8198,-2.7952,-2.7897,-2.8154,-2.8686,-2.8743,-2.8183,0.0,0.0,0.0,0.0,0.0,0.0,0.0,0.0,0.0,0.0,0.0,0.0,0.0,0.0,0.0,0.0,0.0,0.0,0.0,0.0,0.0,0.0,0.0,0.0,0.0,0.0,0.0,0.0,0.0,0.0,0.0,0.0,0.0,0.0,0.0,0.0,0.0,0.0,0.0,0.0,0.0,0.0,0.0,0.0,0.0,0.0,0.0,0.0,0.0,0.0,0.0,0.0,0.0,0.0,0.0,0.0,0.0,0.0,0.0,0.0,0.0,0.0,0.0,0.0,0.0,0.0,0.0,0.0,0.0,0.0,0.0,0.0,0.0,0.0,0.0,0.0,0.0,0.0,0.0,0.0,0.0,0.0,0.0,0.0,0.0,0.0,0.0,0.0,0.0,0.0,0.0,0.0,0.0,0.0,0.0,0.0,0.0,0.0,0.0,0.0,0.0,0.0,-2.9506,-2.8764,-2.8339,-2.8948,-2.8282,-2.8136,-2.892,-2.8975,-2.865,0.0,0.0,0.0,0.0,0.0,0.0,0.0,0.0,0.0,0.0,0.0,0.0,0.0,0.0,0.0,0.0,0.0,0.0,0.0,0.0,0.0,0.0,0.0,0.0,0.0,0.0,0.0,0.0,0.0,0.0,0.0,0.0,0.0,0.0,0.0,0.0,0.0,0.0,0.0,0.0,0.0,0.0,0.0,0.0,0.0,0.0,0.0,0.0,0.0,0.0,0.0,0.0,0.0,0.0,0.0,0.0,0.0,0.0,0.0,0.0,0.0,0.0,0.0,0.0,0.0,0.0,0.0,0.0,0.0,0.0,0.0,0.0,0.0,0.0,0.0,0.0,0.0,0.0,0.0,0.0,0.0,0.0,0.0,0.0,0.0,0.0,0.0,0.0,0.0,0.0,0.0,0.0,0.0,0.0,0.0,0.0,0.0,0.0,0.0,0.0,0.0,0.0,0.0,-2.9526,-2.9231,-2.8968,-2.9003,-2.8796,-2.8741,-2.8975,-2.8559,-2.8005,-2.7345,0.0,0.0,0.0,0.0,0.0,0.0,0.0,0.0,0.0,0.0,0.0,0.0,0.0,0.0,0.0,0.0,0.0,0.0,0.0,0.0,0.0,0.0,0.0,0.0,0.0,0.0,0.0,0.0,0.0,0.0,0.0,0.0,0.0,0.0,0.0,0.0,0.0,0.0,0.0,0.0,0.0,0.0,0.0,0.0,0.0,0.0,0.0,0.0,0.0,0.0,0.0,0.0,0.0,0.0,0.0,0.0,0.0,0.0,0.0,0.0,0.0,0.0,0.0,0.0,0.0,0.0,0.0,0.0,0.0,0.0,0.0,0.0,0.0,0.0,0.0,0.0,0.0,0.0,0.0,0.0,0.0,0.0,0.0,0.0,0.0,0.0,0.0,0.0,0.0,0.0,0.0,0.0,0.0,0.0,0.0,0.0,0.0,0.0,0.0,0.0,0.0,0.0,-2.9401,-2.9316,-2.9138,-2.8998,-2.8994,-2.8994,-2.8994,-2.8629,-2.8135,-2.755,0.0,0.0,0.0,0.0,0.0,0.0,0.0,0.0,0.0,0.0,0.0,0.0,0.0,0.0,0.0,0.0,0.0,0.0,0.0,0.0,0.0,0.0,0.0,0.0,0.0,0.0,0.0,0.0,0.0,0.0,0.0,0.0,0.0,0.0,0.0,0.0,0.0,0.0,0.0,0.0,0.0,0.0,0.0,0.0,0.0,0.0,0.0,0.0,0.0,0.0,0.0,0.0,0.0,0.0,0.0,0.0,0.0,0.0,0.0,0.0,0.0,0.0,0.0,0.0,0.0,0.0,0.0,0.0,0.0,0.0,0.0,0.0,0.0,0.0,0.0,0.0,0.0,0.0,0.0,0.0,0.0,0.0,0.0,0.0,0.0,0.0,0.0,0.0,0.0,0.0,0.0,0.0,0.0,0.0,0.0,0.0,0.0,0.0,0.0,0.0,0.0,0.0,-2.9209,-2.9178,-2.8994,-2.8994,-2.8994,-2.898,-2.8906,-2.8911,-2.8676,-2.807,0.0,0.0,0.0,0.0,0.0,0.0,0.0,0.0,0.0,0.0,0.0,0.0,0.0,0.0,0.0,0.0,0.0,0.0,0.0,0.0,0.0,0.0,0.0,0.0,0.0,0.0,0.0,0.0,0.0,0.0,0.0,0.0,0.0,0.0,0.0,0.0,0.0,0.0,0.0,0.0,0.0,0.0,0.0,0.0,0.0,0.0,0.0,0.0,0.0,0.0,0.0,0.0,0.0,0.0,0.0,0.0,0.0,0.0,0.0,0.0,-2.6189,-2.6352,0.0,0.0,0.0,0.0,0.0,0.0,0.0,0.0,0.0,0.0,0.0,0.0,0.0,0.0,0.0,0.0,0.0,0.0,0.0,0.0,0.0,0.0,0.0,0.0,0.0,0.0,0.0,0.0,0.0,0.0,0.0,0.0,0.0,0.0,0.0,0.0,0.0,0.0,0.0,0.0,-2.9204,-2.9138,-2.8994,-2.8994,-2.8994,-2.8787,-2.8257,-2.8349,-2.8184,-2.7584,-2.7547,0.0,0.0,0.0,0.0,0.0,0.0,0.0,0.0,0.0,0.0,0.0,0.0,0.0,0.0,0.0,0.0,0.0,0.0,0.0,0.0,0.0,0.0,0.0,0.0,0.0,0.0,0.0,0.0,0.0,0.0,0.0,0.0,0.0,0.0,0.0,0.0,0.0,0.0,0.0,0.0,0.0,0.0,0.0,0.0,0.0,0.0,0.0,0.0,0.0,0.0,0.0,0.0,0.0,0.0,0.0,0.0,0.0,0.0,0.0,-2.8106,-2.7903,0.0,0.0,0.0,0.0,0.0,0.0,0.0,0.0,0.0,0.0,0.0,0.0,0.0,0.0,0.0,0.0,0.0,0.0,0.0,0.0,0.0,0.0,0.0,0.0,0.0,0.0,0.0,0.0,0.0,0.0,0.0,0.0,0.0,0.0,0.0,0.0,0.0,0.0,0.0,0.0,-2.9223,-2.9272,-2.9249,-2.916,-2.9228,-2.8936,-2.8063,-2.8558,-2.8664,-2.8017,-2.807,0.0,0.0,0.0,0.0,0.0,0.0,0.0,0.0,0.0,0.0,0.0,0.0,0.0,0.0,0.0,0.0,0.0,0.0,0.0,0.0,0.0,0.0,0.0,0.0,0.0,0.0,0.0,0.0,0.0,0.0,0.0,0.0,0.0,0.0,0.0,0.0,0.0,0.0,0.0,0.0,0.0,0.0,0.0,0.0,0.0,0.0,0.0,0.0,0.0,0.0,0.0,0.0,0.0,-2.9258,-2.9258,-2.9388,-2.924,-2.9184,-2.9202,-2.9481,-2.9202,-2.8589,-2.9355,0.0,0.0,0.0,0.0,0.0,0.0,0.0,0.0,0.0,0.0,0.0,0.0,0.0,0.0,0.0,0.0,0.0,0.0,0.0,0.0,0.0,0.0,-3.0991,-3.1545,-3.2308,-3.2282,-3.0021,0.0,0.0,0.0,0.0,0.0,0.0,0.0,0.0,0.0,0.0,0.0,-2.9302,-2.9513,-2.9551,-2.9375,-2.9513,-2.9139,-2.7977,-2.8989,-2.9319,-2.848,-2.8723,-2.8954,0.0,0.0,0.0,0.0,0.0,0.0,0.0,0.0,0.0,0.0,0.0,0.0,0.0,0.0,0.0,0.0,0.0,0.0,0.0,0.0,0.0,0.0,0.0,0.0,0.0,0.0,0.0,0.0,0.0,0.0,0.0,0.0,-2.4316,-2.5919,0.0,0.0,0.0,0.0,0.0,0.0,0.0,0.0,0.0,0.0,0.0,0.0,0.0,-2.924,-2.9241,-2.9351,-2.9407,-2.9388,-2.8645,-2.8682,-2.937,-2.8626,-2.8253,-2.8346,-2.9816,0.0,-3.0281,-3.0523,0.0,0.0,0.0,0.0,0.0,0.0,0.0,0.0,0.0,0.0,0.0,0.0,0.0,0.0,0.0,0.0,0.0,0.0,0.0,0.0,0.0,0.0,-3.248,-3.1775,-3.2276,-3.2595,-3.1513,-3.145,-3.1552,-3.1315,-3.0746,-3.0234,0.0,0.0,0.0,0.0,0.0,0.0,-2.9551,-2.9589,-2.9589,-2.957,-2.9589,-2.9005,-2.7614,-2.8931,-2.9292,-2.791,-2.9183,-2.9999,-3.0032,-2.9211,0.0,0.0,0.0,0.0,0.0,0.0,0.0,0.0,0.0,0.0,0.0,0.0,0.0,0.0,0.0,0.0,0.0,0.0,0.0,0.0,0.0,0.0,0.0,0.0,0.0,0.0,0.0,0.0,0.0,-2.3584,-2.5753,-2.6778,-2.7604,-2.7998,0.0,0.0,0.0,0.0,0.0,0.0,0.0,0.0,0.0,-2.8537,-2.8993,-2.9283,-2.9407,-2.9407,-2.9407,-2.9407,-2.9016,-2.9035,-2.9388,-2.9016,-2.8831,-2.8905,-3.0095,-3.0615,-3.0634,-3.1274,-3.1485,-3.1468,0.0,0.0,0.0,0.0,-3.2679,-3.2487,-3.3333,-3.3391,-3.3103,-3.3103,0.0,0.0,0.0,0.0,0.0,0.0,0.0,-3.2434,-3.2312,-3.2609,-3.2721,-3.1852,-3.2263,-3.287,-3.3031,-3.2659,-3.2272,-3.2272,-3.2357,-3.2108,-3.1082,-3.1255,0.0,0.0,0.0,-3.0416,-2.9825,-2.9872,-2.9905,-2.9769,-2.9872,-2.9428,-2.8184,-2.93,-2.958,-2.8452,-2.9516,-3.0204,-3.0204,-2.9822,-2.9402,0.0,0.0,0.0,0.0,0.0,0.0,0.0,0.0,0.0,0.0,0.0,0.0,0.0,0.0,0.0,0.0,0.0,0.0,0.0,0.0,0.0,0.0,0.0,0.0,0.0,0.0,0.0,0.0,-2.5325,-2.6961,-2.78,-2.8363,-2.8615,0.0,0.0,0.0,0.0,0.0,0.0,-2.7827,-2.8439,-2.8863,-2.9021,-2.9112,-2.924,-2.9407,-2.9407,-2.9407,-2.9407,-2.9407,-2.9407,-2.9407,-2.9407,-2.9407,-2.9444,-3.0039,-3.0302,-3.042,-3.1369,-3.1542,-3.1299,-3.2311,-3.2554,-3.2435,-3.3012,-3.3083,-3.3026,-3.3891,-3.4199,-3.4237,-3.4449,-3.393,-3.3218,-3.3277,0.0,0.0,0.0,0.0,-3.2841,-3.2429,-3.2596,-3.2673,-3.1834,-3.2237,-3.2938,-3.3415,-3.3288,-3.3115,-3.3144,-3.3485,-3.3331,-3.1976,-3.2267,0.0,-3.0554,-3.0887,-3.1013,-3.0102,-3.0113,-3.0142,-3.0003,-3.0113,-2.9799,-2.8753,-2.9599,-2.9822,-2.8949,-2.9726,-3.0204,-3.0204,-3.0204,-2.9898,-2.9235,0.0,0.0,0.0,0.0,0.0,0.0,0.0,0.0,0.0,0.0,0.0,0.0,0.0,0.0,0.0,0.0,0.0,0.0,0.0,0.0,0.0,0.0,0.0,0.0,0.0,0.0,0.0,0.0,0.0,-2.9343,-2.9514,0.0,0.0,0.0,0.0,-2.8688,-2.8529,-2.8464,-2.8464,-2.8658,-2.8797,-2.8797,-2.9178,-2.9386,-2.9407,-2.9407,-2.9407,-2.9407,-2.9407,-2.9407,-2.9407,-2.9407,-2.9407,-2.9407,-2.9444,-2.9527,-2.9702,-3.0527,-3.1334,-3.2068,-3.2523,-3.2191,-3.1675,-3.3473,-3.3603,-3.3026,-3.3891,-3.4199,-3.4334,-3.518,-3.4807,-3.4043,-3.4043,-3.3473,0.0,0.0,-3.344,-3.299,-3.3777,-3.3393,-3.2588,-3.1708,-3.2168,-3.2594,-3.1785,-3.2856,-3.3961,-3.4016,-3.3408,-3.2828,-3.2669,0.0,-3.2188,-3.1531,-3.1305,-3.0953,-3.0271,-3.0185,-3.0204,-3.0204,-3.0185,-2.9841,-2.8954,-2.9688,-2.9822,-2.8949,-2.9726,-3.0204,-3.0204,-3.0204,-3.0185,-3.0128,-2.9325,0.0,0.0,0.0,0.0,0.0,0.0,0.0,0.0,0.0,0.0,0.0,0.0,0.0,0.0,0.0,0.0,0.0,0.0,0.0,0.0,0.0,0.0,0.0,0.0,0.0,0.0,0.0,0.0,-2.9361,-2.9471,0.0,-2.9112,-2.898,-2.8815,-2.8619,-2.8432,-2.8318,-2.8318,-2.838,-2.8466,-2.8594,-2.8863,-2.9089,-2.9218,-2.9344,-2.9407,-2.9407,-2.9407,-2.9407,-2.9407,-2.9407,-2.9407,-2.9407,-2.9492,-2.957,-2.9645,-3.0137,-3.0861,-3.173,-3.2513,-3.264,-3.2448,-3.3128,-3.316,-3.3026,-3.3891,-3.4199,-3.4347,-3.5277,-3.5284,-3.4946,-3.4976,-3.471,-3.4472,-3.4774,-3.4275,-3.3571,-3.3322,-3.2651,-3.1807,-3.095,-3.0923,-3.1216,-3.1498,-3.2005,-3.255,-3.3144,-3.3891,-3.4225,-3.3624,-3.3494,-3.2981,-3.1656,-3.142,-3.11,-3.03,-3.0204,-3.0204,-3.0204,-3.0204,-3.007,-2.9765,-3.0013,-3.007,-2.9765,-3.0032,-3.0204,-3.0204,-3.0228,-3.026,-3.026,-3.0094,-2.9573,0.0,0.0,0.0,0.0,0.0,0.0,0.0,0.0,0.0,0.0,0.0,0.0,0.0,0.0,0.0,0.0,0.0,0.0,0.0,0.0,0.0,0.0,0.0,0.0,0.0,-2.8423,-2.9042,-2.9373,-2.9407,-2.9304,-2.913,-2.8998,-2.8791,-2.8518,-2.838,-2.8264,-2.8209,-2.8264,-2.8406,-2.8594,-2.8791,-2.8998,-2.9197,-2.9326,-2.9407,-2.9407,-2.9407,-2.9407,-2.9407,-2.945,-2.9471,-2.9471,-2.9626,-2.9715,-2.9801,-3.0003,-3.048,-3.1148,-3.2122,-3.2314,-3.2083,-3.2391,-3.2506,-3.2622,-3.3499,-3.3824,-3.3956,-3.456,-3.4689,-3.4629,-3.4689,-3.4604,-3.4482,-3.4496,-3.3892,-3.3101,-3.2513,-3.1747,-3.0975,-3.0387,-3.024,-3.0379,-3.0981,-3.1317,-3.1671,-3.2216,-3.3708,-3.4668,-3.4098,-3.3999,-3.3502,-3.2057,-3.1656,-3.1197,-3.03,-3.0204,-3.0204,-3.0204,-3.0204,-3.0204,-3.0204,-3.0204,-3.0213,-3.0234,-3.0234,-3.0241,-3.0311,-3.0344,-3.037,-3.037,-3.0253,-2.9892,-2.9256,0.0,0.0,0.0,0.0,0.0,0.0,0.0,0.0,0.0,0.0,0.0,0.0,0.0,0.0,0.0,0.0,0.0,0.0,0.0,0.0,0.0,0.0,0.0,-2.8685,-2.9189,-2.9551,-2.9427,-2.9407,-2.9304,-2.913,-2.9089,-2.8952,-2.8543,-2.8518,-2.8414,-2.8237,-2.8406,-2.8594,-2.8773,-2.8998,-2.9197,-2.9386,-2.9407,-2.9407,-2.9407,-2.9407,-2.9407,-2.9407,-2.9532,-2.9608,-2.9608,-2.982,-2.9977,-3.0109,-3.0109,-3.0209,-3.0475,-3.1333,-3.1141,-3.0494,-3.1352,-3.1679,-3.1819,-3.2664,-3.3064,-3.3184,-3.313,-3.3102,-3.3093,-3.3103,-3.301,-3.291,-3.2897,-3.2217,-3.1518,-3.1518,-3.0868,-3.0199,-3.0199,-3.0185,-3.0204,-3.0204,-3.0854,-3.1446,-3.1389,-3.2745,-3.3929,-3.3949,-3.3929,-3.3624,-3.2787,-3.1981,0.0,-3.03,-3.0204,-3.0204,-3.0204,-3.0204,-3.0185,-3.0199,-3.0199,-3.0234,-3.0302,-3.0314,-3.037,-3.0492,-3.0501,-3.0501,-3.051,-2.9838,-2.9467,-2.9447,0.0,0.0,0.0,0.0,0.0,0.0,0.0,0.0,0.0,0.0,0.0,0.0,0.0,0.0,0.0,0.0,0.0,0.0,0.0,0.0,0.0,-2.8718,-2.909,-2.9482,-2.9702,-2.9698,-2.9429,-2.9407,-2.9386,-2.9304,-2.9197,-2.9044,-2.8952,-2.8791,-2.8676,-2.8644,-2.8694,-2.8725,-2.8797,-2.8998,-2.913,-2.9197,-2.9344,-2.9407,-2.9407,-2.9407,-2.9407,-2.9407,-2.9532,-2.9608,-2.9626,-2.9931,-3.0066,-3.0122,-3.0254,-3.0355,-3.0417,-3.0648,-3.0609,-3.0417,-3.0679,-3.1199,-3.1815,-3.2048,-3.2608,-3.32,-3.3238,-3.3169,-3.3119,-3.3153,-3.3083,-3.2963,-3.2963,-3.237,-3.1711,-3.1672,-3.0948,-3.0273,-3.0273,-3.0247,-3.0204,-3.0204,-3.0395,-3.0548,-3.0529,-3.1427,-3.2363,-3.2974,-3.2573,-3.2095,-3.1809,-3.1064,-3.0472,-3.0223,-3.0204,-3.0204,-3.0204,-3.0204,-3.0226,-3.026,-3.0273,-3.0333,-3.0452,-3.0452,-3.0472,-3.0501,-3.0543,-3.0625,-3.0716,-3.1143,-3.1056,0.0,0.0,0.0,0.0,0.0,0.0,0.0,0.0,0.0,0.0,0.0,0.0,0.0,0.0,0.0,0.0,0.0,0.0,0.0,0.0,0.0,0.0,-2.9363,-2.9627,-2.995,-2.9851,-2.9662,-2.9429,-2.9407,-2.9407,-2.9407,-2.9283,-2.9197,-2.9108,-2.8998,-2.8887,-2.8797,-2.8797,-2.8839,-2.891,-2.9044,-2.9152,-2.9218,-2.9326,-2.9407,-2.9407,-2.9451,-2.9472,-2.9492,-2.9697,-2.9799,-2.9834,-3.0095,-3.0228,-3.0222,-3.0355,-3.0398,-3.0398,0.0,0.0,0.0,0.0,-3.081,-3.1348,-3.1348,-3.1702,-3.2205,-3.2245,-3.2205,-3.215,-3.2188,-3.2096,-3.1997,-3.1979,-3.1642,-3.1246,-3.1207,-3.079,-3.0381,-3.0381,-3.0356,-3.0316,-3.0316,-3.0316,-3.0316,-3.0316,-3.072,0.0,-3.1687,-3.1613,-3.1484,-3.1446,-3.0776,-3.0228,-3.0228,-3.0292,-3.0316,-3.0316,-3.0316,-3.0333,-3.0381,-3.0381,0.0,0.0,0.0,-3.0734,-3.1161,-3.1203,0.0,0.0,0.0,0.0,0.0,0.0,0.0,0.0,-3.2633,-3.3451,0.0,0.0,0.0,0.0,0.0,0.0,0.0,0.0,0.0,0.0,0.0,0.0,0.0,0.0,0.0,0.0,-2.9921,-3.0323,-3.0122,-2.9832,-2.9589,-2.945,-2.9407,-2.9407,-2.9407,-2.9407,-2.9344,-2.9152,-2.9112,-2.9067,-2.8887,-2.8863,0.0,0.0,0.0,-2.9218,-2.9407,-2.9409,-2.9409,-2.9429,-2.957,-2.9644,-2.9626,-2.9958,-3.0109,-3.0122,-3.0311,-3.0398,-3.0398,-3.0398,-3.039,-3.0402,-3.0402,-3.0402,-3.0425,-3.0501,-3.0586,-3.0711,-3.0711,0.0,0.0,-3.0796,-3.0807,-3.0798,-3.0806,-3.0725,-3.0614,-3.0626,-3.0576,-3.0528,-3.0528,-3.0528,-3.0519,-3.0519,-3.051,-3.0501,-3.0501,-3.0501,-3.0501,-3.0501,-3.0501,-3.0501,-3.0501,-3.0987,-3.1393,-3.1393,-3.0772,-3.0325,-3.0325,-3.0442,-3.0501,-3.0501,-3.0501,0.0,-3.0519,-3.0519,-3.0535,-3.062,-3.0626,-3.1067,-3.2051,-3.2192,-3.262,-3.3375,-3.3492,-3.3531,-3.3531,-3.4252,-3.4272,-3.3687,-3.3459,-3.4225,0.0,0.0,0.0,0.0,0.0,0.0,0.0,0.0,0.0,0.0,0.0,0.0,0.0,0.0,0.0,-3.0067,-3.0294,-3.0323,-3.0122,-3.0032,-2.9896,-2.9589,-2.9471,-2.9407,-2.9407,-2.9407,-2.9386,-2.9326,-2.9326,-2.9326,-2.9283,-2.9283,-2.9304,-2.9344,-2.9326,-2.9365,-2.9407,-2.9512,-2.957,-2.9551,-2.9751,0.0,-2.9853,-3.0022,-3.0109,-3.0122,-3.0311,-3.0398,-3.0398,-3.0398,-3.0428,-3.0492,-3.0492,-3.0492,-3.0482,-3.056,-3.0626,-3.0711,-3.0711,-3.0735,-3.0801,-3.0799,-3.0799,-3.0794,-3.0801,-3.079,0.0,-3.0755,-3.0759,-3.0748,-3.0748,-3.0652,-3.0571,-3.0571,-3.0535,-3.0501,-3.0501,-3.0501,-3.0501,-3.0501,-3.0501,-3.0501,-3.0501,-3.0617,-3.0683,-3.0683,-3.0549,-3.0472,-3.0472,-3.0482,-3.0501,-3.0501,-3.0501,-3.0509,-3.0583,-3.0571,-3.062,-3.0745,-3.0764,-3.1164,-3.2055,-3.2776,-3.3225,-3.3395,-3.4038,-3.4369,-3.4369,-3.4525,-3.4876,-3.5402,-3.467,-3.4514,0.0,0.0,0.0,0.0,0.0,0.0,0.0,0.0,0.0,0.0,0.0,-2.8525,-2.9265,0.0,-3.007,-3.0404,-3.0425,-3.0367,-3.0254,-2.9825,-2.9565,-2.9729,-2.9699,-2.9664,-2.9664,-2.957,-2.9492,-2.9492,-2.945,-2.9407,-2.9407,-2.9471,-2.9492,-2.9492,-2.9608,-2.9664,-2.9664,-2.9716,-2.9751,-2.9751,-2.9915,-2.9992,-3.0007,-3.0169,-3.0254,-3.0254,-3.0355,-3.0425,-3.0441,-3.0501,-3.0528,-3.056,-3.0598,-3.0593,-3.06,-3.0633,-3.0682,-3.0758,-3.0758,-3.0768,-3.0801,-3.0801,-3.0799,-3.0796,-3.0807,-3.0801,-3.0794,-3.0798,-3.0793,-3.0808,-3.0804,-3.0745,-3.0703,-3.0703,-3.0678,-3.0651,-3.0651,-3.0651,-3.0651,-3.0651,-3.0651,-3.0651,-3.0651,-3.0651,-3.0622,-3.051,-3.0518,-3.0552,-3.0552,-3.0603,-3.0651,-3.0651,-3.0651,-3.0665,-3.0697,-3.0703,-3.0734,-3.0799,-3.0799,-3.1193,-3.2055,-3.2523,-3.2952,-3.3395,-3.4194,-3.4603,-3.4603,-3.5032,-3.546,-3.5889,-3.5012,-3.5071,0.0,0.0,0.0,0.0,0.0,0.0,0.0,-2.754,-2.7652,-2.8585,-2.9342,-2.9826,-2.9747,-3.0219,-3.0593,-3.0527,-3.0462,-3.0367,-3.0194,-2.9461,-2.9082,-2.9464,-2.944,-2.945,-2.962,-2.9506,-2.9474,-2.9644,-2.957,-2.951,-2.951,-2.9608,-2.9662,-2.9662,-2.982,-2.9902,-2.9902,-2.9934,-2.995,-2.995,-3.008,-3.0169,-3.015,-3.0343,-3.0421,-3.0425,-3.0428,-3.0472,-3.0518,-3.0586,-3.0614,-3.0626,-3.0682,-3.0724,-3.0724,-3.0724,-3.0742,-3.0801,-3.0801,-3.0801,-3.0801,-3.0801,-3.0799,-3.0794,-3.0794,-3.0807,-3.0798,-3.0806,-3.0806,-3.0802,-3.0808,-3.0808,-3.0808,-3.0804,-3.0804,-3.0804,-3.0799,-3.0799,-3.0799,-3.0799,-3.0804,-3.0804,-3.0799,-3.0804,-3.0734,-3.0579,-3.0591,-3.0633,-3.0633,-3.0734,-3.0799,-3.0799,-3.0799,-3.0799,-3.0799,-3.0799,-3.0799,-3.0799,-3.0799,-3.1193,-3.2055,-3.2094,-3.2504,-3.3375,-3.4194,-3.4603,-3.4603,-3.5466,-3.5894,-3.5889,-3.5173,-3.5621,-2.8909,-2.7597,-2.6687,-2.8296,-2.7653,-2.7257,0.0,-2.9674,-2.9386,-3.0323,-3.0644,-3.0712,-3.0587,-3.0634,-3.0661,-3.0593,-3.0527,-3.0211,-2.9438,-2.9195,-2.8848,-2.8203,-2.7812,-2.7884,-2.8676,-2.8736,-2.9039,-2.9813,-2.9853,-2.9836,-2.9836,-2.9853,-2.9869,-2.9869,-2.9886,-2.9902,-2.9902,-3.0022,-3.008,-3.008,-3.0267,-3.0367,-3.0367,-3.0398,-3.0428,-3.0482,-3.0552,-3.0571,-3.0586,-3.0656,-3.0682,-3.0706,-3.0765,-3.0796,-3.0796,-3.0796,-3.0799,-3.0801,-3.0801,-3.0801,-3.0801,-3.0801,-3.0799,-3.0799,-3.0794,-3.0791,-3.081,-3.0801,-3.0798,-3.0794,-3.0802,-3.0806,-3.081,-3.0808,-3.0789,-3.0798,-3.0804,-3.0799,-3.0799,-3.0799,-3.0789,-3.0793,-3.0804,-3.0793,-3.0793,-3.0769,-3.0769,-3.0774,-3.0774,-3.0799,-3.0799,-3.0799,-3.0799,-3.0799,-3.0799,-3.0799,-3.0799,-3.0799,-3.0799,-3.1193,-3.2055,-3.2094,-3.2504,-3.3375,-3.4194,-3.4603,-3.4603,-3.5471,-3.5899,-3.5908,-3.5802,-3.586,-2.7672,-2.7651,-2.7504,-2.744,-2.7687,-2.8014,-2.8315,-2.8449,-2.8677,-2.9175,-2.9303,-2.9469,-2.992,-2.9581,-2.9409,-2.9877,-2.9486,-2.8971,-2.8616,-2.8097,-2.7624,-2.7255,-2.7059,-2.7282,-2.8122,-2.8088,-2.8375,-2.9246,-2.9213,-2.9355,-2.9883,-2.9962,-3.0022,-3.0022,-3.0133,-3.0188,-3.0188,-3.026,-3.0267,-3.0286,-3.0355,-3.0425,-3.0451,-3.0451,-3.0492,-3.0568,-3.0626,-3.0656,-3.0661,-3.0728,-3.0762,-3.0765,-3.0796,-3.0801,-3.0801,-3.0801,-3.0801,-3.0801,-3.0801,-3.0801,-3.0801,-3.0801,-3.0801,-3.0799,-3.0799,-3.0796,-3.0796,-3.0807,-3.0807,-3.0804,-3.0794,-3.0794,-3.0798,-3.0806,-3.0806,-3.079,-3.0806,-3.0802,-3.0802,-3.0802,-3.0806,-3.081,-3.0806,-3.081,-3.081,-3.0806,-3.0793,-3.0799,-3.0799,-3.0799,-3.0799,-3.0799,-3.0799,-3.0799,-3.0799,-3.0799,-3.0799,-3.0799,-3.0799,-3.0955,-3.133,-3.1836,-3.227,-3.264,-3.3921,-3.4628,-3.4657,-3.549,-3.5924,-3.5953,-3.5924,-3.5899,-2.6749,-2.7287,-2.7478,-2.6658,-2.7314,-2.795,-2.7123,-2.7439,-2.7942,-2.8085,-2.8158,-2.8398,-2.9023,-2.8631,-2.841,-2.9036,-2.8564,-2.8042,-2.7793,-2.7214,-2.6776,-2.6734,-2.6738,-2.7047,-2.7875,-2.7788,-2.8141,-2.9225,-2.896,-2.9131,-2.9988,-3.0128,-3.0182,-3.0182,-3.0328,-3.0436,-3.0436,-3.0449,-3.046,-3.046,-3.046,-3.0492,-3.0518,-3.0543,-3.0571,-3.0626,-3.0706,-3.0728,-3.0728,-3.0774,-3.0801,-3.0801,-3.0801,-3.0801,-3.0801,-3.0801,-3.0801,-3.0801,-3.0801,-3.0801,-3.0801,-3.0801,-3.0801,-3.0801,-3.0801,-3.0801,-3.0799,-3.0796,-3.0794,-3.0794,-3.0804,-3.0804,-3.0804,-3.0801,-3.0801,-3.0801,-3.0798,-3.0798,-3.0798,-3.0798,-3.0801,-3.0801,-3.0798,-3.0801,-3.0801,-3.0798,-3.0806,-3.0789,-3.0808,-3.0808,-3.0804,-3.0799,-3.0804,-3.0804,-3.0799,-3.0799,-3.0799,-3.0799,-3.0793,-3.0793,-3.0799,-3.1631,-3.2104,-3.2094,-3.3751,-3.4652,-3.4701,-3.5539,-3.5953,-3.6005,-3.5953,-3.5929,-2.6799,-2.6302,-2.6018,-2.6951,-2.6734,-2.6521,-2.737,-2.7729,-2.7907,-2.7915,-2.8061,-2.8212,-2.8232,-2.8218,-2.8219,-2.8239,-2.8222,-2.7903,-2.7062,-2.6851,-2.6807,-2.6807,-2.6796,-2.7142,-2.8016,-2.798,-2.8582,-3.0225,-2.9571,-2.9475,-3.034,-3.0398,-3.0398,-3.0398,-3.0462,-3.0492,-3.0492,-3.0568,-3.0586,-3.0586,-3.0586,-3.0586,-3.0593,-3.0661,-3.0706,-3.0691,-3.0768,-3.0799,-3.0799,-3.0801,-3.0801,-3.0801,-3.0801,-3.0801,-3.0801,-3.0801,-3.0801,-3.0801,-3.0801,-3.0801,-3.0801,-3.0801,-3.0801,-3.0801,-3.0801,-3.0801,-3.0801,-3.0801,-3.0801,-3.0799,-3.0794,-3.0796,-3.0796,-3.0801,-3.0804,-3.081,-3.0801,-3.0798,-3.0798,-3.0798,-3.0807,-3.081,-3.0801,-3.0807,-3.081,-3.0801,-3.0798,-3.0794,-3.0802,-3.0802,-3.0798,-3.0804,-3.0793,-3.0793,-3.0804,-3.0799,-3.0799,-3.0799,-3.0794,-3.0798,-3.0804,-3.1633,-3.2104,-3.2094,-3.3819,-3.4701,-3.4701,-3.5561,-3.5994,-3.6005,-3.5994,-3.5994,-2.4577,-2.5006,-2.5307,-2.5913,-2.5568,-2.5189,-2.5579,-2.5381,-2.5283,-2.5915,-2.614,-2.6389,-2.7025,-2.6689,-2.6559,-2.7225,-2.6849,-2.6396,-2.6133,-2.6074,-2.6268,-2.6808,-2.7381,-2.8061,-2.8884,-2.8403,-2.8509,-2.9644,-2.945,-2.9663,-3.0488,-3.0527,-3.0527,-3.0527,-3.056,-3.0576,-3.0576,-3.0579,-3.0593,-3.0593,-3.0645,-3.0661,-3.0667,-3.0732,-3.0768,-3.0768,-3.0796,-3.0801,-3.0801,-3.0801,-3.0801,-3.0801,-3.0801,-3.079,-3.0798,-3.0798,-3.0801,-3.08,-3.0792,-3.0801,-3.0801,-3.0801,-3.0801,-3.0801,-3.0801,-3.0801,-3.0801,-3.0801,-3.0792,-3.0797,-3.0804,-3.0798,-3.08,-3.0798,-3.08,-3.08,-3.08,-3.08,-3.0798,-3.0801,-3.08,-3.0799,-3.08,-3.08,-3.08,-3.0801,-3.0806,-3.0798,-3.0794,-3.0794,-3.079,-3.0806,-3.0794,-3.0796,-3.081,-3.0791,-3.0794,-3.081,-3.1344,-3.1656,-3.1664,-3.2494,-3.3239,-3.3813,-3.4362,-3.4931,-3.5561,-3.5821,-3.596,-3.6004,-3.596,-3.5957,-2.2905,-2.3534,-2.3945,-2.4022,-2.3749,-2.3574,-2.4036,-2.3836,-2.3812,-2.4759,-2.503,-2.5297,-2.5928,-2.5934,-2.5948,-2.626,-2.6173,-2.5965,-2.5704,-2.5931,-2.6434,-2.7264,-2.8125,-2.8998,-2.9815,-2.9398,-2.9275,-2.9791,-2.9551,-2.9745,-3.0554,-3.0593,-3.0593,-3.0593,-3.062,-3.0633,-3.0633,-3.0656,-3.0661,-3.0667,-3.072,-3.0732,-3.0732,-3.0784,-3.0792,-3.0793,-3.0798,-3.0799,-3.0799,-3.0799,-3.0799,-3.0799,-3.0799,-3.0801,-3.0798,-3.0798,-3.0793,-3.0806,-3.0801,-3.0799,-3.0799,-3.0799,-3.0799,-3.0799,-3.0799,-3.0799,-3.0799,-3.0799,-3.0801,-3.08,-3.08,-3.0798,-3.0804,-3.0796,-3.0792,-3.0801,-3.0801,-3.0792,-3.0796,-3.0804,-3.0792,-3.0796,-3.0804,-3.0801,-3.0801,-3.0806,-3.0801,-3.0793,-3.0771,-3.079,-3.0792,-3.0769,-3.0799,-3.08,-3.0771,-3.0759,-3.0897,-3.1202,-3.1752,-3.2201,-3.253,-3.3378,-3.4081,-3.4656,-3.4938,-3.5369,-3.597,-3.5915,-3.5914,-3.5966,-3.5947,-3.596,-2.1762,-2.1917,-2.1979,-2.147,-2.1425,-2.1787,-2.2828,-2.3126,-2.3487,-2.4475,-2.4795,-2.493,-2.5061,-2.5909,-2.6318,-2.5487,-2.6246,-2.6668,-2.582,-2.6443,-2.7279,-2.8165,-2.8985,-2.984,-3.072,-3.0781,-3.0732,-3.0613,-2.9894,-2.9797,-3.0568,-3.0607,-3.0607,-3.0607,-3.0667,-3.0711,-3.0711,-3.0768,-3.0801,-3.0801,-3.0804,-3.0804,-3.0806,-3.08,-3.0801,-3.0801,-3.079,-3.0801,-3.0801,-3.0801,-3.0801,-3.0801,-3.0801,-3.0799,-3.0799,-3.0799,-3.0799,-3.0796,-3.0796,-3.0799,-3.0801,-3.0801,-3.0801,-3.0801,-3.0801,-3.0801,-3.0801,-3.0801,-3.0799,-3.0799,-3.0799,-3.0799,-3.0796,-3.0799,-3.0796,-3.0796,-3.0796,-3.0796,-3.0799,-3.0796,-3.0796,-3.0796,-3.0796,-3.0796,-3.0796,-3.0796,-3.0836,-3.0821,-3.0717,-3.0754,-3.0772,-3.0718,-3.0753,-3.0771,-3.0718,-3.0737,-3.1127,-3.1945,-3.2087,-3.2494,-3.3328,-3.4156,-3.4625,-3.4679,-3.5437,-3.5867,-3.5906,-3.5896,-3.5898,-3.5898,-3.5968,-3.5996,-1.9908,-2.033,-2.058,-2.0625,-2.0451,-2.0693,-2.2351,-2.2337,-2.2406,-2.4059,-2.451,-2.4651,-2.478,-2.5582,-2.6193,-2.606,-2.6907,-2.7518,-2.7329,-2.7582,-2.8119,-2.8991,-2.9284,-2.9764,-3.0643,-3.0726,-3.0735,-3.0742,-3.055,-3.0524,-3.0739,-3.0758,-3.0758,-3.0758,-3.0765,-3.0771,-3.0771,-3.0793,-3.08,-3.08,-3.08,-3.0796,-3.0796,-3.0792,-3.081,-3.081,-3.0804,-3.0801,-3.0801,-3.0801,-3.0801,-3.0801,-3.0801,-3.0768,-3.0724,-3.0724,-3.0721,-3.0722,-3.0722,-3.0759,-3.0801,-3.0801,-3.0801,-3.0801,-3.0801,-3.0801,-3.0801,-3.0801,-3.0765,-3.0747,-3.0796,-3.0763,-3.0734,-3.0735,-3.0735,-3.0722,-3.0722,-3.0735,-3.073,-3.0734,-3.0722,-3.0722,-3.0722,-3.0722,-3.0722,-3.0722,-3.1287,-3.1476,-3.086,-3.0784,-3.0784,-3.0786,-3.0746,-3.0739,-3.0765,-3.1311,-3.1776,-3.2051,-3.3258,-3.4039,-3.4256,-3.4484,-3.4913,-3.5567,-3.5155,-3.5248,-3.5899,-3.59,-3.5903,-3.5906,-3.5911,-3.5936,-1.928,-1.9706,-2.002,-1.9733,-1.9746,-2.0188,-2.1512,-2.2096,-2.2692,-2.3817,-2.4468,-2.4782,-2.4566,-2.5656,-2.6473,-2.6181,-2.7307,-2.813,-2.7804,-2.8142,-2.8627,-2.9209,-2.9621,-3.0042,-3.0609,-3.0681,-3.0712,-3.0752,-3.0779,-3.08,-3.08,-3.08,-3.08,-3.08,-3.08,-3.08,-3.08,-3.08,-3.0797,-3.0797,-3.0808,-3.0801,-3.0799,-3.0768,-3.0758,-3.0758,-3.0763,-3.0754,-3.0754,-3.0754,-3.0754,-3.0754,-3.0754,-3.0735,-3.0709,-3.0689,-3.071,-3.069,-3.069,-3.0722,-3.0754,-3.0754,-3.0754,-3.0754,-3.0754,-3.0754,-3.0754,-3.0754,-3.073,-3.0714,-3.0745,-3.0728,-3.0704,-3.0697,-3.0698,-3.069,-3.069,-3.0704,-3.0697,-3.0697,-3.069,-3.069,-3.069,-3.069,-3.069,-3.069,-3.1118,-3.1398,-3.1349,-3.1666,-3.1899,-3.1899,-3.1855,-3.1868,-3.1899,-3.2302,-3.2745,-3.3127,-3.4043,-3.4725,-3.5115,-3.5126,-3.5359,-3.5855,-3.5379,-3.5379,-3.5855,-3.5894,-3.5904,-3.5892,-3.5907,-3.5903,-1.9238,-1.9541,-1.9754,-1.8775,-1.9203,-2.0001,-2.057,-2.2028,-2.3315,-2.3566,-2.4399,-2.4917,-2.4339,-2.5816,-2.6881,-2.6167,-2.7665,-2.8665,-2.8011,-2.8515,-2.9027,-2.921,-2.9994,-3.0586,-3.0727,-3.0892,-3.0989,-3.1031,-3.109,-3.1022,-3.0799,-3.0799,-3.0801,-3.0801,-3.0801,-3.0801,-3.0801,-3.0796,-3.0794,-3.0794,-3.0791,-3.0788,-3.0788,-3.0735,-3.0691,-3.0691,-3.0698,-3.069,-3.069,-3.069,-3.069,-3.069,-3.069,-3.069,-3.069,-3.069,-3.069,-3.069,-3.069,-3.069,-3.069,-3.069,-3.069,-3.069,-3.069,-3.069,-3.069,-3.069,-3.069,-3.069,-3.069,-3.069,-3.069,-3.069,-3.069,-3.069,-3.069,-3.069,-3.069,-3.069,-3.069,-3.069,-3.069,-3.069,-3.069,-3.069,-3.0807,-3.1156,-3.1895,-3.2672,-3.3177,-3.3293,-3.3293,-3.3293,-3.3293,-3.339,-3.3759,-3.4459,-3.4614,-3.5002,-3.5779,-3.5799,-3.5799,-3.5799,-3.5799,-3.5799,-3.5799,-3.5866,-3.5839,-3.5722,-3.5834,-3.5848,-1.8841,-1.8999,-1.8691,-1.7964,-1.8697,-1.9677,-2.0042,-2.1073,-2.2167,-2.3041,-2.362,-2.3937,-2.3834,-2.5439,-2.6804,-2.6803,-2.831,-2.9481,-2.9504,-2.9717,-2.9879,-2.9926,-3.0691,-3.1289,-3.1405,-3.2092,-3.2589,-3.2757,-3.2773,-3.2175,-3.0791,-3.078,-3.0801,-3.0801,-3.0801,-3.0801,-3.0801,-3.0755,-3.0715,-3.0715,-3.0714,-3.073,-3.073,-3.0717,-3.0691,-3.0691,-3.0697,-3.069,-3.069,-3.069,-3.069,-3.069,-3.069,-3.069,-3.069,-3.069,-3.069,-3.069,-3.069,-3.069,-3.069,-3.069,-3.069,-3.069,-3.069,-3.069,-3.069,-3.069,-3.069,-3.069,-3.069,-3.069,-3.069,-3.069,-3.069,-3.069,-3.069,-3.069,-3.069,-3.069,-3.069,-3.069,-3.069,-3.069,-3.069,-3.069,-3.1312,-3.1836,-3.1984,-3.2128,-3.2497,-3.3215,-3.3293,-3.3293,-3.3293,-3.3915,-3.4342,-3.4478,-3.5177,-3.5643,-3.5799,-3.5799,-3.5799,-3.5799,-3.5799,-3.5799,-3.5799,-3.5807,-3.5453,-3.4754,-3.5546,-3.5515,-1.8097,-1.8555,-1.8827,-1.8578,-1.9291,-2.0067,-2.0007,-2.1261,-2.2473,-2.2616,-2.3365,-2.3927,-2.3647,-2.478,-2.5983,-2.663,-2.7941,-2.9064,-2.9588,-2.9787,-3.0073,-3.0567,-3.0985,-3.1314,-3.1468,-3.2248,-3.2615,-3.2281,-3.2639,-3.2627,-3.202,-3.1596,-3.1393,-3.1422,-3.0974,-3.074,-3.074,-3.0714,-3.0697,-3.0697,-3.0711,-3.069,-3.069,-3.069,-3.069,-3.069,-3.069,-3.069,-3.069,-3.069,-3.069,-3.069,-3.069,-3.069,-3.069,-3.069,-3.069,-3.069,-3.069,-3.069,-3.069,-3.069,-3.069,-3.069,-3.069,-3.069,-3.069,-3.069,-3.069,-3.069,-3.069,-3.069,-3.069,-3.069,-3.069,-3.069,-3.069,-3.069,-3.069,-3.069,-3.069,-3.069,-3.069,-3.069,-3.069,-3.069,-3.1059,-3.1487,-3.1953,-3.2004,-3.2497,-3.3798,-3.4323,-3.4595,-3.4595,-3.4944,-3.5177,-3.5177,-3.5566,-3.5799,-3.5799,-3.5352,-3.5119,-3.5119,-3.4711,-3.4497,-3.4497,-3.4497,-3.4497,-3.4497,-3.497,-3.5198,-1.7675,-1.8287,-1.8876,-1.8994,-1.9734,-2.0327,-1.9878,-2.136,-2.2723,-2.2197,-2.3081,-2.3847,-2.3401,-2.4139,-2.5163,-2.6242,-2.7366,-2.8364,-2.9221,-2.9511,-2.9983,-3.0882,-3.1182,-3.1459,-3.1832,-3.261,-3.2778,-3.1985,-3.2359,-3.2781,-3.3122,-3.2492,-3.21,-3.1977,-3.1331,-3.0982,-3.0982,-3.0982,-3.1059,-3.1254,-3.1254,-3.1254,-3.1254,-3.1254,-3.1254,-3.1254,-3.1059,-3.0982,-3.0962,-3.0768,-3.069,-3.069,-3.069,-3.069,-3.069,-3.069,-3.069,-3.069,-3.069,-3.0683,-3.0676,-3.0676,-3.0683,-3.069,-3.069,-3.069,-3.069,-3.069,-3.069,-3.069,-3.069,-3.069,-3.069,-3.069,-3.069,-3.069,-3.069,-3.069,-3.069,-3.069,-3.069,-3.069,-3.069,-3.069,-3.069,-3.069,-3.069,-3.0943,-3.1623,-3.1875,-3.2497,-3.3818,-3.475,-3.5255,-3.5255,-3.5255,-3.5255,-3.5255,-3.5255,-3.5255,-3.5255,-3.4614,-3.4245,-3.4245,-3.3623,-3.3293,-3.3293,-3.3293,-3.3526,-3.3973,-3.4167,-3.4614,-1.8186,-1.8249,-1.7978,-1.787,-1.8909,-1.9802,-1.915,-2.0432,-2.1724,-2.1658,-2.2304,-2.2833,-2.2764,-2.3781,-2.4956,-2.5963,-2.7045,-2.8088,-2.8993,-2.9293,-2.9731,-3.0555,-3.1444,-3.2373,-3.3315,-3.4187,-3.441,-3.3719,-3.3062,-3.276,-3.2929,-3.2905,-3.26,-3.1934,-3.188,-3.1875,-3.1875,-3.1875,-3.2283,-3.306,-3.306,-3.306,-3.306,-3.306,-3.306,-3.3021,-3.2225,-3.1875,-3.1817,-3.102,-3.069,-3.069,-3.069,-3.069,-3.069,-3.069,-3.069,-3.069,-3.069,-3.0661,-3.0613,-3.0613,-3.0645,-3.069,-3.069,-3.069,-3.069,-3.069,-3.069,-3.069,-3.069,-3.069,-3.069,-3.069,-3.069,-3.069,-3.069,-3.069,-3.069,-3.069,-3.069,-3.069,-3.069,-3.069,-3.069,-3.069,-3.069,-3.0729,-3.0807,-3.1506,-3.2062,-3.2205,-3.3002,-3.3526,-3.3526,-3.3526,-3.3526,-3.3526,-3.3526,-3.3526,-3.3526,-3.3448,-3.341,-3.341,-3.3332,-3.3293,-3.3293,-3.3293,-3.2924,-3.2244,-3.3041,-3.3448,-1.7412,-1.7679,-1.7774,-1.8097,-1.8654,-1.909,-1.9087,-1.9791,-2.0552,-2.0878,-2.1491,-2.2027,-2.2192,-2.2867,-2.3884,-2.5392,-2.6237,-2.7191,-2.8512,-2.8997,-2.9755,-3.1201,-3.1731,-3.2381,-3.3391,-3.424,-3.4411,-3.3658,-3.2807,-3.2402,-3.2577,-3.2242,-3.1922,-3.1664,-3.1193,-3.0944,-3.0975,-3.0492,-3.0685,-3.1545,-3.1061,-3.1352,-3.231,-3.1797,-3.1835,-3.229,-3.1513,-3.1161,-3.1122,-3.0773,-3.0637,-3.0637,-3.0557,-3.0519,-3.0519,-3.0519,-3.0519,-3.0519,-3.0519,-3.0501,-3.0472,-3.0472,-3.0492,-3.0519,-3.0519,-3.0519,-3.0519,-3.0519,-3.0519,-3.0519,-3.0519,-3.0519,-3.0519,-3.0519,-3.0519,-3.0519,-3.0519,-3.0519,-3.0519,-3.0519,-3.0519,-3.0519,-3.0519,-3.0519,-3.0519,-3.0519,-3.0519,-3.0519,-3.0519,-3.0829,-3.1042,-3.1042,-3.2399,-3.3293,-3.3293,-3.3293,-3.3293,-3.3293,-3.3293,-3.3293,-3.3293,-3.2807,-3.2516,-3.2516,-3.1992,-3.1739,-3.1739,-3.1739,-3.1836,-3.2004,-3.2361,-3.2807,-1.69,-1.7145,-1.7374,-1.7956,-1.8252,-1.8472,-1.8907,-1.9361,-1.9834,-2.033,-2.0926,-2.1399,-2.1609,-2.2062,-2.2894,-2.4424,-2.5384,-2.6411,-2.7803,-2.8549,-2.9572,-3.1177,-3.1429,-3.1834,-3.2866,-3.3304,-3.3175,-3.2367,-3.1504,-3.1054,-3.1219,-3.0763,-3.082,-3.1443,-3.0887,-3.0606,-3.0636,-2.984,-2.9863,-3.0717,-3.0169,-3.0527,-3.1653,-3.1328,-3.1502,-3.2042,-3.1255,-3.0936,-3.0917,-3.0646,-3.0549,-3.052,-3.0442,-3.0402,-3.0402,-3.0402,-3.0402,-3.0402,-3.0402,-3.0392,-3.037,-3.037,-3.0367,-3.0344,-3.0344,-3.0359,-3.0402,-3.0402,-3.0402,-3.0402,-3.0402,-3.0402,-3.0402,-3.0402,-3.0402,-3.0402,-3.0402,-3.0402,-3.0402,-3.0402,-3.0402,-3.0402,-3.0402,-3.0402,-3.0402,-3.0402,-3.0402,-3.0402,-3.0402,-3.0402,-3.0402,-3.0402,-3.1632,-3.2449,-3.2512,-3.2493,-3.252,-3.2536,-3.2536,-3.2536,-3.2536,-3.1933,-3.1623,-3.1623,-3.1001,-3.069,-3.069,-3.069,-3.102,-3.1623,-3.1623,-3.2089,-1.7042,-1.6794,-1.6519,-1.7068,-1.7516,-1.7908,-1.8383,-1.914,-1.9798,-2.023,-2.0698,-2.1007,-2.1007,-2.1488,-2.2195,-2.3081,-2.4507,-2.5862,-2.6879,-2.7994,-2.9077,-3.0003,-3.0286,-3.0802,-3.1815,-3.131,-3.0603,-2.9795,-2.8932,-2.8444,-2.8426,-2.8426,-2.9347,-3.1345,-3.1462,-3.1488,-3.1488,-3.0618,-3.0631,-3.1488,-3.1549,-3.1573,-3.163,-3.2543,-3.299,-3.2952,-3.2072,-3.1695,-3.1618,-3.0749,-3.0402,-3.0402,-3.0402,-3.0402,-3.0402,-3.0402,-3.0402,-3.0402,-3.0402,-3.0367,-3.0304,-3.0304,-3.026,-3.0199,-3.0199,-3.0304,-3.0402,-3.0402,-3.0402,-3.0402,-3.0402,-3.0402,-3.0402,-3.0402,-3.0402,-3.0402,-3.0402,-3.0402,-3.0402,-3.0402,-3.0402,-3.0402,-3.0402,-3.0402,-3.0402,-3.0402,-3.0402,-3.0402,-3.0402,-3.0402,-3.0402,-3.0402,-3.0422,-3.0482,-3.0615,-3.0643,-3.0668,-3.0729,-3.0729,-3.0729,-3.0729,-3.071,-3.071,-3.071,-3.069,-3.069,-3.069,-3.069,-3.069,-3.071,-3.071,-3.1176,-1.6188,-1.6341,-1.6519,-1.6685,-1.706,-1.7516,-1.7908,-1.8486,-1.9006,-1.9391,-1.9984,-2.0548,-2.0795,-2.1229,-2.2054,-2.3577,-2.453,-2.5559,-2.6874,-2.7748,-2.8675,-2.9642,-3.0638,-3.1131,-3.0898,-3.0288,-2.949,-2.861,-2.7848,-2.7437,-2.7437,-2.7437,-2.8032,-2.9309,-2.9363,-2.9131,-2.8639,-2.7804,-2.7852,-2.8765,-2.8736,-2.936,-3.0509,-3.0772,-3.1236,-3.1776,-3.1015,-3.0701,-3.0717,-3.0448,-3.0333,-3.0321,-3.0279,-3.0254,-3.0254,-3.0254,-3.0254,-3.0254,-3.0254,-3.0247,-3.0221,-3.0221,-3.0213,-3.0204,-3.0204,-3.024,-3.0254,-3.0254,-3.0254,-3.0254,-3.0254,-3.0254,-3.0254,-3.0254,-3.0254,-3.0254,-3.0254,-3.0254,-3.0254,-3.0254,-3.0254,-3.0254,-3.0254,-3.0254,-3.0254,-3.0254,-3.0254,-3.0254,-3.0254,-3.0254,-3.0254,-3.0254,-3.0254,-3.0316,-3.0452,-3.0462,-3.0472,-3.0501,-3.0482,-3.0482,-3.0482,-3.0482,-3.0482,-3.0482,-3.0585,-3.0629,-3.0629,-3.0676,-3.069,-3.069,-3.069,-3.0846,-1.602,-1.6423,-1.6735,-1.6552,-1.6863,-1.7323,-1.772,-1.8028,-1.8344,-1.8784,-1.9369,-1.9874,-2.012,-2.073,-2.1633,-2.3063,-2.4104,-2.5206,-2.6623,-2.7502,-2.8281,-2.9114,-3.0021,-3.0254,-2.9443,-2.9058,-2.8361,-2.7152,-2.6674,-2.6433,-2.6433,-2.6433,-2.6693,-2.7289,-2.7734,-2.7729,-2.7269,-2.6459,-2.6359,-2.693,-2.7244,-2.7941,-2.9001,-2.9623,-3.0205,-3.0744,-3.0289,-3.0099,0.0,-3.0202,-3.0215,-3.0234,-3.0199,-3.0204,-3.0204,-3.0204,-3.0204,-3.0204,-3.0204,-3.0171,-3.0161,-3.0161,-3.0128,-3.0098,-3.0098,-3.0142,-3.0204,-3.0204,-3.0204,-3.0204,-3.0204,-3.0204,-3.0204,-3.0204,-3.0204,-3.0204,-3.0204,-3.0204,-3.0204,-3.0204,-3.0204,-3.0204,-3.0204,-3.0204,-3.0204,-3.0204,-3.0204,-3.0204,-3.0204,-3.0204,-3.0204,-3.0204,-3.0204,-3.0221,-3.0309,-3.0356,-3.037,-3.0402,-3.0402,-3.0402,-3.0402,-3.0402,-3.0402,-3.0402,-3.0472,-3.052,-3.052,-3.0629,-3.0661,-3.0661,-3.0683,-3.069,0.0,-1.6765,-1.7031,-1.6607,-1.6863,-1.7323,-1.7679,-1.7787,0.0,-1.8344,-1.8784,-1.9078,-1.9197,-2.0091,-2.1061,-2.1975,-2.3391,-2.4828,-2.6167,-2.7181,-2.7989,-2.8484,-2.8707,-2.8461,-2.7638,-2.7724,-2.7128,-2.5503,-2.5392,-2.5392,-2.5392,-2.5392,-2.5411,-2.5411,-2.643,-2.7,-2.7,-2.6266,-2.5906,-2.5925,-2.6852,-2.7283,-2.7339,-2.9082,-2.9872,-2.9872,-2.9888,-2.9907,-2.9905,-3.0038,-3.0087,-3.0102,-3.0142,-3.0171,-3.0171,-3.0171,-3.0171,-3.0171,-3.0171,-3.0147,-3.0087,-3.0087,-3.0007,-2.9888,-2.9888,-3.0034,-3.0185,-3.0185,-3.0204,-3.0204,-3.0204,-3.0204,-3.0204,-3.0204,-3.0204,-3.0204,-3.0204,-3.0204,-3.0204,-3.0204,-3.0204,-3.0204,-3.0204,-3.0204,-3.0204,-3.0204,-3.0204,-3.0204,-3.0204,-3.0204,-3.0204,-3.0204,-3.0204,-3.0204,-3.0204,-3.026,-3.0321,-3.0381,-3.0392,-3.0392,-3.0392,-3.0392,-3.0392,-3.0392,-3.0392,-3.0402,-3.0402,-3.054,-3.0595,-3.0595,-3.0661,-3.069,-1.525,0.0,-1.665,-1.6522,-1.6863,-1.724,0.0,-1.7598,-1.7828,-1.7948,-1.8344,-1.8951,-2.0041,-2.0467,-2.1253,-2.3091,-2.377,-2.4522,-2.5758,-2.6977,-2.7789,-2.7904,-2.7805,-2.7357,-2.635,-2.6063,-2.5447,-2.4285,-2.435,-2.4427,-2.4427,-2.4427,-2.4485,-2.458,-2.4838,-2.5039,-2.5123,-2.5054,-2.5008,-2.5027,-2.6507,-2.7133,-2.7064,-2.8913,-2.97,-2.9588,-2.9753,-2.9857,-2.9888,-2.994,-2.9956,-2.9956,-2.9953,-2.9972,-2.9972,-2.9972,-2.9972,-2.9972,-2.9972,-2.9972,-2.9956,-2.9956,-2.994,-2.9888,-2.9888,-3.0003,-3.0117,-3.0117,-3.0161,-3.0204,-3.0204,-3.0204,-3.0204,-3.0204,-3.0204,-3.0204,-3.0204,-3.0204,-3.0204,-3.0204,-3.0204,-3.0204,-3.0204,-3.0204,-3.0204,-3.0204,-3.0204,-3.0204,-3.0204,-3.0204,-3.0204,-3.0204,-3.0204,-3.0204,-3.0204,-3.0213,-3.024,-3.0247,-3.0247,-3.0247,-3.0247,-3.0247,-3.0247,-3.0247,-3.0304,-3.0356,-3.0402,-3.0423,-3.0452,-3.0452,-3.0567,-3.0621,-1.478,-1.5599,-1.6386,-1.6206,-1.652,-1.6917,-1.7135,-1.72,-1.7256,-1.7475,-1.7868,-1.8486,-1.9555,-2.0011,-2.0798,-2.2591,-2.3273,-2.4141,-2.5757,-2.6756,-2.7222,-2.7087,-2.6994,-2.6445,-2.5128,-2.5015,-2.4577,-2.3549,-2.3774,-2.4081,-2.432,-2.4096,-2.4142,-2.4606,-2.4355,-2.4266,-2.441,-2.4497,-2.453,-2.453,-2.5798,-2.6563,-2.6859,-2.8257,-2.9118,-2.9455,-2.9474,-2.9551,-2.9681,-2.9644,-2.9626,-2.9626,-2.9662,-2.968,-2.968,-2.968,-2.968,-2.968,-2.968,-2.9644,-2.9626,-2.9663,-2.9608,-2.9514,-2.9514,-2.9644,-2.9787,-3.0022,-3.0147,-3.0204,-3.0204,-3.0204,-3.0204,-3.0204,-3.0204,-3.0204,-3.0204,-3.0204,-3.0204,-3.0204,-3.0204,-3.0204,-3.0204,-3.0204,-3.0204,-3.0204,-3.0204,-3.0204,-3.0204,-3.0204,-3.0204,-3.0204,-3.0204,-3.0204,-3.0204,-3.0204,-3.0204,-3.0204,-3.0204,-3.0204,-3.0204,-3.0204,-3.0204,-3.0204,-3.0253,-3.0267,-3.0316,-3.0344,-3.0348,-3.0367,-3.0452,-3.0511,-1.4491,-1.5289,-1.6033,-1.5822,-1.615,-1.6604,-1.693,-1.6748,-1.6633,-1.7135,-1.7567,-1.8057,-1.8816,-1.9489,-2.0339,-2.1629,-2.2611,-2.3858,-2.576,-2.6438,-2.6593,-2.6229,-2.6214,-2.5642,-2.4094,-2.4201,-2.401,-2.321,-2.3481,-2.4001,-2.4754,-2.424,-2.4295,-2.5153,-2.4704,-2.4479,-2.4578,-2.4395,-2.4284,-2.4303,-2.5245,-2.6039,-2.67,-2.7719,-2.8577,-2.933,-2.9188,-2.9209,-2.9353,-2.9293,-2.9272,-2.9293,-2.9338,-2.9339,-2.9339,-2.9339,-2.9339,-2.9339,-2.9339,-2.9318,-2.9272,-2.9332,-2.9251,-2.9086,-2.9086,-2.9191,-2.9395,-2.9857,-3.0068,-3.0157,-3.019,-3.0185,-3.0204,-3.0204,-3.0204,-3.0204,-3.0204,-3.0204,-3.0204,-3.0204,-3.0204,-3.0204,-3.0204,-3.0204,-3.0204,-3.0204,-3.0204,-3.0204,-3.0204,-3.0204,-3.0204,-3.0204,-3.0204,-3.0204,-3.0204,-3.0204,-3.0204,-3.0204,-3.0204,-3.0204,-3.0204,-3.0204,-3.0204,-3.0204,-3.0204,-3.0204,-3.0204,-3.026,-3.0279,-3.0292,-3.0348,-3.0381,-1.3598,-1.4478,-1.513,-1.5509,-1.6063,-1.6416,-1.6094,-1.6256,-1.6647,-1.7245,-1.7712,-1.8491,-1.998,-2.0339,-2.074,-2.1861,-2.2922,-2.3974,-2.5035,-2.5933,-2.6236,-2.5676,-2.5535,-2.4899,-2.3396,-2.3188,-2.3239,-2.3409,-2.3307,-2.3921,-2.5519,-2.4879,-2.4949,-2.5963,-2.5937,-2.5887,-2.5909,-2.4832,-2.4284,-2.4303,-2.5817,-2.6512,-2.6585,-2.8209,-2.8946,-2.898,-2.906,-2.9126,-2.9148,-2.9129,-2.9148,-2.9148,-2.9129,-2.9151,-2.9151,-2.9151,-2.9151,-2.9151,-2.9151,-2.9129,-2.9148,-2.9148,-2.9126,-2.9086,-2.9086,-2.9191,-2.9314,-2.9395,-2.9626,-2.9902,-3.0068,-3.0161,-3.0204,-3.0204,-3.0204,-3.0204,-3.0204,-3.0204,-3.0204,-3.0204,-3.0204,-3.0204,-3.0204,-3.0204,-3.0204,-3.0204,-3.0204,-3.0204,-3.0204,-3.0204,-3.0204,-3.0204,-3.0204,-3.0204,-3.0204,-3.0204,-3.0204,-3.0204,-3.0204,-3.0204,-3.0204,-3.0204,-3.0204,-3.0204,-3.0204,-3.0204,-3.0204,-3.0213,-3.0213,-3.0213,-3.0279,-3.0328,-1.2736,-1.345,-1.4028,-1.4568,-1.5624,-1.6489,-1.6555,-1.6527,-1.6714,-1.7588,-1.7928,-1.8505,-1.9853,-2.0093,-2.0482,-2.154,-2.2114,-2.2642,-2.3262,-2.4092,-2.4346,-2.3636,-2.3694,-2.3392,-2.2338,-2.1983,-2.1856,-2.1894,-2.2211,-2.2951,-2.405,-2.4275,-2.4807,-2.5732,-2.5732,-2.58,-2.5967,-2.5218,-2.4779,-2.4695,-2.5427,-2.575,-2.5717,-2.652,-2.7387,-2.8246,-2.8187,-2.8494,-2.8966,-2.8874,-2.8827,-2.8827,-2.8827,-2.8827,-2.8827,-2.8827,-2.8827,-2.8868,-2.8943,-2.892,-2.8868,-2.8962,-2.8938,-2.8827,-2.8827,-2.885,-2.892,-2.9052,-2.9357,-2.9643,-2.9697,-2.9803,-2.9853,-2.9817,-2.9853,-2.9888,-2.9888,-2.9888,-2.9888,-2.9888,-2.9953,-3.0034,-3.0034,-3.0128,-3.0204,-3.0204,-3.0204,-3.0204,-3.0204,-3.0204,-3.0204,-3.0204,-3.0204,-3.0204,-3.0204,-3.0204,-3.0204,-3.0204,-3.0204,-3.0204,-3.0204,-3.0204,-3.0204,-3.0204,-3.0204,-3.0204,-3.0204,-3.0204,-3.0204,-3.0204,-3.0221,-3.0247,-1.1857,-1.2383,-1.2929,-1.373,-1.4842,-1.5934,-1.6411,-1.6265,-1.6364,-1.7557,-1.7849,-1.8264,-1.9392,-1.9703,-2.0126,-2.1037,-2.1313,-2.1511,-2.1845,-2.2461,-2.2601,-2.1853,-2.1888,-2.1746,-2.1082,-2.0656,-2.0406,-2.0306,-2.0951,-2.1707,-2.2556,-2.3232,-2.4086,-2.5112,-2.5103,-2.5271,-2.5717,-2.564,-2.5454,-2.519,-2.5301,-2.5391,-2.5479,-2.5659,-2.6535,-2.7903,-2.7737,-2.8106,-2.8834,-2.8662,-2.8587,-2.8587,-2.8587,-2.8587,-2.8587,-2.8587,-2.8587,-2.8612,-2.8785,-2.8737,-2.8637,-2.8785,-2.8737,-2.8587,-2.8587,-2.8587,-2.8637,-2.8785,-2.9079,-2.9338,-2.9378,-2.9456,-2.9551,-2.9495,-2.9533,-2.9551,-2.9551,-2.9551,-2.9551,-2.957,-2.9698,-2.9803,-2.9839,-2.9953,-3.0064,-3.0064,-3.0064,-3.0064,-3.0064,-3.0094,-3.0128,-3.0128,-3.0171,-3.0204,-3.0204,-3.0204,-3.0204,-3.0204,-3.0204,-3.0204,-3.0204,-3.0204,-3.0204,-3.0204,-3.0204,-3.0204,-3.0204,-3.0204,-3.0204,-3.0204,-3.0204,-3.0204,-1.0828,-1.1459,-1.212,-1.3323,-1.3642,-1.3868,-1.4495,-1.4635,-1.5024,-1.6502,-1.7151,-1.7768,-1.8871,-1.9438,-2.0004,-2.0557,-2.1091,-2.1511,-2.1845,-2.2071,-2.1979,-2.1435,-2.0889,-2.028,-1.9623,-1.9226,-1.9201,-1.9641,-1.9674,-2.0441,-2.2238,-2.1979,-2.2579,-2.432,-2.4355,-2.4689,-2.5438,-2.6159,-2.6268,-2.574,-2.6197,-2.656,-2.6861,-2.7558,-2.8128,-2.8522,-2.8522,-2.8558,-2.8612,-2.8612,-2.8587,-2.8587,-2.8587,-2.8587,-2.8587,-2.8587,-2.8587,-2.8612,-2.8612,-2.8612,-2.8612,-2.8612,-2.8612,-2.8587,-2.8587,-2.8587,-2.8612,-2.8612,-2.8687,-2.8845,-2.9209,-2.9377,-2.9399,-2.9399,-2.9399,-2.9399,-2.9399,-2.9399,-2.9418,-2.9495,-2.9514,-2.9551,-2.9626,-2.9644,-2.9644,-2.9644,-2.9644,-2.9644,-2.9644,-2.9822,-2.9921,-2.9921,-3.0098,-3.0204,-3.0204,-3.0204,-3.0204,-3.0204,-3.0204,-3.0204,-3.0204,-3.0204,-3.0204,-3.0204,-3.0204,-3.0204,-3.0204,-3.0204,-3.0204,-3.0204,-3.0204,-3.0204,-0.9754,-1.0054,-1.0466,-1.1473,-1.1555,-1.1935,-1.4183,-1.471,-1.5126,-1.6405,-1.707,-1.7721,-1.878,-1.9448,-1.985,-2.0093,-2.0273,-2.0321,-2.0075,-2.0189,-1.9973,-1.9082,-1.9181,-1.9055,-1.8527,-1.8128,-1.7966,-1.8158,-1.8383,-1.8849,-1.9607,-2.0481,-2.1319,-2.2085,-2.3179,-2.3964,-2.446,-2.5017,-2.5288,-2.531,-2.5645,-2.5631,-2.5261,-2.5075,-2.5569,-2.657,-2.6142,-2.648,-2.7361,-2.753,-2.779,-2.8073,-2.8219,-2.8192,-2.8073,-2.8246,-2.8299,-2.8299,-2.8299,-2.8422,-2.8587,-2.8587,-2.8587,-2.8587,-2.8587,-2.8587,-2.8587,-2.8587,-2.8612,-2.8669,-2.8821,-2.8962,-2.9012,-2.8971,-2.9012,-2.9034,-2.9034,-2.9034,-2.9034,-2.9056,-2.9169,-2.9256,-2.9277,-2.9418,-2.9551,-2.9551,-2.957,-2.9608,-2.9608,-2.9662,-2.9716,-2.9716,-2.9786,-2.982,-2.982,-2.982,-2.9888,-3.0003,-3.0128,-3.0204,-3.0204,-3.0204,-3.0204,-3.0204,-3.0204,-3.0204,-3.0204,-3.0204,-3.0204,-3.0204,-3.0204,-3.0204,-0.8456,-0.8663,-0.8955,-0.9562,-0.9463,-0.9971,-1.2608,-1.3534,-1.4179,-1.5245,-1.6182,-1.7071,-1.807,-1.8649,-1.9101,-1.9228,-1.9392,-1.9251,-1.8479,-1.8486,-1.8204,-1.7236,-1.734,-1.7441,-1.7258,-1.7044,-1.6834,-1.6577,-1.7267,-1.7606,-1.7357,-1.8653,-1.9553,-1.991,-2.1287,-2.2269,-2.2745,-2.3583,-2.4002,-2.4001,-2.4527,-2.4677,-2.4435,-2.392,-2.4331,-2.5376,-2.4875,-2.5244,-2.6247,-2.6685,-2.7179,-2.773,-2.7897,-2.7869,-2.7713,-2.7897,-2.7964,-2.7964,-2.7964,-2.8138,-2.8317,-2.8396,-2.8448,-2.8448,-2.8562,-2.8587,-2.8587,-2.8587,-2.8587,-2.8587,-2.8587,-2.8662,-2.8737,-2.8687,-2.8712,-2.8737,-2.8737,-2.8737,-2.8737,-2.8761,-2.8892,-2.8971,-2.9012,-2.9169,-2.9297,-2.9297,-2.9375,-2.9415,-2.9415,-2.9474,-2.9532,-2.9589,-2.9608,-2.9608,-2.9608,-2.9608,-2.9662,-2.9805,-2.9937,-3.0064,-3.0185,-3.0204,-3.0204,-3.0204,-3.0204,-3.0204,-3.0204,-3.0204,-3.0204,-3.0204,-3.0204,-3.0204,-0.6962,-0.7336,-0.7782,-0.7709,-0.7672,-0.8016,-0.9304,-1.0619,-1.1794,-1.2698,-1.416,-1.5528,-1.6419,-1.7003,-1.7548,-1.7993,-1.8541,-1.8493,-1.7356,-1.7186,-1.6929,-1.6163,-1.5521,-1.5278,-1.5755,-1.6035,-1.5857,-1.4978,-1.6383,-1.6899,-1.5968,-1.6474,-1.7177,-1.7974,-1.8655,-1.9409,-2.0286,-2.2007,-2.2524,-2.1797,-2.2874,-2.3942,-2.4982,-2.4982,-2.5101,-2.5367,-2.5367,-2.5367,-2.5438,-2.6237,-2.6999,-2.7666,-2.7683,-2.7683,-2.7683,-2.7683,-2.7701,-2.7701,-2.7701,-2.7701,-2.7742,-2.7992,-2.8102,-2.8156,-2.8492,-2.8587,-2.8587,-2.8587,-2.8587,-2.8587,-2.8587,-2.8587,-2.8587,-2.8587,-2.8587,-2.8587,-2.8587,-2.8587,-2.8612,-2.8687,-2.8694,-2.8718,-2.8785,-2.8858,-2.8905,-2.8905,-2.897,-2.8994,-2.8994,-2.9163,-2.9375,-2.957,-2.9589,-2.9589,-2.9589,-2.9589,-2.9608,-2.9608,-2.9608,-2.9769,-3.0171,-3.0204,-3.0204,-3.0204,-3.0204,-3.0204,-3.0204,-3.0204,-3.0204,-3.0204,-3.0204,-3.0204,-0.5658,-0.5991,-0.6391,-0.5845,-0.6338,-0.6992,-0.7173,-0.8453,-0.9974,-1.1479,-1.2848,-1.4055,-1.4888,-1.5847,-1.6632,-1.707,-1.7279,-1.7099,-1.6368,-1.5959,-1.5489,-1.4784,-1.5079,-1.5327,-1.5319,-1.5985,-1.6304,-1.6053,-1.6479,-1.6646,-1.6397,-1.701,-1.7502,-1.7762,-1.9039,-1.9833,-2.0088,-2.1224,-2.1658,-2.1462,-2.1767,-2.2598,-2.3845,-2.3334,-2.3426,-2.3967,-2.3453,-2.3522,-2.4053,-2.4824,-2.539,-2.5854,-2.6375,-2.6433,-2.6302,-2.7085,-2.7338,-2.7338,-2.7338,-2.7504,-2.7713,-2.78,-2.7829,-2.7829,-2.7961,-2.7961,-2.7961,-2.7961,-2.811,-2.8201,-2.8,-2.8264,-2.8587,-2.8587,-2.8587,-2.8587,-2.8587,-2.8587,-2.8612,-2.8637,-2.8637,-2.8662,-2.8737,-2.8785,-2.8858,-2.8905,-2.897,-2.8994,-2.8994,-2.9044,-2.9115,-2.9181,-2.9181,-2.9181,-2.9181,-2.9181,-2.9228,-2.9375,-2.9395,-2.957,-2.9953,-2.9988,-3.0049,-3.0204,-3.0204,-3.0204,-3.0204,-3.0204,-3.0204,-3.0204,-3.0204,-3.0204,-0.4799,-0.4967,-0.5149,-0.4323,-0.4632,-0.5102,-0.4949,-0.6753,-0.8931,-1.0446,-1.1593,-1.2581,-1.3537,-1.4295,-1.4945,-1.5504,-1.5485,-1.531,-1.4994,-1.4574,-1.4069,-1.3557,-1.4161,-1.4572,-1.4456,-1.5634,-1.6258,-1.5845,-1.6487,-1.6745,-1.6374,-1.689,-1.718,-1.7265,-1.8631,-1.9291,-1.9179,-2.0448,-2.1023,-2.0878,-2.1166,-2.1753,-2.2548,-2.2115,-2.2224,-2.2744,-2.2291,-2.2526,-2.3261,-2.3836,-2.4373,-2.4859,-2.5305,-2.551,-2.5659,-2.6326,-2.6732,-2.6989,-2.6989,-2.7132,-2.7321,-2.7461,-2.7491,-2.7522,-2.7672,-2.7701,-2.7701,-2.7701,-2.7829,-2.7897,-2.7742,-2.7989,-2.8264,-2.837,-2.8492,-2.8587,-2.8587,-2.8587,-2.8587,-2.8587,-2.8587,-2.8612,-2.8644,-2.8712,-2.8785,-2.8815,-2.8905,-2.8952,-2.8994,-2.8994,-2.8994,-2.8994,-2.8994,-2.8994,-2.8994,-2.8994,-2.9044,-2.9163,-2.9185,-2.9332,-2.9644,-2.9734,-2.9839,-2.9953,-2.9953,-2.9953,-2.9953,-2.9953,-2.9953,-2.9953,-3.0049,-3.0079,-0.4209,-0.4025,-0.3996,-0.3044,-0.2838,-0.2898,-0.2849,-0.5372,-0.8094,-0.9295,-1.0171,-1.1015,-1.2142,-1.2484,-1.2834,-1.3587,-1.3477,-1.3277,-1.3291,-1.3044,-1.2745,-1.2544,-1.2997,-1.3344,-1.3382,-1.5069,-1.5736,-1.4837,-1.6367,-1.694,-1.6026,-1.6382,-1.6647,-1.6726,-1.7811,-1.8273,-1.7971,-1.9714,-2.0429,-2.0054,-2.0748,-2.1086,-2.1166,-2.126,-2.1462,-2.1751,-2.1751,-2.2115,-2.2789,-2.3096,-2.3604,-2.4211,-2.4326,-2.4765,-2.5374,-2.5441,-2.5964,-2.659,-2.659,-2.664,-2.6758,-2.7053,-2.7149,-2.7213,-2.7522,-2.7595,-2.7595,-2.7595,-2.7624,-2.7642,-2.7612,-2.7654,-2.7742,-2.7964,-2.8273,-2.8536,-2.8536,-2.8536,-2.8543,-2.8543,-2.8587,-2.8612,-2.8612,-2.8662,-2.8694,-2.8694,-2.8815,-2.8905,-2.8952,-2.8994,-2.8994,-2.8994,-2.8994,-2.8994,-2.8994,-2.8994,-2.8994,-2.8994,-2.8994,-2.9089,-2.927,-2.9474,-2.9589,-2.9608,-2.9608,-2.9608,-2.9608,-2.9608,-2.9608,-2.9608,-2.9805,-2.9872,-0.3282,-0.2899,-0.2682,-0.2078,-0.2289,-0.2672,-0.264,-0.3887,-0.525,-0.5996,-0.7336,-0.8838,-1.0148,-1.0767,-1.1376,-1.2271,-1.2361,-1.2173,-1.1815,-1.1711,-1.1691,-1.1808,-1.2313,-1.2889,-1.3419,-1.4281,-1.4715,-1.4487,-1.5526,-1.6073,-1.5865,-1.6916,-1.7526,-1.7552,-1.8194,-1.8532,-1.8456,-1.8933,-1.9103,-1.9029,-1.92,-1.9585,-2.023,-2.0959,-2.1339,-2.1401,-2.1401,-2.1482,-2.166,-2.1722,-2.1851,-2.2063,-2.292,-2.3345,-2.3577,-2.4447,-2.5203,-2.5845,-2.5845,-2.6218,-2.6725,-2.6791,-2.6791,-2.6825,-2.6873,-2.6923,-2.6923,-2.6923,-2.71,-2.7244,-2.6971,-2.7321,-2.7642,-2.7444,-2.7654,-2.7886,-2.7886,-2.8055,-2.8201,-2.8201,-2.8422,-2.8612,-2.8687,-2.8694,-2.8718,-2.8761,-2.881,-2.8834,-2.8834,-2.8834,-2.8834,-2.8834,-2.8881,-2.8929,-2.8929,-2.8952,-2.8994,-2.8994,-2.8994,-2.9017,-2.9067,-2.927,-2.9435,-2.9608,-2.9608,-2.9608,-2.9608,-2.9608,-2.9608,-2.9608,-2.9644,-2.9662,-0.2861,-0.2359,-0.212,-0.1499,-0.1529,-0.1718,-0.1751,-0.2361,-0.3042,-0.3587,-0.5467,-0.7281,-0.8325,-0.8865,-0.9401,-1.0257,-1.0275,-1.0335,-1.0575,-1.0516,-1.0597,-1.1088,-1.1595,-1.2121,-1.2657,-1.339,-1.3893,-1.4066,-1.4731,-1.5132,-1.5132,-1.5796,-1.6257,-1.6415,-1.6946,-1.7312,-1.7603,-1.8073,-1.8366,-1.8419,-1.8612,-1.8954,-1.9471,-2.0483,-2.0878,-2.0763,-2.0958,-2.1055,-2.1055,-2.1245,-2.1308,-2.1371,-2.1933,-2.2356,-2.275,-2.3477,-2.419,-2.4926,-2.5409,-2.5625,-2.5744,-2.6454,-2.6454,-2.6234,-2.659,-2.6691,-2.6691,-2.6691,-2.6825,-2.6923,-2.6758,-2.6939,-2.7164,-2.7021,-2.7321,-2.7701,-2.7701,-2.78,-2.7897,-2.7897,-2.8055,-2.8183,-2.8237,-2.8326,-2.843,-2.8507,-2.8644,-2.8761,-2.8785,-2.8785,-2.8785,-2.8785,-2.8858,-2.8905,-2.8905,-2.8952,-2.8994,-2.8994,-2.8994,-2.8994,-2.8994,-2.9093,-2.9206,-2.9312,-2.9312,-2.9312,-2.9312,-2.9312,-2.9312,-2.9312,-2.9415,-2.9455,-0.281,-0.2101,-0.1741,-0.1063,-0.0825,-0.08,-0.08,-0.1164,-0.1601,-0.1969,-0.4039,-0.5961,-0.6627,-0.7055,-0.7563,-0.8253,-0.8292,-0.8545,-0.9482,-0.946,-0.9637,-1.0341,-1.0825,-1.1216,-1.1537,-1.2348,-1.2932,-1.3157,-1.3757,-1.4144,-1.4053,-1.4268,-1.4541,-1.4788,-1.5296,-1.5757,-1.614,-1.7019,-1.753,-1.7554,-1.8019,-1.8337,-1.8487,-1.9531,-1.9959,-1.996,-2.041,-2.0613,-2.0646,-2.0991,-2.1119,-2.115,-2.1182,-2.1585,-2.2167,-2.2503,-2.3091,-2.3851,-2.4809,-2.4835,-2.465,-2.6065,-2.6099,-2.5744,-2.6471,-2.6691,-2.6691,-2.6691,-2.6691,-2.6691,-2.6691,-2.6691,-2.6691,-2.6691,-2.7132,-2.7535,-2.7535,-2.7565,-2.7595,-2.7595,-2.7672,-2.7701,-2.7701,-2.7869,-2.8047,-2.812,-2.8352,-2.8569,-2.8594,-2.8644,-2.8669,-2.8669,-2.8791,-2.8881,-2.8881,-2.8929,-2.8994,-2.8994,-2.8994,-2.8994,-2.8994,-2.8994,-2.8994,-2.8994,-2.8994,-2.8994,-2.8994,-2.8994,-2.8994,-2.9017,-2.9163,-2.9249,-0.2939,-0.1973,-0.1023,-0.0951,-0.0811,-0.0722,-0.077,-0.1118,-0.1446,-0.1489,-0.2829,-0.424,-0.5211,-0.6058,-0.682,-0.7383,-0.7784,-0.8144,-0.8374,-0.8699,-0.907,-0.9597,-1.0009,-1.04,-1.0712,-1.1089,-1.1197,-1.1025,-1.2318,-1.3004,-1.2782,-1.3789,-1.4435,-1.4474,-1.4827,-1.4903,-1.4691,-1.5427,-1.5642,-1.5351,-1.613,-1.6545,-1.6581,-1.7251,-1.8168,-1.925,-1.9675,-1.9854,-1.9869,-2.0289,-2.0426,-2.046,-2.0745,-2.094,-2.1052,-2.1391,-2.1987,-2.2671,-2.3106,-2.3599,-2.4263,-2.5376,-2.5693,-2.5744,-2.6471,-2.6691,-2.6691,-2.6691,-2.6691,-2.6691,-2.6691,-2.6691,-2.6691,-2.6691,-2.6758,-2.6825,-2.6825,-2.7053,-2.7276,-2.7276,-2.7491,-2.7701,-2.7701,-2.773,-2.7742,-2.7771,-2.78,-2.7847,-2.7847,-2.8065,-2.8183,-2.8183,-2.8507,-2.8761,-2.881,-2.8881,-2.8929,-2.8994,-2.8994,-2.8994,-2.8994,-2.8994,-2.8994,-2.8994,-2.8994,-2.8994,-2.8994,-2.8994,-2.8994,-2.8994,-2.904,-2.9044,-0.2324,-0.1447,-0.0844,-0.084,-0.0769,-0.0636,-0.0287,-0.0658,-0.0923,-0.0675,-0.1563,-0.276,-0.4022,-0.463,-0.5191,-0.593,-0.6531,-0.7001,-0.7328,-0.775,-0.8333,-0.903,-0.9319,-0.9686,-1.0273,-1.0418,-1.0534,-1.0582,-1.1218,-1.1642,-1.1681,-1.2174,-1.2682,-1.3085,-1.3249,-1.3505,-1.3895,-1.4237,-1.4462,-1.4607,-1.5284,-1.5583,-1.5583,-1.6145,-1.7134,-1.8499,-1.8752,-1.9188,-1.9711,-1.9904,-2.0096,-2.0304,-2.046,-2.0527,-2.0561,-2.0909,-2.1231,-2.1616,-2.2361,-2.2571,-2.2752,-2.4447,-2.4712,-2.4579,-2.5686,-2.6016,-2.6052,-2.628,-2.635,-2.6436,-2.6657,-2.6691,-2.6691,-2.6691,-2.6691,-2.6691,-2.6691,-2.6825,-2.6923,-2.6923,-2.7053,-2.7132,-2.7132,-2.7289,-2.743,-2.743,-2.7582,-2.7701,-2.7701,-2.78,-2.7869,-2.7869,-2.8065,-2.8255,-2.8456,-2.8558,-2.87,-2.8881,-2.8929,-2.8929,-2.89,-2.89,-2.89,-2.89,-2.897,-2.8994,-2.8994,-2.8994,-2.8994,-2.8994,-2.8952,-2.8952,-0.1916,-0.1144,-0.0737,-0.0467,-0.0207,0.0051,0.0438,0.0145,-0.0096,0.0229,-0.0364,-0.1358,-0.2632,-0.3199,-0.3723,-0.457,-0.5216,-0.5728,-0.6234,-0.6833,-0.7509,-0.8195,-0.8545,-0.8967,-0.9518,-0.9716,-0.9913,-1.0137,-1.038,-1.0611,-1.0753,-1.0867,-1.1132,-1.17,-1.1884,-1.2275,-1.2869,-1.3067,-1.3419,-1.3944,-1.4325,-1.4513,-1.4513,-1.4993,-1.5915,-1.7114,-1.7584,-1.8302,-1.9118,-1.9277,-1.9596,-2.001,-2.0115,-2.0166,-2.0185,-2.0527,-2.0662,-2.0807,-2.1713,-2.1633,-2.1504,-2.3543,-2.387,-2.3673,-2.5082,-2.5503,-2.5577,-2.5872,-2.5944,-2.6033,-2.6315,-2.6401,-2.6436,-2.6505,-2.6539,-2.659,-2.6691,-2.6691,-2.6691,-2.6691,-2.6691,-2.6691,-2.6691,-2.6923,-2.7085,-2.7085,-2.7289,-2.7444,-2.7444,-2.7504,-2.7565,-2.7565,-2.7683,-2.7869,-2.8075,-2.8264,-2.8438,-2.8651,-2.8791,-2.8858,-2.881,-2.8785,-2.8785,-2.8785,-2.89,-2.8947,-2.8947,-2.8947,-2.8947,-2.8947,-2.8905,-2.8905,-0.2264,-0.1428,-0.0604,0.0505,0.1245,0.1631,0.1365,0.1302,0.1239,0.11,0.0664,0.0047,-0.072,-0.1958,-0.3017,-0.3605,-0.4085,-0.4561,-0.5096,-0.599,-0.6615,-0.6778,-0.7543,-0.8062,-0.8103,-0.8699,-0.9022,-0.8901,-0.9795,-1.0283,-1.0157,-1.0467,-1.0659,-1.0697,-1.1282,-1.1468,-1.1126,-1.1808,-1.234,-1.2686,-1.284,-1.2923,-1.2923,-1.3399,-1.3981,-1.468,-1.606,-1.7014,-1.7548,-1.8072,-1.8644,-1.9213,-1.9581,-1.9726,-1.9797,-2.02,-2.0339,-2.0373,-2.0726,-2.0859,-2.1115,-2.2891,-2.343,-2.3673,-2.5082,-2.5503,-2.5503,-2.554,-2.554,-2.554,-2.5577,-2.5577,-2.5652,-2.6052,-2.6123,-2.6245,-2.6624,-2.6691,-2.6691,-2.6691,-2.6691,-2.6691,-2.6691,-2.6725,-2.6725,-2.6725,-2.6758,-2.6758,-2.6758,-2.7021,-2.7213,-2.7213,-2.7504,-2.7742,-2.7794,-2.8047,-2.8237,-2.8324,-2.8626,-2.881,-2.8785,-2.8785,-2.8785,-2.8785,-2.881,-2.881,-2.881,-2.881,-2.881,-2.881,-2.881,-2.881,-0.2292,-0.1298,-0.0097,0.0729,0.199,0.2858,0.244,0.2101,0.1794,0.1544,0.0999,0.0329,-0.0542,-0.1607,-0.2539,-0.3075,-0.3781,-0.4355,-0.4578,-0.5178,-0.5862,-0.6489,-0.691,-0.7377,-0.7938,-0.83,-0.8504,-0.8594,-0.9119,-0.9607,-0.9903,-1.0157,-1.039,-1.0582,-1.084,-1.0981,-1.1019,-1.1282,-1.1553,-1.1906,-1.2186,-1.2365,-1.2365,-1.2743,-1.3191,-1.3671,-1.4245,-1.5586,-1.7348,-1.7534,-1.811,-1.8869,-1.9095,-1.9132,-1.9132,-1.9588,-1.9747,-1.9782,-2.015,-2.0304,-2.052,-2.2009,-2.2571,-2.2873,-2.4233,-2.4695,-2.4784,-2.5059,-2.5121,-2.516,-2.5427,-2.5503,-2.554,-2.5689,-2.5726,-2.5762,-2.5908,-2.6332,-2.6691,-2.6691,-2.6691,-2.6691,-2.6691,-2.6691,-2.6691,-2.6691,-2.6691,-2.6691,-2.6691,-2.6791,-2.6891,-2.6891,-2.6971,-2.7164,-2.7382,-2.753,-2.7707,-2.7897,-2.8065,-2.8138,-2.8101,-2.8083,-2.8083,-2.8083,-2.8083,-2.8344,-2.8785,-2.8785,-2.8785,-2.8785,-2.8761,-2.8761,-0.242,-0.1367,-0.0187,0.0664,0.1784,0.2738,0.3079,0.2849,0.2517,0.2249,0.1663,0.0958,0.0231,-0.0858,-0.183,-0.2541,-0.3164,-0.3697,-0.4012,-0.4491,-0.5048,-0.5685,-0.6107,-0.6573,-0.7175,-0.7558,-0.7855,-0.8054,-0.839,-0.8829,-0.9421,-0.9588,-0.9913,-1.0428,-1.0428,-1.0572,-1.0867,-1.0867,-1.1029,-1.1351,-1.159,-1.1774,-1.1906,-1.2258,-1.2603,-1.2836,-1.301,-1.4375,-1.6459,-1.651,-1.7111,-1.8061,-1.829,-1.8442,-1.8574,-1.9043,-1.9207,-1.9244,-1.9639,-1.9797,-1.9978,-2.1258,-2.1889,-2.2324,-2.3453,-2.3983,-2.4261,-2.4517,-2.4639,-2.4735,-2.4981,-2.5176,-2.5313,-2.5313,-2.5389,-2.5503,-2.5503,-2.5908,-2.628,-2.628,-2.6401,-2.6505,-2.6505,-2.6607,-2.6691,-2.6691,-2.6691,-2.6691,-2.6691,-2.6691,-2.6691,-2.6691,-2.6691,-2.6791,-2.7021,-2.7164,-2.7352,-2.7522,-2.7683,-2.7742,-2.7683,-2.7701,-2.7701,-2.7701,-2.7701,-2.7943,-2.8422,-2.8525,-2.8576,-2.8576,-2.8644,-2.8687,0.0,0.0,0.0,0.0328,0.0665,0.1176,0.3108,0.3536,0.3451,0.3239,0.2633,0.2041,0.1775,0.0368,-0.103,-0.1921,-0.2099,-0.2457,-0.3445,-0.3972,-0.4272,-0.4316,-0.5091,-0.5653,-0.5696,-0.6392,-0.695,-0.7182,-0.7516,-0.8005,-0.874,-0.878,-0.9182,-1.004,-1.0079,-1.0235,-1.0582,-1.0582,-1.0725,-1.0981,-1.0981,-1.1142,-1.1485,-1.1906,-1.2077,-1.2113,-1.2461,-1.339,-1.4752,-1.4835,-1.5575,-1.6703,-1.7098,-1.7581,-1.8118,-1.8535,-1.8703,-1.8727,-1.9207,-1.9369,-1.9546,-2.0617,-2.1409,-2.2115,-2.2783,-2.3451,-2.3982,-2.3982,-2.4082,-2.4181,-2.4181,-2.4533,-2.4863,-2.4863,-2.516,-2.5465,-2.5465,-2.5465,-2.5465,-2.5503,-2.5835,-2.6139,-2.6139,-2.6436,-2.6691,-2.6691,-2.6691,-2.6691,-2.6691,-2.6691,-2.6691,-2.6691,-2.6691,-2.6691,-2.6691,-2.6989,-2.7181,-2.7181,-2.7491,-2.7672,-2.7672,-2.7672,-2.7672,-2.7672,-2.7672,-2.7672,-2.7654,-2.7936,-2.8102,-2.8102,-2.8422,-2.8587,-0.3744,0.0,0.0,0.0,0.0,0.0,0.1533,0.1954,0.2265,0.3292,0.3327,0.2904,0.1879,0.0094,-0.1297,-0.1569,-0.2186,-0.2901,-0.3534,-0.3711,-0.3928,-0.4272,-0.453,-0.4961,-0.5653,-0.5959,-0.6349,-0.695,-0.7286,-0.7648,-0.8005,-0.8496,-0.8901,-0.9142,-0.9576,-0.9941,-1.0235,-1.0235,-1.039,-1.0687,-1.0687,-1.0878,-1.1142,-1.1244,-1.1579,-1.2113,-1.221,-1.2615,-1.3283,-1.4016,-1.4748,-1.5505,-1.6348,-1.6822,-1.7048,-1.7995,-1.8333,-1.8411,-1.8822,-1.8884,-1.8946,-1.9749,-2.0665,-2.1539,-2.233,-2.3227,-2.4024,-2.4124,-2.4082,-2.4082,-2.4082,-2.4135,-2.4261,-2.4261,-2.4328,-2.4436,-2.4549,-2.4549,-2.4839,-2.5762,-2.6245,-2.6539,-2.6539,-2.6624,-2.6691,-2.6691,-2.6691,-2.6691,-2.6691,-2.6691,-2.6691,-2.6691,-2.6691,-2.6691,-2.6691,-2.6791,-2.6825,-2.6825,-2.6923,-2.6971,-2.6971,-2.6971,-2.6971,-2.6971,-2.6971,-2.6971,-2.6971,-2.7547,-2.7829,-2.7829,-2.8093,-2.8228,-0.5278,-0.449,-0.3614,-0.2623,0.0,0.0,0.0099,0.0694,0.1348,0.2586,0.3224,0.3087,0.1302,-0.0341,-0.1558,-0.2119,-0.2483,-0.2904,-0.3442,-0.3534,-0.3619,-0.3972,-0.4188,-0.4535,-0.5048,-0.5529,-0.5916,-0.6349,-0.6781,-0.7118,-0.7474,-0.8129,-0.8464,-0.8464,-0.9039,-0.9408,-0.9549,-0.9813,-1.0088,-1.039,-1.039,-1.0534,-1.0829,-1.0943,-1.1244,-1.1664,-1.1785,-1.1979,-1.2209,-1.295,-1.3791,-1.4651,-1.5298,-1.5918,-1.6573,-1.7288,-1.7691,-1.7975,-1.8411,-1.8489,-1.8506,-1.9016,-1.9821,-2.0683,-2.1378,-2.2247,-2.3066,-2.3593,-2.3855,-2.394,-2.3982,-2.3982,-2.3982,-2.3982,-2.4024,-2.4082,-2.4166,-2.4359,-2.4655,-2.5237,-2.5689,-2.5944,-2.5944,-2.6245,-2.6436,-2.6436,-2.6573,-2.6657,-2.647,-2.659,-2.6624,-2.647,-2.6624,-2.6691,-2.6691,-2.6691,-2.6691,-2.6691,-2.6691,-2.6556,-2.6251,-2.6539,-2.6556,-2.6251,-2.6539,-2.6691,-2.6691,-2.7227,-2.7565,-2.7683,-2.7869,-2.7926,-0.7181,-0.6544,-0.5543,-0.4108,-0.3324,0.0,-0.1214,-0.0386,0.0337,0.1235,0.2235,0.2357,0.0259,-0.0942,-0.1994,-0.3064,-0.2858,-0.2757,-0.3312,-0.3398,-0.3442,-0.3578,-0.3924,-0.4232,-0.4272,-0.5048,-0.5567,-0.561,-0.6013,-0.6441,-0.6923,-0.7509,-0.7848,-0.7848,-0.8415,-0.8699,-0.8699,-0.9297,-0.9704,-0.9961,-1.0,-1.0235,-1.0544,-1.0791,-1.0905,-1.0981,-1.1314,-1.1437,-1.1485,-1.1859,-1.2745,-1.3888,-1.4047,-1.4978,-1.6231,-1.6441,-1.6851,-1.7436,-1.7922,-1.8123,-1.8149,-1.8397,-1.8962,-1.961,-2.0203,-2.0826,-2.1597,-2.2658,-2.3332,-2.3706,-2.3909,-2.3982,-2.3982,-2.3982,-2.4024,-2.4124,-2.4166,-2.4508,-2.4719,-2.4343,-2.4639,-2.4981,-2.4981,-2.5577,-2.6016,-2.6016,-2.635,-2.6436,-2.6087,-2.6367,-2.6436,-2.6052,-2.635,-2.6573,-2.6624,-2.6624,-2.6657,-2.6691,-2.6691,-2.6404,-2.5761,-2.6353,-2.6353,-2.5625,-2.6234,-2.6623,-2.6691,-2.6989,-2.7307,-2.7595,-2.7642,-2.7624,-0.9479,-0.87,-0.7555,-0.6591,-0.5594,0.0,-0.265,-0.1936,-0.1579,-0.1243,-0.0984,-0.0879,-0.1101,-0.2156,-0.2933,-0.2754,-0.2936,-0.3082,-0.32,-0.3262,-0.3306,-0.3442,-0.353,-0.3748,-0.4272,-0.4447,-0.4748,-0.5091,-0.5226,-0.5313,-0.5437,-0.6283,-0.679,-0.679,-0.7675,-0.8136,-0.8136,-0.8707,-0.899,-0.9062,-0.9536,-0.9941,-1.0196,-1.0235,-1.0418,-1.0687,-1.0992,-1.1105,-1.1105,-1.1463,-1.1963,-1.2553,-1.3325,-1.389,-1.4387,-1.5593,-1.6163,-1.6505,-1.7356,-1.7625,-1.7556,-1.7679,-1.8276,-1.9031,-1.9405,-2.0035,-2.0841,-2.1903,-2.2536,-2.3008,-2.3561,-2.3696,-2.3696,-2.3696,-2.3696,-2.3782,-2.3982,-2.4109,-2.4177,-2.4208,-2.4839,-2.5389,-2.5389,-2.5503,-2.5615,-2.5615,-2.5689,-2.5726,-2.5615,-2.5689,-2.5689,-2.5615,-2.5689,-2.5872,-2.6175,-2.621,-2.6367,-2.6691,-2.6691,-2.6623,-2.6488,-2.6623,-2.6353,-2.5625,-2.5744,-2.6116,-2.6691,-2.6758,-2.6825,-2.6906,-2.7181,-2.7307,-1.1455,-1.0749,-0.9725,-0.9097,-0.7909,0.0,0.0,-0.3561,-0.2862,-0.3373,-0.3116,-0.2824,-0.2908,-0.3215,-0.3287,-0.3005,-0.3106,-0.3184,-0.306,-0.3196,-0.3348,-0.3468,-0.3458,-0.352,-0.3843,-0.4005,-0.4308,-0.487,-0.4961,-0.5009,-0.5009,-0.5475,-0.5771,-0.5771,-0.6489,-0.7001,-0.7252,-0.7777,-0.8187,-0.8423,-0.8886,-0.9208,-0.9469,-0.9795,-1.0108,-1.0351,-1.0687,-1.0802,-1.084,-1.1115,-1.1367,-1.1638,-1.2514,-1.3289,-1.4037,-1.4853,-1.5672,-1.6468,-1.6917,-1.7249,-1.7461,-1.7461,-1.7743,-1.819,-1.8655,-1.9415,-2.0257,-2.0782,-2.1255,-2.1697,-2.228,-2.2629,-2.2891,-2.3172,-2.3508,-2.3839,-2.3982,-2.4067,-2.4193,-2.4234,-2.4614,-2.4902,-2.4839,-2.5059,-2.5198,-2.5198,-2.5389,-2.5427,-2.5237,-2.5389,-2.5427,-2.5198,-2.5389,-2.5577,-2.5799,-2.598,-2.6175,-2.6401,-2.659,-2.6539,-2.6167,-2.615,-2.5981,-2.5609,-2.5236,-2.5406,-2.615,-2.615,-2.6336,-2.6691,-2.6483,-2.6409,-1.2996,-1.2603,-1.1759,-1.1021,-0.975,-0.8346,0.0,0.0,0.0,-0.5009,-0.4593,-0.4232,-0.4605,-0.4172,-0.3719,-0.3677,-0.3571,-0.3468,-0.3268,-0.3449,-0.3563,-0.3497,-0.3428,-0.3407,-0.3407,-0.3677,-0.4092,-0.4585,-0.4688,-0.4759,-0.4759,-0.481,-0.4879,-0.4879,-0.5384,-0.5808,-0.6198,-0.6848,-0.7314,-0.7724,-0.8185,-0.8513,-0.874,-0.9301,-0.9667,-0.9922,-1.0225,-1.039,-1.0418,-1.0715,-1.0905,-1.0981,-1.1774,-1.2746,-1.3703,-1.4009,-1.5017,-1.6297,-1.6441,-1.693,-1.7447,-1.7391,-1.7404,-1.7483,-1.7945,-1.8755,-1.9537,-1.9661,-1.9934,-2.0345,-2.0965,-2.1398,-2.1831,-2.2467,-2.3069,-2.3503,-2.3623,-2.3782,-2.3894,-2.3894,-2.3994,-2.4135,-2.4208,-2.4533,-2.4784,-2.4784,-2.5059,-2.516,-2.4839,-2.5059,-2.5121,-2.4823,-2.5098,-2.5313,-2.5389,-2.5689,-2.5944,-2.6087,-2.6267,-2.6168,-2.573,-2.5427,-2.5324,-2.5389,-2.4644,-2.4644,-2.5389,-2.5389,-2.5693,-2.6251,-2.5812,-2.5524,-1.3645,-1.3933,-1.3195,-1.135,-1.0561,-0.9735,-0.787,0.0,-0.6429,-0.597,0.0,-0.5452,-0.5408,0.0,0.0,-0.4918,-0.4596,-0.4351,-0.442,-0.4294,-0.3907,-0.3176,-0.3259,-0.3401,-0.3413,-0.3646,-0.3863,-0.3912,-0.3934,-0.3951,-0.3951,-0.4223,-0.436,-0.436,-0.4836,-0.5135,-0.5178,-0.6107,-0.6615,-0.6664,-0.7592,-0.8226,-0.8521,-0.8594,-0.8805,-0.9136,-0.9487,-0.9637,-0.9677,-1.0157,-1.0467,-1.0697,-1.1314,-1.1656,-1.1905,-1.2776,-1.3727,-1.4792,-1.5598,-1.6512,-1.724,-1.735,-1.7419,-1.7461,-1.7361,-1.7745,-1.8303,-1.8795,-1.9197,-1.9669,-2.0331,-2.0528,-2.0727,-2.135,-2.1551,-2.1782,-2.2383,-2.2498,-2.2543,-2.2543,-2.295,-2.3537,-2.4177,-2.4343,-2.4385,-2.4385,-2.4426,-2.4426,-2.4385,-2.4426,-2.4426,-2.4385,-2.4426,-2.4574,-2.4942,-2.502,-2.5351,-2.6052,-2.5542,-2.5443,-2.6025,-2.4779,-2.4261,-2.4611,-2.39,-2.3883,-2.4611,-2.4611,-2.4675,-2.4746,-2.5338,-2.5253,-1.4495,-1.3825,-1.2637,-1.2647,-1.124,-0.9839,-0.9873,-0.8956,-0.8051,-0.791,0.0,0.0,0.0,0.0,0.0,0.0,-0.5084,-0.4872,-0.4735,-0.4498,-0.4195,-0.3788,-0.3617,-0.3429,-0.3192,-0.3327,-0.3483,-0.3565,-0.364,-0.3738,-0.382,-0.3918,-0.4017,-0.4017,-0.4106,-0.4316,-0.4578,-0.5005,-0.5518,-0.6033,-0.6677,-0.7224,-0.7765,-0.7931,-0.8267,-0.8724,-0.8846,-0.9047,-0.9248,-0.9646,-1.004,-1.0351,-1.085,-1.1341,-1.1771,-1.2158,-1.2962,-1.3982,-1.4649,-1.5352,-1.6095,-1.6676,-1.7073,-1.7323,-1.724,-1.7352,-1.7569,-1.7809,-1.8001,-1.826,-1.8911,-1.9275,-1.9709,-2.0619,-2.1125,-2.1563,-2.2186,-2.236,-2.242,-2.242,-2.2634,-2.2905,-2.3187,-2.3739,-2.4151,-2.425,-2.4193,-2.4151,-2.425,-2.4193,-2.4151,-2.4151,-2.4151,-2.4177,-2.4369,-2.4583,-2.4713,-2.4644,-2.4207,-2.3909,-2.3829,-2.3209,-2.2949,-2.316,-2.2389,-2.2373,-2.3112,-2.3112,-2.2898,-2.2488,-2.3737,-2.4154,-1.4051,-1.3248,-1.2118,-1.3384,-1.2131,-1.0804,-1.1644,-1.0654,-0.9607,-0.9908,-0.9096,0.0,0.0,0.0,-0.7213,-0.6699,0.0,-0.5819,-0.5641,-0.5256,-0.4833,-0.4418,-0.3965,-0.3567,-0.3327,-0.3282,-0.3286,-0.3464,-0.3556,-0.3684,-0.3815,-0.3752,-0.3748,-0.3748,-0.3656,-0.3755,-0.41,-0.418,-0.4581,-0.5254,-0.558,-0.6085,-0.6733,-0.6969,-0.747,-0.8093,-0.8174,-0.8391,-0.8732,-0.9119,-0.9478,-0.9843,-1.0176,-1.0819,-1.1494,-1.1737,-1.245,-1.3366,-1.3709,-1.4373,-1.5199,-1.6163,-1.6723,-1.7031,-1.7157,-1.7199,-1.7199,-1.7199,-1.7199,-1.7303,-1.7735,-1.8126,-1.8609,-1.9588,-2.0192,-2.0757,-2.1444,-2.1704,-2.175,-2.175,-2.1983,-2.2132,-2.1963,-2.2848,-2.361,-2.3711,-2.3668,-2.3653,-2.3897,-2.3839,-2.3764,-2.3724,-2.3876,-2.3906,-2.3724,-2.401,-2.3825,-2.3092,-2.3011,-2.2687,-2.189,-2.1919,-2.1901,-2.1858,-2.1295,-2.1263,-2.1809,-2.1809,-2.1519,-2.1055,-2.251,-2.308,-1.1505,-1.2325,-1.2355,-1.306,-1.3382,-1.3423,-1.2885,-1.1915,-1.1287,-1.1797,-1.1367,-1.0892,-1.0861,-1.027,-0.9711,-0.9515,-0.8467,0.0,0.0,-0.6942,-0.5967,-0.4627,-0.4139,-0.3931,-0.4034,-0.3658,-0.347,-0.36,-0.3595,-0.3676,-0.3804,-0.3664,-0.3614,-0.3614,-0.3611,-0.3626,-0.3622,-0.3887,-0.4004,-0.4045,-0.4382,-0.4899,-0.5539,-0.5577,-0.6104,-0.7054,-0.7407,-0.7706,-0.7995,-0.8521,-0.8846,-0.9056,-0.9248,-0.9795,-1.0534,-1.125,-1.211,-1.2912,-1.2858,-1.3743,-1.5103,-1.6163,-1.6522,-1.6607,-1.7073,-1.7199,-1.7199,-1.7199,-1.7199,-1.7199,-1.7225,-1.7225,-1.7424,-1.8053,-1.8197,-1.8511,-1.9638,-1.9874,-1.9874,-1.9874,-2.0743,-2.1233,-2.0669,-2.1689,-2.2558,-2.2558,-2.2558,-2.2725,-2.3172,-2.3216,-2.3169,-2.3046,-2.3603,-2.3724,-2.3071,-2.3051,-2.2631,-2.1615,-2.2217,-2.213,-2.1087,-2.1342,-2.1355,-2.1039,-2.1007,-2.1007,-2.1039,-2.1039,-2.1023,-2.1023,-2.2101,-2.2227,-1.0302,-0.9727,-0.9037,-1.124,-1.1228,-1.1177,-1.3133,-1.3226,-1.2963,-1.3154,-1.2962,-1.2494,-1.1558,-1.1383,-1.1059,-1.0147,-0.9243,-0.8543,0.0,-0.7181,-0.6057,-0.5097,-0.4481,-0.4062,-0.3798,-0.3624,-0.3479,-0.3395,-0.342,-0.334,-0.3075,-0.3171,-0.3064,-0.282,-0.2711,-0.2801,-0.3126,-0.3077,-0.3382,-0.3996,-0.4017,-0.4309,-0.484,-0.484,-0.5261,-0.6034,-0.6148,-0.6621,-0.735,-0.7747,-0.8191,-0.8724,-0.9096,-0.9558,-1.006,-1.0572,-1.1183,-1.1834,-1.2229,-1.3245,-1.4565,-1.532,-1.6008,-1.6607,-1.7073,-1.7199,-1.7199,-1.7199,-1.7199,-1.7199,-1.7199,-1.7199,-1.7356,-1.7957,-1.81,-1.8296,-1.9041,-1.9211,-1.9211,-1.9211,-1.9495,-1.9701,-1.9502,-1.9806,-2.0644,-2.2154,-2.22,-2.2207,-2.2439,-2.2327,-2.2207,-2.2159,-2.234,-2.2385,-2.2159,-2.1738,-2.1325,-2.1007,-2.0801,-2.0523,-2.0204,-2.0264,-2.0294,-2.0189,-2.0154,-2.0139,-2.0139,-2.0139,-2.0139,-2.0154,-2.0733,-2.1084,-0.8562,-0.793,-0.7263,-0.9763,-0.9684,-0.9778,-1.2788,-1.3415,-1.3377,-1.341,-1.4038,-1.3797,-1.1247,-1.1813,-1.2106,-1.0408,-1.0046,-0.9646,0.0,-0.7492,-0.6262,-0.5449,-0.4754,-0.42,-0.3827,-0.3527,-0.3336,-0.3284,-0.2925,-0.2603,-0.2389,-0.2591,-0.2617,-0.2316,-0.2198,-0.2328,-0.2632,-0.2741,-0.3064,-0.3581,-0.3399,-0.3509,-0.394,-0.398,-0.4345,-0.4928,-0.522,-0.5839,-0.6626,-0.7111,-0.7698,-0.8316,-0.8602,-0.9039,-0.9588,-1.006,-1.0534,-1.1009,-1.1773,-1.2615,-1.351,-1.4479,-1.5205,-1.5807,-1.6476,-1.6808,-1.6947,-1.6947,-1.7073,-1.7199,-1.7199,-1.7199,-1.7303,-1.7682,-1.7774,-1.7931,-1.8493,-1.8767,-1.8845,-1.8649,-1.8891,-1.9034,-1.863,-1.8676,-1.9331,-2.0854,-2.0952,-2.0936,-2.1212,-2.1096,-2.0971,-2.09,-2.1076,-2.112,-2.0885,-2.0489,-2.0167,-1.9932,-1.9507,-1.9295,-1.9347,-1.931,-1.9347,-1.9545,-1.9508,-1.9545,-1.969,-1.969,-1.969,-1.9726,-1.9909,-2.0208]}]]